Wetterdaten: Sonntag, 17.01.2021
Datum Zeit Temp. 2m Temp +5 cm Feuchte A. Luftdruck Regen Wind Richtung Richtung Sonnenschein UV Solar Taupunkt Windchill Windben
17.01.2021 00:00 -4,1 C -3,3 C 91 % 1019,2 hPa 0,0 l/m 6,4 km/h (2 Bft) SW 225 0 min 0,0 UV-I 0 W/m -5,3 C -4,0 C 9,7 km/h (2 Bft)
17.01.2021 00:01 -4,1 C -3,3 C 91 % 1019,3 hPa 0,0 l/m 8,0 km/h (2 Bft) S-SW 202 0 min 0,0 UV-I 0 W/m -5,3 C -6,0 C 9,7 km/h (2 Bft)
17.01.2021 00:02 -4,1 C -3,3 C 91 % 1019,2 hPa 0,0 l/m 8,0 km/h (2 Bft) S-SW 202 0 min 0,0 UV-I 0 W/m -5,3 C -6,0 C 9,7 km/h (2 Bft)
17.01.2021 00:03 -4,1 C -3,3 C 91 % 1019,3 hPa 0,0 l/m 8,0 km/h (2 Bft) SW 225 0 min 0,0 UV-I 0 W/m -5,3 C -6,0 C 9,7 km/h (2 Bft)
17.01.2021 00:04 -4,1 C -3,3 C 91 % 1019,2 hPa 0,0 l/m 6,4 km/h (2 Bft) SW 225 0 min 0,0 UV-I 0 W/m -5,3 C -4,0 C 8,0 km/h (2 Bft)
17.01.2021 00:05 -4,1 C -3,3 C 91 % 1019,3 hPa 0,0 l/m 4,8 km/h (1 Bft) SW 225 0 min 0,0 UV-I 0 W/m -5,3 C -4,1 C 6,4 km/h (2 Bft)
17.01.2021 00:06 -4,1 C -3,3 C 91 % 1019,2 hPa 0,0 l/m 6,4 km/h (2 Bft) SW 225 0 min 0,0 UV-I 0 W/m -5,3 C -4,0 C 8,0 km/h (2 Bft)
17.01.2021 00:07 -4,1 C -3,3 C 91 % 1019,3 hPa 0,0 l/m 8,0 km/h (2 Bft) SW 225 0 min 0,0 UV-I 0 W/m -5,3 C -6,0 C 9,7 km/h (2 Bft)
17.01.2021 00:08 -4,1 C -3,3 C 91 % 1019,2 hPa 0,0 l/m 4,8 km/h (1 Bft) SW 225 0 min 0,0 UV-I 0 W/m -5,3 C -4,1 C 6,4 km/h (2 Bft)
17.01.2021 00:09 -4,1 C -3,3 C 91 % 1019,3 hPa 0,0 l/m 9,7 km/h (2 Bft) S-SW 202 0 min 0,0 UV-I 0 W/m -5,3 C -7,7 C 12,9 km/h (3 Bft)
17.01.2021 00:10 -4,1 C -3,3 C 91 % 1019,2 hPa 0,0 l/m 9,7 km/h (2 Bft) SW 225 0 min 0,0 UV-I 0 W/m -5,3 C -7,7 C 11,3 km/h (2 Bft)
17.01.2021 00:11 -4,1 C -3,3 C 91 % 1019,2 hPa 0,0 l/m 8,0 km/h (2 Bft) S-SW 202 0 min 0,0 UV-I 0 W/m -5,3 C -6,0 C 11,3 km/h (2 Bft)
17.01.2021 00:12 -4,1 C -3,3 C 91 % 1019,2 hPa 0,0 l/m 12,9 km/h (3 Bft) S-SW 202 0 min 0,0 UV-I 0 W/m -5,3 C -10,4 C 14,5 km/h (3 Bft)
17.01.2021 00:13 -4,1 C -3,3 C 91 % 1019,2 hPa 0,0 l/m 9,7 km/h (2 Bft) SW 225 0 min 0,0 UV-I 0 W/m -5,3 C -7,7 C 11,3 km/h (2 Bft)
17.01.2021 00:14 -4,1 C -3,3 C 91 % 1019,2 hPa 0,0 l/m 9,7 km/h (2 Bft) S-SW 202 0 min 0,0 UV-I 0 W/m -5,3 C -7,7 C 11,3 km/h (2 Bft)
17.01.2021 00:15 -4,1 C -3,3 C 91 % 1019,2 hPa 0,0 l/m 9,7 km/h (2 Bft) S-SW 202 0 min 0,0 UV-I 0 W/m -5,3 C -7,7 C 14,5 km/h (3 Bft)
17.01.2021 00:16 -4,1 C -3,3 C 91 % 1019,1 hPa 0,0 l/m 9,7 km/h (2 Bft) SW 225 0 min 0,0 UV-I 0 W/m -5,3 C -7,7 C 12,9 km/h (3 Bft)
17.01.2021 00:17 -4,1 C -3,3 C 91 % 1019,1 hPa 0,0 l/m 9,7 km/h (2 Bft) S-SW 202 0 min 0,0 UV-I 0 W/m -5,3 C -7,7 C 11,3 km/h (2 Bft)
17.01.2021 00:18 -4,1 C -3,3 C 91 % 1019,1 hPa 0,0 l/m 8,0 km/h (2 Bft) SW 225 0 min 0,0 UV-I 0 W/m -5,3 C -6,0 C 11,3 km/h (2 Bft)
17.01.2021 00:19 -4,1 C -3,3 C 91 % 1019,1 hPa 0,0 l/m 9,7 km/h (2 Bft) S-SW 202 0 min 0,0 UV-I 0 W/m -5,3 C -7,7 C 12,9 km/h (3 Bft)
17.01.2021 00:20 -4,1 C -3,3 C 91 % 1019,1 hPa 0,0 l/m 9,7 km/h (2 Bft) SW 225 0 min 0,0 UV-I 0 W/m -5,3 C -7,7 C 12,9 km/h (3 Bft)
17.01.2021 00:21 -4,1 C -3,9 C 91 % 1019,0 hPa 0,0 l/m 8,0 km/h (2 Bft) SW 225 0 min 0,0 UV-I 0 W/m -5,3 C -6,0 C 9,7 km/h (2 Bft)
17.01.2021 00:22 -4,1 C -3,3 C 91 % 1019,0 hPa 0,0 l/m 11,3 km/h (2 Bft) SW 225 0 min 0,0 UV-I 0 W/m -5,3 C -9,1 C 14,5 km/h (3 Bft)
17.01.2021 00:23 -4,1 C -3,9 C 91 % 1019,1 hPa 0,0 l/m 11,3 km/h (2 Bft) S-SW 202 0 min 0,0 UV-I 0 W/m -5,3 C -9,1 C 12,9 km/h (3 Bft)
17.01.2021 00:24 -4,1 C -3,9 C 91 % 1019,0 hPa 0,0 l/m 9,7 km/h (2 Bft) SW 225 0 min 0,0 UV-I 0 W/m -5,3 C -7,7 C 11,3 km/h (2 Bft)
17.01.2021 00:25 -4,1 C -3,9 C 91 % 1019,0 hPa 0,0 l/m 8,0 km/h (2 Bft) S-SW 202 0 min 0,0 UV-I 0 W/m -5,3 C -6,0 C 12,9 km/h (3 Bft)
17.01.2021 00:26 -4,1 C -3,9 C 91 % 1019,0 hPa 0,0 l/m 8,0 km/h (2 Bft) S-SW 202 0 min 0,0 UV-I 0 W/m -5,3 C -6,0 C 9,7 km/h (2 Bft)
17.01.2021 00:27 -4,1 C -3,3 C 91 % 1018,8 hPa 0,0 l/m 8,0 km/h (2 Bft) SW 225 0 min 0,0 UV-I 0 W/m -5,3 C -6,0 C 9,7 km/h (2 Bft)
17.01.2021 00:28 -4,1 C -3,3 C 91 % 1019,0 hPa 0,0 l/m 9,7 km/h (2 Bft) S-SW 202 0 min 0,0 UV-I 0 W/m -5,3 C -7,7 C 11,3 km/h (2 Bft)
17.01.2021 00:29 -4,1 C -3,3 C 91 % 1018,9 hPa 0,0 l/m 9,7 km/h (2 Bft) SW 225 0 min 0,0 UV-I 0 W/m -5,3 C -7,7 C 11,3 km/h (2 Bft)
17.01.2021 00:30 -4,1 C -3,3 C 91 % 1018,8 hPa 0,0 l/m 8,0 km/h (2 Bft) SW 225 0 min 0,0 UV-I 0 W/m -5,3 C -6,0 C 9,7 km/h (2 Bft)
17.01.2021 00:31 -4,1 C -3,3 C 91 % 1018,9 hPa 0,0 l/m 6,4 km/h (2 Bft) SW 225 0 min 0,0 UV-I 0 W/m -5,3 C -4,0 C 8,0 km/h (2 Bft)
17.01.2021 00:32 -4,1 C -3,3 C 91 % 1018,9 hPa 0,0 l/m 6,4 km/h (2 Bft) S-SW 202 0 min 0,0 UV-I 0 W/m -5,3 C -4,0 C 9,7 km/h (2 Bft)
17.01.2021 00:33 -4,1 C -3,3 C 91 % 1018,8 hPa 0,0 l/m 6,4 km/h (2 Bft) SW 225 0 min 0,0 UV-I 0 W/m -5,3 C -4,0 C 11,3 km/h (2 Bft)
17.01.2021 00:34 -4,1 C -3,3 C 91 % 1018,8 hPa 0,0 l/m 8,0 km/h (2 Bft) SW 225 0 min 0,0 UV-I 0 W/m -5,3 C -6,0 C 11,3 km/h (2 Bft)
17.01.2021 00:35 -4,1 C -3,3 C 91 % 1018,9 hPa 0,0 l/m 8,0 km/h (2 Bft) SW 225 0 min 0,0 UV-I 0 W/m -5,3 C -6,0 C 9,7 km/h (2 Bft)
17.01.2021 00:36 -4,1 C -3,3 C 91 % 1018,8 hPa 0,0 l/m 6,4 km/h (2 Bft) SW 225 0 min 0,0 UV-I 0 W/m -5,3 C -4,0 C 11,3 km/h (2 Bft)
17.01.2021 00:37 -4,1 C -3,3 C 91 % 1018,8 hPa 0,0 l/m 6,4 km/h (2 Bft) S-SW 202 0 min 0,0 UV-I 0 W/m -5,3 C -4,0 C 9,7 km/h (2 Bft)
17.01.2021 00:38 -4,1 C -3,3 C 91 % 1018,8 hPa 0,0 l/m 8,0 km/h (2 Bft) S-SW 202 0 min 0,0 UV-I 0 W/m -5,3 C -6,0 C 9,7 km/h (2 Bft)
17.01.2021 00:39 -4,1 C -3,3 C 91 % 1018,8 hPa 0,0 l/m 6,4 km/h (2 Bft) S-SW 202 0 min 0,0 UV-I 0 W/m -5,3 C -4,0 C 8,0 km/h (2 Bft)
17.01.2021 00:40 -4,1 C -3,3 C 91 % 1018,8 hPa 0,0 l/m 6,4 km/h (2 Bft) SW 225 0 min 0,0 UV-I 0 W/m -5,3 C -4,0 C 8,0 km/h (2 Bft)
17.01.2021 00:41 -4,1 C -3,3 C 91 % 1018,8 hPa 0,0 l/m 8,0 km/h (2 Bft) SW 225 0 min 0,0 UV-I 0 W/m -5,3 C -6,0 C 9,7 km/h (2 Bft)
17.01.2021 00:42 -4,1 C -3,3 C 91 % 1018,8 hPa 0,0 l/m 6,4 km/h (2 Bft) SW 225 0 min 0,0 UV-I 0 W/m -5,3 C -4,0 C 8,0 km/h (2 Bft)
17.01.2021 00:43 -4,1 C -3,3 C 91 % 1018,7 hPa 0,0 l/m 8,0 km/h (2 Bft) S-SW 202 0 min 0,0 UV-I 0 W/m -5,3 C -6,0 C 9,7 km/h (2 Bft)
17.01.2021 00:44 -4,1 C -3,3 C 91 % 1018,7 hPa 0,0 l/m 6,4 km/h (2 Bft) SW 225 0 min 0,0 UV-I 0 W/m -5,3 C -4,0 C 8,0 km/h (2 Bft)
17.01.2021 00:45 -4,1 C -3,3 C 91 % 1018,7 hPa 0,0 l/m 4,8 km/h (1 Bft) SW 225 0 min 0,0 UV-I 0 W/m -5,3 C -4,1 C 6,4 km/h (2 Bft)
17.01.2021 00:46 -4,1 C -3,3 C 91 % 1018,7 hPa 0,0 l/m 4,8 km/h (1 Bft) SW 225 0 min 0,0 UV-I 0 W/m -5,3 C -4,1 C 6,4 km/h (2 Bft)
17.01.2021 00:47 -4,1 C -3,3 C 91 % 1018,7 hPa 0,0 l/m 4,8 km/h (1 Bft) S-SW 202 0 min 0,0 UV-I 0 W/m -5,3 C -4,1 C 6,4 km/h (2 Bft)
17.01.2021 00:48 -4,1 C -3,3 C 91 % 1018,6 hPa 0,0 l/m 6,4 km/h (2 Bft) S-SW 202 0 min 0,0 UV-I 0 W/m -5,3 C -4,0 C 8,0 km/h (2 Bft)
17.01.2021 00:49 -4,2 C -3,3 C 91 % 1018,7 hPa 0,0 l/m 6,4 km/h (2 Bft) SW 225 0 min 0,0 UV-I 0 W/m -5,4 C -4,1 C 8,0 km/h (2 Bft)
17.01.2021 00:50 -4,1 C -3,3 C 91 % 1018,7 hPa 0,0 l/m 6,4 km/h (2 Bft) SW 225 0 min 0,0 UV-I 0 W/m -5,3 C -4,0 C 8,0 km/h (2 Bft)
17.01.2021 00:51 -4,1 C -3,3 C 91 % 1018,7 hPa 0,0 l/m 8,0 km/h (2 Bft) S-SW 202 0 min 0,0 UV-I 0 W/m -5,3 C -6,0 C 11,3 km/h (2 Bft)
17.01.2021 00:52 -4,1 C -3,3 C 91 % 1018,7 hPa 0,0 l/m 8,0 km/h (2 Bft) S-SW 202 0 min 0,0 UV-I 0 W/m -5,3 C -6,0 C 9,7 km/h (2 Bft)
17.01.2021 00:53 -4,1 C -3,3 C 91 % 1018,7 hPa 0,0 l/m 6,4 km/h (2 Bft) S-SW 202 0 min 0,0 UV-I 0 W/m -5,3 C -4,0 C 9,7 km/h (2 Bft)
17.01.2021 00:54 -4,1 C -3,3 C 91 % 1018,7 hPa 0,0 l/m 6,4 km/h (2 Bft) S-SW 202 0 min 0,0 UV-I 0 W/m -5,3 C -4,0 C 8,0 km/h (2 Bft)
17.01.2021 00:55 -4,1 C -3,3 C 91 % 1018,7 hPa 0,0 l/m 8,0 km/h (2 Bft) S-SW 202 0 min 0,0 UV-I 0 W/m -5,3 C -6,0 C 9,7 km/h (2 Bft)
17.01.2021 00:56 -4,1 C -3,3 C 91 % 1018,6 hPa 0,0 l/m 6,4 km/h (2 Bft) SW 225 0 min 0,0 UV-I 0 W/m -5,3 C -4,0 C 9,7 km/h (2 Bft)
17.01.2021 00:57 -4,1 C -3,3 C 91 % 1018,7 hPa 0,0 l/m 6,4 km/h (2 Bft) SW 225 0 min 0,0 UV-I 0 W/m -5,3 C -4,0 C 9,7 km/h (2 Bft)
17.01.2021 00:58 -4,1 C -3,3 C 91 % 1018,6 hPa 0,2 l/m 6,4 km/h (2 Bft) SW 225 0 min 0,0 UV-I 0 W/m -5,3 C -4,0 C 8,0 km/h (2 Bft)
17.01.2021 00:59 -4,1 C -3,3 C 91 % 1018,6 hPa 0,0 l/m 6,4 km/h (2 Bft) SW 225 0 min 0,0 UV-I 0 W/m -5,3 C -4,0 C 8,0 km/h (2 Bft)
17.01.2021 01:00 -4,1 C -3,3 C 91 % 1018,6 hPa 0,0 l/m 6,4 km/h (2 Bft) S-SW 202 0 min 0,0 UV-I 0 W/m -5,3 C -4,0 C 8,0 km/h (2 Bft)
17.01.2021 01:01 -4,1 C -3,3 C 91 % 1018,6 hPa 0,0 l/m 6,4 km/h (2 Bft) S-SW 202 0 min 0,0 UV-I 0 W/m -5,3 C -4,0 C 8,0 km/h (2 Bft)
17.01.2021 01:02 -4,1 C -3,3 C 91 % 1018,5 hPa 0,0 l/m 6,4 km/h (2 Bft) SW 225 0 min 0,0 UV-I 0 W/m -5,3 C -4,0 C 8,0 km/h (2 Bft)
17.01.2021 01:03 -4,2 C -3,3 C 91 % 1018,4 hPa 0,0 l/m 6,4 km/h (2 Bft) SW 225 0 min 0,0 UV-I 0 W/m -5,4 C -4,1 C 8,0 km/h (2 Bft)
17.01.2021 01:04 -4,1 C -3,3 C 91 % 1018,4 hPa 0,0 l/m 8,0 km/h (2 Bft) SW 225 0 min 0,0 UV-I 0 W/m -5,3 C -6,0 C 9,7 km/h (2 Bft)
17.01.2021 01:05 -4,2 C -3,3 C 91 % 1018,4 hPa 0,0 l/m 8,0 km/h (2 Bft) S-SW 202 0 min 0,0 UV-I 0 W/m -5,4 C -6,1 C 9,7 km/h (2 Bft)
17.01.2021 01:06 -4,2 C -3,3 C 91 % 1018,4 hPa 0,0 l/m 8,0 km/h (2 Bft) S-SW 202 0 min 0,0 UV-I 0 W/m -5,4 C -6,1 C 11,3 km/h (2 Bft)
17.01.2021 01:07 -4,2 C -3,3 C 91 % 1018,4 hPa 0,0 l/m 8,0 km/h (2 Bft) S-SW 202 0 min 0,0 UV-I 0 W/m -5,4 C -6,1 C 9,7 km/h (2 Bft)
17.01.2021 01:08 -4,2 C -3,3 C 91 % 1018,4 hPa 0,0 l/m 8,0 km/h (2 Bft) SW 225 0 min 0,0 UV-I 0 W/m -5,4 C -6,1 C 9,7 km/h (2 Bft)
17.01.2021 01:09 -4,2 C -3,3 C 91 % 1018,4 hPa 0,0 l/m 8,0 km/h (2 Bft) S-SW 202 0 min 0,0 UV-I 0 W/m -5,4 C -6,1 C 9,7 km/h (2 Bft)
17.01.2021 01:10 -4,2 C -3,3 C 91 % 1018,3 hPa 0,0 l/m 8,0 km/h (2 Bft) S-SW 202 0 min 0,0 UV-I 0 W/m -5,4 C -6,1 C 9,7 km/h (2 Bft)
17.01.2021 01:11 -4,2 C -3,3 C 91 % 1018,4 hPa 0,0 l/m 6,4 km/h (2 Bft) S-SW 202 0 min 0,0 UV-I 0 W/m -5,4 C -4,1 C 9,7 km/h (2 Bft)
17.01.2021 01:12 -4,2 C -3,3 C 91 % 1018,3 hPa 0,0 l/m 8,0 km/h (2 Bft) S-SW 202 0 min 0,0 UV-I 0 W/m -5,4 C -6,1 C 9,7 km/h (2 Bft)
17.01.2021 01:13 -4,2 C -3,3 C 91 % 1018,3 hPa 0,0 l/m 8,0 km/h (2 Bft) SW 225 0 min 0,0 UV-I 0 W/m -5,4 C -6,1 C 9,7 km/h (2 Bft)
17.01.2021 01:14 -4,2 C -3,3 C 91 % 1018,3 hPa 0,0 l/m 6,4 km/h (2 Bft) S-SW 202 0 min 0,0 UV-I 0 W/m -5,4 C -4,1 C 9,7 km/h (2 Bft)
17.01.2021 01:15 -4,2 C -3,3 C 91 % 1018,2 hPa 0,0 l/m 8,0 km/h (2 Bft) S-SW 202 0 min 0,0 UV-I 0 W/m -5,4 C -6,1 C 9,7 km/h (2 Bft)
17.01.2021 01:16 -4,2 C -3,3 C 91 % 1018,3 hPa 0,0 l/m 8,0 km/h (2 Bft) SW 225 0 min 0,0 UV-I 0 W/m -5,4 C -6,1 C 9,7 km/h (2 Bft)
17.01.2021 01:17 -4,2 C -3,3 C 91 % 1018,4 hPa 0,0 l/m 8,0 km/h (2 Bft) SW 225 0 min 0,0 UV-I 0 W/m -5,4 C -6,1 C 9,7 km/h (2 Bft)
17.01.2021 01:18 -4,2 C -3,3 C 91 % 1018,3 hPa 0,0 l/m 6,4 km/h (2 Bft) S-SW 202 0 min 0,0 UV-I 0 W/m -5,4 C -4,1 C 9,7 km/h (2 Bft)
17.01.2021 01:19 -4,2 C -3,3 C 91 % 1018,4 hPa 0,0 l/m 6,4 km/h (2 Bft) S-SW 202 0 min 0,0 UV-I 0 W/m -5,4 C -4,1 C 9,7 km/h (2 Bft)
17.01.2021 01:20 -4,2 C -3,3 C 91 % 1018,3 hPa 0,0 l/m 6,4 km/h (2 Bft) S-SW 202 0 min 0,0 UV-I 0 W/m -5,4 C -4,1 C 8,0 km/h (2 Bft)
17.01.2021 01:21 -4,2 C -3,3 C 91 % 1018,3 hPa 0,0 l/m 6,4 km/h (2 Bft) S-SW 202 0 min 0,0 UV-I 0 W/m -5,4 C -4,1 C 6,4 km/h (2 Bft)
17.01.2021 01:22 -4,2 C -3,3 C 91 % 1018,3 hPa 0,0 l/m 6,4 km/h (2 Bft) SW 225 0 min 0,0 UV-I 0 W/m -5,4 C -4,1 C 8,0 km/h (2 Bft)
17.01.2021 01:23 -4,1 C -3,3 C 91 % 1018,3 hPa 0,0 l/m 6,4 km/h (2 Bft) S-SW 202 0 min 0,0 UV-I 0 W/m -5,3 C -4,0 C 9,7 km/h (2 Bft)
17.01.2021 01:24 -4,2 C -3,3 C 91 % 1018,3 hPa 0,0 l/m 4,8 km/h (1 Bft) SW 225 0 min 0,0 UV-I 0 W/m -5,4 C -4,2 C 9,7 km/h (2 Bft)
17.01.2021 01:25 -4,1 C -3,3 C 91 % 1018,3 hPa 0,0 l/m 8,0 km/h (2 Bft) S-SW 202 0 min 0,0 UV-I 0 W/m -5,3 C -6,0 C 9,7 km/h (2 Bft)
17.01.2021 01:26 -4,2 C -3,3 C 91 % 1018,3 hPa 0,0 l/m 8,0 km/h (2 Bft) S-SW 202 0 min 0,0 UV-I 0 W/m -5,4 C -6,1 C 9,7 km/h (2 Bft)
17.01.2021 01:27 -4,2 C -3,3 C 91 % 1018,3 hPa 0,0 l/m 8,0 km/h (2 Bft) S-SW 202 0 min 0,0 UV-I 0 W/m -5,4 C -6,1 C 9,7 km/h (2 Bft)
17.01.2021 01:28 -4,1 C -3,3 C 91 % 1018,3 hPa 0,0 l/m 8,0 km/h (2 Bft) SW 225 0 min 0,0 UV-I 0 W/m -5,3 C -6,0 C 11,3 km/h (2 Bft)
17.01.2021 01:29 -4,2 C -3,3 C 91 % 1018,3 hPa 0,0 l/m 8,0 km/h (2 Bft) SW 225 0 min 0,0 UV-I 0 W/m -5,4 C -6,1 C 11,3 km/h (2 Bft)
17.01.2021 01:30 -4,1 C -3,3 C 91 % 1018,4 hPa 0,0 l/m 8,0 km/h (2 Bft) S-SW 202 0 min 0,0 UV-I 0 W/m -5,3 C -6,0 C 9,7 km/h (2 Bft)
17.01.2021 01:31 -4,1 C -3,3 C 91 % 1018,3 hPa 0,0 l/m 4,8 km/h (1 Bft) SW 225 0 min 0,0 UV-I 0 W/m -5,3 C -4,1 C 6,4 km/h (2 Bft)
17.01.2021 01:32 -4,2 C -3,3 C 91 % 1018,3 hPa 0,0 l/m 6,4 km/h (2 Bft) SW 225 0 min 0,0 UV-I 0 W/m -5,4 C -4,1 C 9,7 km/h (2 Bft)
17.01.2021 01:33 -4,1 C -3,3 C 91 % 1018,3 hPa 0,0 l/m 6,4 km/h (2 Bft) SW 225 0 min 0,0 UV-I 0 W/m -5,3 C -4,0 C 11,3 km/h (2 Bft)
17.01.2021 01:34 -4,1 C -3,3 C 91 % 1018,2 hPa 0,0 l/m 8,0 km/h (2 Bft) S-SW 202 0 min 0,0 UV-I 0 W/m -5,3 C -6,0 C 12,9 km/h (3 Bft)
17.01.2021 01:35 -4,2 C -3,3 C 91 % 1018,2 hPa 0,0 l/m 9,7 km/h (2 Bft) S-SW 202 0 min 0,0 UV-I 0 W/m -5,4 C -7,8 C 12,9 km/h (3 Bft)
17.01.2021 01:36 -4,2 C -3,3 C 91 % 1018,2 hPa 0,0 l/m 6,4 km/h (2 Bft) SW 225 0 min 0,0 UV-I 0 W/m -5,4 C -4,1 C 9,7 km/h (2 Bft)
17.01.2021 01:37 -4,2 C -3,3 C 91 % 1018,3 hPa 0,0 l/m 6,4 km/h (2 Bft) S-SW 202 0 min 0,0 UV-I 0 W/m -5,4 C -4,1 C 9,7 km/h (2 Bft)
17.01.2021 01:38 -4,1 C -3,3 C 91 % 1018,2 hPa 0,0 l/m 4,8 km/h (1 Bft) SW 225 0 min 0,0 UV-I 0 W/m -5,3 C -4,1 C 8,0 km/h (2 Bft)
17.01.2021 01:39 -4,2 C -3,3 C 91 % 1018,2 hPa 0,0 l/m 4,8 km/h (1 Bft) SW 225 0 min 0,0 UV-I 0 W/m -5,4 C -4,2 C 8,0 km/h (2 Bft)
17.01.2021 01:40 -4,2 C -3,3 C 91 % 1018,3 hPa 0,0 l/m 8,0 km/h (2 Bft) S-SW 202 0 min 0,0 UV-I 0 W/m -5,4 C -6,1 C 8,0 km/h (2 Bft)
17.01.2021 01:41 -4,1 C -3,3 C 91 % 1018,2 hPa 0,0 l/m 8,0 km/h (2 Bft) S-SW 202 0 min 0,0 UV-I 0 W/m -5,3 C -6,0 C 9,7 km/h (2 Bft)
17.01.2021 01:42 -4,2 C -3,3 C 91 % 1018,2 hPa 0,0 l/m 8,0 km/h (2 Bft) SW 225 0 min 0,0 UV-I 0 W/m -5,4 C -6,1 C 9,7 km/h (2 Bft)
17.01.2021 01:43 -4,2 C -3,3 C 91 % 1018,2 hPa 0,0 l/m 6,4 km/h (2 Bft) SW 225 0 min 0,0 UV-I 0 W/m -5,4 C -4,1 C 8,0 km/h (2 Bft)
17.01.2021 01:44 -4,2 C -3,3 C 91 % 1018,1 hPa 0,0 l/m 6,4 km/h (2 Bft) S-SW 202 0 min 0,0 UV-I 0 W/m -5,4 C -4,1 C 8,0 km/h (2 Bft)
17.01.2021 01:45 -4,2 C -3,3 C 91 % 1018,1 hPa 0,0 l/m 6,4 km/h (2 Bft) S-SW 202 0 min 0,0 UV-I 0 W/m -5,4 C -4,1 C 9,7 km/h (2 Bft)
17.01.2021 01:46 -4,2 C -3,3 C 91 % 1018,1 hPa 0,0 l/m 8,0 km/h (2 Bft) SW 225 0 min 0,0 UV-I 0 W/m -5,4 C -6,1 C 9,7 km/h (2 Bft)
17.01.2021 01:47 -4,2 C -3,3 C 91 % 1018,0 hPa 0,0 l/m 6,4 km/h (2 Bft) SW 225 0 min 0,0 UV-I 0 W/m -5,4 C -4,1 C 8,0 km/h (2 Bft)
17.01.2021 01:48 -4,2 C -3,3 C 91 % 1018,1 hPa 0,0 l/m 6,4 km/h (2 Bft) SW 225 0 min 0,0 UV-I 0 W/m -5,4 C -4,1 C 9,7 km/h (2 Bft)
17.01.2021 01:49 -4,2 C -3,3 C 91 % 1018,1 hPa 0,0 l/m 8,0 km/h (2 Bft) SW 225 0 min 0,0 UV-I 0 W/m -5,4 C -6,1 C 9,7 km/h (2 Bft)
17.01.2021 01:50 -4,2 C -3,3 C 91 % 1018,0 hPa 0,0 l/m 4,8 km/h (1 Bft) SW 225 0 min 0,0 UV-I 0 W/m -5,4 C -4,2 C 8,0 km/h (2 Bft)
17.01.2021 01:51 -4,2 C -3,3 C 91 % 1018,0 hPa 0,0 l/m 8,0 km/h (2 Bft) S-SW 202 0 min 0,0 UV-I 0 W/m -5,4 C -6,1 C 9,7 km/h (2 Bft)
17.01.2021 01:52 -4,2 C -3,3 C 91 % 1017,9 hPa 0,0 l/m 6,4 km/h (2 Bft) S-SW 202 0 min 0,0 UV-I 0 W/m -5,4 C -4,1 C 6,4 km/h (2 Bft)
17.01.2021 01:53 -4,2 C -3,3 C 91 % 1017,9 hPa 0,0 l/m 4,8 km/h (1 Bft) S-SW 202 0 min 0,0 UV-I 0 W/m -5,4 C -4,2 C 6,4 km/h (2 Bft)
17.01.2021 01:54 -4,2 C -3,3 C 91 % 1017,9 hPa 0,0 l/m 6,4 km/h (2 Bft) S-SW 202 0 min 0,0 UV-I 0 W/m -5,4 C -4,1 C 9,7 km/h (2 Bft)
17.01.2021 01:55 -4,2 C -3,3 C 91 % 1017,9 hPa 0,0 l/m 4,8 km/h (1 Bft) S-SW 202 0 min 0,0 UV-I 0 W/m -5,4 C -4,2 C 6,4 km/h (2 Bft)
17.01.2021 01:56 -4,2 C -3,3 C 91 % 1017,9 hPa 0,0 l/m 4,8 km/h (1 Bft) S-SW 202 0 min 0,0 UV-I 0 W/m -5,4 C -4,2 C 6,4 km/h (2 Bft)
17.01.2021 01:57 -4,2 C -3,3 C 91 % 1017,9 hPa 0,0 l/m 6,4 km/h (2 Bft) S-SW 202 0 min 0,0 UV-I 0 W/m -5,4 C -4,1 C 8,0 km/h (2 Bft)
17.01.2021 01:58 -4,2 C -3,3 C 91 % 1017,9 hPa 0,0 l/m 6,4 km/h (2 Bft) S-SW 202 0 min 0,0 UV-I 0 W/m -5,4 C -4,1 C 9,7 km/h (2 Bft)
17.01.2021 01:59 -4,2 C -3,3 C 91 % 1017,9 hPa 0,0 l/m 8,0 km/h (2 Bft) S-SW 202 0 min 0,0 UV-I 0 W/m -5,4 C -6,1 C 8,0 km/h (2 Bft)
17.01.2021 02:00 -4,2 C -3,3 C 91 % 1017,9 hPa 0,0 l/m 6,4 km/h (2 Bft) S-SW 202 0 min 0,0 UV-I 0 W/m -5,4 C -4,1 C 8,0 km/h (2 Bft)
17.01.2021 02:01 -4,2 C -3,3 C 91 % 1017,8 hPa 0,0 l/m 6,4 km/h (2 Bft) S-SW 202 0 min 0,0 UV-I 0 W/m -5,4 C -4,1 C 8,0 km/h (2 Bft)
17.01.2021 02:02 -4,2 C -3,3 C 91 % 1017,9 hPa 0,0 l/m 6,4 km/h (2 Bft) SW 225 0 min 0,0 UV-I 0 W/m -5,4 C -4,1 C 8,0 km/h (2 Bft)
17.01.2021 02:03 -4,2 C -3,3 C 91 % 1017,9 hPa 0,0 l/m 6,4 km/h (2 Bft) SW 225 0 min 0,0 UV-I 0 W/m -5,4 C -4,1 C 8,0 km/h (2 Bft)
17.01.2021 02:04 -4,2 C -3,3 C 91 % 1017,9 hPa 0,0 l/m 4,8 km/h (1 Bft) SW 225 0 min 0,0 UV-I 0 W/m -5,4 C -4,2 C 8,0 km/h (2 Bft)
17.01.2021 02:05 -4,2 C -3,3 C 91 % 1018,1 hPa 0,0 l/m 8,0 km/h (2 Bft) SW 225 0 min 0,0 UV-I 0 W/m -5,4 C -6,1 C 11,3 km/h (2 Bft)
17.01.2021 02:06 -4,2 C -3,3 C 91 % 1018,1 hPa 0,0 l/m 6,4 km/h (2 Bft) SW 225 0 min 0,0 UV-I 0 W/m -5,4 C -4,1 C 9,7 km/h (2 Bft)
17.01.2021 02:07 -4,2 C -3,3 C 91 % 1018,1 hPa 0,0 l/m 4,8 km/h (1 Bft) SW 225 0 min 0,0 UV-I 0 W/m -5,4 C -4,2 C 8,0 km/h (2 Bft)
17.01.2021 02:08 -4,2 C -3,3 C 91 % 1018,1 hPa 0,0 l/m 6,4 km/h (2 Bft) SW 225 0 min 0,0 UV-I 0 W/m -5,4 C -4,1 C 8,0 km/h (2 Bft)
17.01.2021 02:09 -4,2 C -3,3 C 91 % 1018,2 hPa 0,0 l/m 3,2 km/h (1 Bft) SW 225 0 min 0,0 UV-I 0 W/m -5,4 C -4,2 C 6,4 km/h (2 Bft)
17.01.2021 02:10 -4,2 C -3,3 C 91 % 1018,1 hPa 0,0 l/m 4,8 km/h (1 Bft) SW 225 0 min 0,0 UV-I 0 W/m -5,4 C -4,2 C 8,0 km/h (2 Bft)
17.01.2021 02:11 -4,2 C -3,3 C 91 % 1018,1 hPa 0,0 l/m 6,4 km/h (2 Bft) S-SW 202 0 min 0,0 UV-I 0 W/m -5,4 C -4,1 C 8,0 km/h (2 Bft)
17.01.2021 02:12 -4,2 C -3,3 C 91 % 1018,1 hPa 0,0 l/m 4,8 km/h (1 Bft) SW 225 0 min 0,0 UV-I 0 W/m -5,4 C -4,2 C 4,8 km/h (1 Bft)
17.01.2021 02:13 -4,2 C -3,3 C 91 % 1018,2 hPa 0,0 l/m 6,4 km/h (2 Bft) SW 225 0 min 0,0 UV-I 0 W/m -5,4 C -4,1 C 8,0 km/h (2 Bft)
17.01.2021 02:14 -4,2 C -3,3 C 91 % 1018,2 hPa 0,0 l/m 4,8 km/h (1 Bft) SW 225 0 min 0,0 UV-I 0 W/m -5,4 C -4,2 C 6,4 km/h (2 Bft)
17.01.2021 02:15 -4,2 C -3,3 C 91 % 1018,3 hPa 0,0 l/m 6,4 km/h (2 Bft) SW 225 0 min 0,0 UV-I 0 W/m -5,4 C -4,1 C 11,3 km/h (2 Bft)
17.01.2021 02:16 -4,2 C -3,3 C 91 % 1018,3 hPa 0,0 l/m 6,4 km/h (2 Bft) SW 225 0 min 0,0 UV-I 0 W/m -5,4 C -4,1 C 8,0 km/h (2 Bft)
17.01.2021 02:17 -4,2 C -3,3 C 91 % 1018,3 hPa 0,0 l/m 6,4 km/h (2 Bft) S-SW 202 0 min 0,0 UV-I 0 W/m -5,4 C -4,1 C 9,7 km/h (2 Bft)
17.01.2021 02:18 -4,2 C -3,3 C 91 % 1018,3 hPa 0,0 l/m 8,0 km/h (2 Bft) S-SW 202 0 min 0,0 UV-I 0 W/m -5,4 C -6,1 C 9,7 km/h (2 Bft)
17.01.2021 02:19 -4,2 C -3,3 C 91 % 1018,3 hPa 0,0 l/m 6,4 km/h (2 Bft) S-SW 202 0 min 0,0 UV-I 0 W/m -5,4 C -4,1 C 8,0 km/h (2 Bft)
17.01.2021 02:20 -4,2 C -3,3 C 91 % 1018,2 hPa 0,0 l/m 6,4 km/h (2 Bft) SW 225 0 min 0,0 UV-I 0 W/m -5,4 C -4,1 C 9,7 km/h (2 Bft)
17.01.2021 02:21 -4,2 C -3,3 C 91 % 1018,2 hPa 0,0 l/m 6,4 km/h (2 Bft) S-SW 202 0 min 0,0 UV-I 0 W/m -5,4 C -4,1 C 8,0 km/h (2 Bft)
17.01.2021 02:22 -4,2 C -3,3 C 91 % 1018,2 hPa 0,0 l/m 6,4 km/h (2 Bft) SW 225 0 min 0,0 UV-I 0 W/m -5,4 C -4,1 C 8,0 km/h (2 Bft)
17.01.2021 02:23 -4,2 C -3,3 C 91 % 1018,2 hPa 0,0 l/m 6,4 km/h (2 Bft) S-SW 202 0 min 0,0 UV-I 0 W/m -5,4 C -4,1 C 8,0 km/h (2 Bft)
17.01.2021 02:24 -4,3 C -3,3 C 91 % 1018,2 hPa 0,0 l/m 8,0 km/h (2 Bft) SW 225 0 min 0,0 UV-I 0 W/m -5,5 C -6,2 C 9,7 km/h (2 Bft)
17.01.2021 02:25 -4,3 C -3,3 C 91 % 1018,3 hPa 0,0 l/m 8,0 km/h (2 Bft) S-SW 202 0 min 0,0 UV-I 0 W/m -5,5 C -6,2 C 9,7 km/h (2 Bft)
17.01.2021 02:26 -4,3 C -3,3 C 91 % 1018,3 hPa 0,0 l/m 6,4 km/h (2 Bft) SW 225 0 min 0,0 UV-I 0 W/m -5,5 C -4,2 C 9,7 km/h (2 Bft)
17.01.2021 02:27 -4,3 C -3,3 C 91 % 1018,4 hPa 0,0 l/m 8,0 km/h (2 Bft) S-SW 202 0 min 0,0 UV-I 0 W/m -5,5 C -6,2 C 9,7 km/h (2 Bft)
17.01.2021 02:28 -4,3 C -3,3 C 91 % 1018,3 hPa 0,0 l/m 8,0 km/h (2 Bft) SW 225 0 min 0,0 UV-I 0 W/m -5,5 C -6,2 C 11,3 km/h (2 Bft)
17.01.2021 02:29 -4,3 C -3,3 C 91 % 1018,3 hPa 0,0 l/m 8,0 km/h (2 Bft) S-SW 202 0 min 0,0 UV-I 0 W/m -5,5 C -6,2 C 11,3 km/h (2 Bft)
17.01.2021 02:30 -4,3 C -3,3 C 91 % 1018,4 hPa 0,0 l/m 9,7 km/h (2 Bft) S-SW 202 0 min 0,0 UV-I 0 W/m -5,5 C -7,9 C 11,3 km/h (2 Bft)
17.01.2021 02:31 -4,3 C -3,3 C 91 % 1018,4 hPa 0,0 l/m 8,0 km/h (2 Bft) S-SW 202 0 min 0,0 UV-I 0 W/m -5,5 C -6,2 C 9,7 km/h (2 Bft)
17.01.2021 02:32 -4,3 C -3,3 C 92 % 1018,4 hPa 0,0 l/m 8,0 km/h (2 Bft) S-SW 202 0 min 0,0 UV-I 0 W/m -5,4 C -6,2 C 11,3 km/h (2 Bft)
17.01.2021 02:33 -4,3 C -3,3 C 91 % 1018,5 hPa 0,0 l/m 9,7 km/h (2 Bft) SW 225 0 min 0,0 UV-I 0 W/m -5,5 C -7,9 C 12,9 km/h (3 Bft)
17.01.2021 02:34 -4,3 C -3,3 C 91 % 1018,5 hPa 0,0 l/m 8,0 km/h (2 Bft) SW 225 0 min 0,0 UV-I 0 W/m -5,5 C -6,2 C 11,3 km/h (2 Bft)
17.01.2021 02:35 -4,3 C -3,3 C 91 % 1018,5 hPa 0,0 l/m 9,7 km/h (2 Bft) S-SW 202 0 min 0,0 UV-I 0 W/m -5,5 C -7,9 C 11,3 km/h (2 Bft)
17.01.2021 02:36 -4,3 C -3,3 C 92 % 1018,4 hPa 0,0 l/m 9,7 km/h (2 Bft) SW 225 0 min 0,0 UV-I 0 W/m -5,4 C -7,9 C 12,9 km/h (3 Bft)
17.01.2021 02:37 -4,3 C -3,3 C 91 % 1018,4 hPa 0,0 l/m 9,7 km/h (2 Bft) S-SW 202 0 min 0,0 UV-I 0 W/m -5,5 C -7,9 C 11,3 km/h (2 Bft)
17.01.2021 02:38 -4,3 C -3,3 C 92 % 1018,4 hPa 0,0 l/m 8,0 km/h (2 Bft) SW 225 0 min 0,0 UV-I 0 W/m -5,4 C -6,2 C 9,7 km/h (2 Bft)
17.01.2021 02:39 -4,3 C -3,3 C 92 % 1018,5 hPa 0,0 l/m 8,0 km/h (2 Bft) S-SW 202 0 min 0,0 UV-I 0 W/m -5,4 C -6,2 C 11,3 km/h (2 Bft)
17.01.2021 02:40 -4,3 C -3,3 C 92 % 1018,4 hPa 0,0 l/m 6,4 km/h (2 Bft) SW 225 0 min 0,0 UV-I 0 W/m -5,4 C -4,2 C 8,0 km/h (2 Bft)
17.01.2021 02:41 -4,3 C -3,3 C 92 % 1018,3 hPa 0,0 l/m 6,4 km/h (2 Bft) S-SW 202 0 min 0,0 UV-I 0 W/m -5,4 C -4,2 C 12,9 km/h (3 Bft)
17.01.2021 02:42 -4,3 C -3,3 C 92 % 1018,4 hPa 0,0 l/m 11,3 km/h (2 Bft) S-SW 202 0 min 0,0 UV-I 0 W/m -5,4 C -9,4 C 12,9 km/h (3 Bft)
17.01.2021 02:43 -4,3 C -3,3 C 92 % 1018,4 hPa 0,0 l/m 6,4 km/h (2 Bft) S-SW 202 0 min 0,0 UV-I 0 W/m -5,4 C -4,2 C 9,7 km/h (2 Bft)
17.01.2021 02:44 -4,3 C -3,3 C 92 % 1018,4 hPa 0,0 l/m 9,7 km/h (2 Bft) S-SW 202 0 min 0,0 UV-I 0 W/m -5,4 C -7,9 C 12,9 km/h (3 Bft)
17.01.2021 02:45 -4,3 C -3,3 C 92 % 1018,4 hPa 0,0 l/m 8,0 km/h (2 Bft) S-SW 202 0 min 0,0 UV-I 0 W/m -5,4 C -6,2 C 9,7 km/h (2 Bft)
17.01.2021 02:46 -4,3 C -3,3 C 92 % 1018,3 hPa 0,0 l/m 8,0 km/h (2 Bft) S-SW 202 0 min 0,0 UV-I 0 W/m -5,4 C -6,2 C 12,9 km/h (3 Bft)
17.01.2021 02:47 -4,3 C -3,3 C 92 % 1018,3 hPa 0,0 l/m 8,0 km/h (2 Bft) S-SW 202 0 min 0,0 UV-I 0 W/m -5,4 C -6,2 C 9,7 km/h (2 Bft)
17.01.2021 02:48 -4,3 C -3,3 C 92 % 1018,2 hPa 0,0 l/m 8,0 km/h (2 Bft) S-SW 202 0 min 0,0 UV-I 0 W/m -5,4 C -6,2 C 9,7 km/h (2 Bft)
17.01.2021 02:49 -4,3 C -3,3 C 92 % 1018,2 hPa 0,0 l/m 6,4 km/h (2 Bft) S-SW 202 0 min 0,0 UV-I 0 W/m -5,4 C -4,2 C 8,0 km/h (2 Bft)
17.01.2021 02:50 -4,3 C -3,3 C 92 % 1018,2 hPa 0,0 l/m 6,4 km/h (2 Bft) S-SW 202 0 min 0,0 UV-I 0 W/m -5,4 C -4,2 C 9,7 km/h (2 Bft)
17.01.2021 02:51 -4,3 C -3,3 C 92 % 1018,2 hPa 0,0 l/m 4,8 km/h (1 Bft) S-SW 202 0 min 0,0 UV-I 0 W/m -5,4 C -4,3 C 8,0 km/h (2 Bft)
17.01.2021 02:52 -4,3 C -3,3 C 92 % 1018,1 hPa 0,0 l/m 6,4 km/h (2 Bft) S 180 0 min 0,0 UV-I 0 W/m -5,4 C -4,2 C 9,7 km/h (2 Bft)
17.01.2021 02:53 -4,3 C -3,3 C 92 % 1018,2 hPa 0,0 l/m 4,8 km/h (1 Bft) S 180 0 min 0,0 UV-I 0 W/m -5,4 C -4,3 C 8,0 km/h (2 Bft)
17.01.2021 02:54 -4,3 C -3,3 C 92 % 1018,2 hPa 0,0 l/m 6,4 km/h (2 Bft) S 180 0 min 0,0 UV-I 0 W/m -5,4 C -4,2 C 9,7 km/h (2 Bft)
17.01.2021 02:55 -4,3 C -3,3 C 92 % 1018,2 hPa 0,0 l/m 6,4 km/h (2 Bft) S-SW 202 0 min 0,0 UV-I 0 W/m -5,4 C -4,2 C 8,0 km/h (2 Bft)
17.01.2021 02:56 -4,3 C -3,3 C 92 % 1018,2 hPa 0,0 l/m 4,8 km/h (1 Bft) S-SW 202 0 min 0,0 UV-I 0 W/m -5,4 C -4,3 C 8,0 km/h (2 Bft)
17.01.2021 02:57 -4,3 C -3,3 C 92 % 1018,2 hPa 0,0 l/m 6,4 km/h (2 Bft) S-SW 202 0 min 0,0 UV-I 0 W/m -5,4 C -4,2 C 8,0 km/h (2 Bft)
17.01.2021 02:58 -4,3 C -3,3 C 92 % 1018,2 hPa 0,0 l/m 6,4 km/h (2 Bft) S-SW 202 0 min 0,0 UV-I 0 W/m -5,4 C -4,2 C 9,7 km/h (2 Bft)
17.01.2021 02:59 -4,3 C -3,3 C 92 % 1018,2 hPa 0,0 l/m 8,0 km/h (2 Bft) S-SW 202 0 min 0,0 UV-I 0 W/m -5,4 C -6,2 C 9,7 km/h (2 Bft)
17.01.2021 03:00 -4,3 C -3,3 C 92 % 1018,2 hPa 0,0 l/m 6,4 km/h (2 Bft) S-SW 202 0 min 0,0 UV-I 0 W/m -5,4 C -4,2 C 8,0 km/h (2 Bft)
17.01.2021 03:01 -4,3 C -3,3 C 92 % 1018,2 hPa 0,0 l/m 4,8 km/h (1 Bft) S-SW 202 0 min 0,0 UV-I 0 W/m -5,4 C -4,3 C 6,4 km/h (2 Bft)
17.01.2021 03:02 -4,3 C -3,3 C 92 % 1018,2 hPa 0,0 l/m 6,4 km/h (2 Bft) SW 225 0 min 0,0 UV-I 0 W/m -5,4 C -4,2 C 8,0 km/h (2 Bft)
17.01.2021 03:03 -4,3 C -3,3 C 92 % 1018,1 hPa 0,0 l/m 4,8 km/h (1 Bft) SW 225 0 min 0,0 UV-I 0 W/m -5,4 C -4,3 C 6,4 km/h (2 Bft)
17.01.2021 03:04 -4,3 C -3,3 C 92 % 1018,0 hPa 0,0 l/m 6,4 km/h (2 Bft) S-SW 202 0 min 0,0 UV-I 0 W/m -5,4 C -4,2 C 8,0 km/h (2 Bft)
17.01.2021 03:05 -4,3 C -3,3 C 92 % 1018,0 hPa 0,0 l/m 6,4 km/h (2 Bft) S-SW 202 0 min 0,0 UV-I 0 W/m -5,4 C -4,2 C 8,0 km/h (2 Bft)
17.01.2021 03:06 -4,3 C -3,3 C 92 % 1018,0 hPa 0,0 l/m 4,8 km/h (1 Bft) S-SW 202 0 min 0,0 UV-I 0 W/m -5,4 C -4,3 C 8,0 km/h (2 Bft)
17.01.2021 03:07 -4,3 C -3,3 C 92 % 1018,1 hPa 0,0 l/m 8,0 km/h (2 Bft) S-SW 202 0 min 0,0 UV-I 0 W/m -5,4 C -6,2 C 9,7 km/h (2 Bft)
17.01.2021 03:08 -4,3 C -3,3 C 92 % 1018,0 hPa 0,0 l/m 8,0 km/h (2 Bft) S-SW 202 0 min 0,0 UV-I 0 W/m -5,4 C -6,2 C 11,3 km/h (2 Bft)
17.01.2021 03:09 -4,3 C -3,3 C 92 % 1018,0 hPa 0,0 l/m 9,7 km/h (2 Bft) S-SW 202 0 min 0,0 UV-I 0 W/m -5,4 C -7,9 C 12,9 km/h (3 Bft)
17.01.2021 03:10 -4,3 C -3,3 C 92 % 1018,0 hPa 0,0 l/m 8,0 km/h (2 Bft) S-SW 202 0 min 0,0 UV-I 0 W/m -5,4 C -6,2 C 11,3 km/h (2 Bft)
17.01.2021 03:11 -4,3 C -3,3 C 92 % 1018,0 hPa 0,0 l/m 6,4 km/h (2 Bft) S-SW 202 0 min 0,0 UV-I 0 W/m -5,4 C -4,2 C 8,0 km/h (2 Bft)
17.01.2021 03:12 -4,3 C -3,3 C 92 % 1018,0 hPa 0,0 l/m 4,8 km/h (1 Bft) S-SW 202 0 min 0,0 UV-I 0 W/m -5,4 C -4,3 C 6,4 km/h (2 Bft)
17.01.2021 03:13 -4,3 C -3,3 C 92 % 1018,1 hPa 0,0 l/m 6,4 km/h (2 Bft) S-SW 202 0 min 0,0 UV-I 0 W/m -5,4 C -4,2 C 8,0 km/h (2 Bft)
17.01.2021 03:14 -4,3 C -3,3 C 92 % 1018,1 hPa 0,0 l/m 6,4 km/h (2 Bft) S-SW 202 0 min 0,0 UV-I 0 W/m -5,4 C -4,2 C 9,7 km/h (2 Bft)
17.01.2021 03:15 -4,3 C -3,3 C 92 % 1018,2 hPa 0,0 l/m 4,8 km/h (1 Bft) S-SW 202 0 min 0,0 UV-I 0 W/m -5,4 C -4,3 C 8,0 km/h (2 Bft)
17.01.2021 03:16 -4,3 C -3,3 C 92 % 1018,1 hPa 0,0 l/m 3,2 km/h (1 Bft) SW 225 0 min 0,0 UV-I 0 W/m -5,4 C -4,3 C 6,4 km/h (2 Bft)
17.01.2021 03:17 -4,3 C -3,3 C 92 % 1018,0 hPa 0,0 l/m 3,2 km/h (1 Bft) SW 225 0 min 0,0 UV-I 0 W/m -5,4 C -4,3 C 4,8 km/h (1 Bft)
17.01.2021 03:18 -4,3 C -3,3 C 92 % 1018,1 hPa 0,0 l/m 4,8 km/h (1 Bft) SW 225 0 min 0,0 UV-I 0 W/m -5,4 C -4,3 C 6,4 km/h (2 Bft)
17.01.2021 03:19 -4,3 C -3,3 C 92 % 1018,1 hPa 0,0 l/m 4,8 km/h (1 Bft) SW 225 0 min 0,0 UV-I 0 W/m -5,4 C -4,3 C 6,4 km/h (2 Bft)
17.01.2021 03:20 -4,3 C -3,3 C 92 % 1018,0 hPa 0,0 l/m 3,2 km/h (1 Bft) SW 225 0 min 0,0 UV-I 0 W/m -5,4 C -4,3 C 4,8 km/h (1 Bft)
17.01.2021 03:21 -4,3 C -3,3 C 92 % 1018,1 hPa 0,0 l/m 6,4 km/h (2 Bft) SW 225 0 min 0,0 UV-I 0 W/m -5,4 C -4,2 C 8,0 km/h (2 Bft)
17.01.2021 03:22 -4,3 C -3,3 C 92 % 1018,1 hPa 0,0 l/m 6,4 km/h (2 Bft) SW 225 0 min 0,0 UV-I 0 W/m -5,4 C -4,2 C 8,0 km/h (2 Bft)
17.01.2021 03:23 -4,3 C -3,3 C 92 % 1018,2 hPa 0,0 l/m 6,4 km/h (2 Bft) SW 225 0 min 0,0 UV-I 0 W/m -5,4 C -4,2 C 11,3 km/h (2 Bft)
17.01.2021 03:24 -4,3 C -3,3 C 92 % 1018,2 hPa 0,0 l/m 8,0 km/h (2 Bft) SW 225 0 min 0,0 UV-I 0 W/m -5,4 C -6,2 C 9,7 km/h (2 Bft)
17.01.2021 03:25 -4,3 C -3,3 C 92 % 1018,2 hPa 0,0 l/m 4,8 km/h (1 Bft) SW 225 0 min 0,0 UV-I 0 W/m -5,4 C -4,3 C 8,0 km/h (2 Bft)
17.01.2021 03:26 -4,3 C -3,3 C 92 % 1018,2 hPa 0,0 l/m 3,2 km/h (1 Bft) S-SW 202 0 min 0,0 UV-I 0 W/m -5,4 C -4,3 C 6,4 km/h (2 Bft)
17.01.2021 03:27 -4,3 C -3,3 C 92 % 1018,1 hPa 0,0 l/m 3,2 km/h (1 Bft) S-SW 202 0 min 0,0 UV-I 0 W/m -5,4 C -4,3 C 4,8 km/h (1 Bft)
17.01.2021 03:28 -4,3 C -3,3 C 92 % 1018,2 hPa 0,0 l/m 4,8 km/h (1 Bft) SW 225 0 min 0,0 UV-I 0 W/m -5,4 C -4,3 C 8,0 km/h (2 Bft)
17.01.2021 03:29 -4,3 C -3,3 C 92 % 1018,2 hPa 0,0 l/m 4,8 km/h (1 Bft) SW 225 0 min 0,0 UV-I 0 W/m -5,4 C -4,3 C 6,4 km/h (2 Bft)
17.01.2021 03:30 -4,3 C -3,3 C 92 % 1018,1 hPa 0,0 l/m 4,8 km/h (1 Bft) SW 225 0 min 0,0 UV-I 0 W/m -5,4 C -4,3 C 8,0 km/h (2 Bft)
17.01.2021 03:31 -4,3 C -3,3 C 92 % 1018,2 hPa 0,0 l/m 6,4 km/h (2 Bft) SW 225 0 min 0,0 UV-I 0 W/m -5,4 C -4,2 C 8,0 km/h (2 Bft)
17.01.2021 03:32 -4,3 C -3,3 C 92 % 1018,2 hPa 0,0 l/m 6,4 km/h (2 Bft) S-SW 202 0 min 0,0 UV-I 0 W/m -5,4 C -4,2 C 8,0 km/h (2 Bft)
17.01.2021 03:33 -4,3 C -3,3 C 92 % 1018,1 hPa 0,0 l/m 4,8 km/h (1 Bft) S-SW 202 0 min 0,0 UV-I 0 W/m -5,4 C -4,3 C 8,0 km/h (2 Bft)
17.01.2021 03:34 -4,3 C -3,3 C 92 % 1018,1 hPa 0,0 l/m 6,4 km/h (2 Bft) S-SW 202 0 min 0,0 UV-I 0 W/m -5,4 C -4,2 C 9,7 km/h (2 Bft)
17.01.2021 03:35 -4,3 C -3,3 C 92 % 1018,1 hPa 0,0 l/m 6,4 km/h (2 Bft) S-SW 202 0 min 0,0 UV-I 0 W/m -5,4 C -4,2 C 8,0 km/h (2 Bft)
17.01.2021 03:36 -4,3 C -3,3 C 92 % 1018,0 hPa 0,0 l/m 6,4 km/h (2 Bft) SW 225 0 min 0,0 UV-I 0 W/m -5,4 C -4,2 C 9,7 km/h (2 Bft)
17.01.2021 03:37 -4,3 C -3,3 C 92 % 1018,1 hPa 0,0 l/m 6,4 km/h (2 Bft) SW 225 0 min 0,0 UV-I 0 W/m -5,4 C -4,2 C 8,0 km/h (2 Bft)
17.01.2021 03:38 -4,3 C -3,3 C 92 % 1018,1 hPa 0,0 l/m 4,8 km/h (1 Bft) SW 225 0 min 0,0 UV-I 0 W/m -5,4 C -4,3 C 8,0 km/h (2 Bft)
17.01.2021 03:39 -4,3 C -3,3 C 92 % 1018,1 hPa 0,0 l/m 8,0 km/h (2 Bft) S-SW 202 0 min 0,0 UV-I 0 W/m -5,4 C -6,2 C 9,7 km/h (2 Bft)
17.01.2021 03:40 -4,3 C -3,3 C 92 % 1018,1 hPa 0,0 l/m 6,4 km/h (2 Bft) S-SW 202 0 min 0,0 UV-I 0 W/m -5,4 C -4,2 C 8,0 km/h (2 Bft)
17.01.2021 03:41 -4,3 C -3,3 C 92 % 1018,2 hPa 0,0 l/m 4,8 km/h (1 Bft) S-SW 202 0 min 0,0 UV-I 0 W/m -5,4 C -4,3 C 6,4 km/h (2 Bft)
17.01.2021 03:42 -4,3 C -3,3 C 92 % 1018,2 hPa 0,0 l/m 6,4 km/h (2 Bft) SW 225 0 min 0,0 UV-I 0 W/m -5,4 C -4,2 C 6,4 km/h (2 Bft)
17.01.2021 03:43 -4,3 C -3,3 C 92 % 1018,0 hPa 0,0 l/m 6,4 km/h (2 Bft) SW 225 0 min 0,0 UV-I 0 W/m -5,4 C -4,2 C 9,7 km/h (2 Bft)
17.01.2021 03:44 -4,3 C -3,3 C 92 % 1018,0 hPa 0,0 l/m 6,4 km/h (2 Bft) S-SW 202 0 min 0,0 UV-I 0 W/m -5,4 C -4,2 C 9,7 km/h (2 Bft)
17.01.2021 03:45 -4,3 C -3,3 C 92 % 1018,0 hPa 0,0 l/m 4,8 km/h (1 Bft) SW 225 0 min 0,0 UV-I 0 W/m -5,4 C -4,3 C 8,0 km/h (2 Bft)
17.01.2021 03:46 -4,3 C -3,3 C 92 % 1018,0 hPa 0,0 l/m 4,8 km/h (1 Bft) SW 225 0 min 0,0 UV-I 0 W/m -5,4 C -4,3 C 8,0 km/h (2 Bft)
17.01.2021 03:47 -4,3 C -3,3 C 92 % 1017,9 hPa 0,0 l/m 6,4 km/h (2 Bft) S-SW 202 0 min 0,0 UV-I 0 W/m -5,4 C -4,2 C 8,0 km/h (2 Bft)
17.01.2021 03:48 -4,3 C -3,3 C 92 % 1018,0 hPa 0,0 l/m 4,8 km/h (1 Bft) S-SW 202 0 min 0,0 UV-I 0 W/m -5,4 C -4,3 C 6,4 km/h (2 Bft)
17.01.2021 03:49 -4,3 C -3,3 C 92 % 1018,0 hPa 0,0 l/m 4,8 km/h (1 Bft) S-SW 202 0 min 0,0 UV-I 0 W/m -5,4 C -4,3 C 6,4 km/h (2 Bft)
17.01.2021 03:50 -4,3 C -3,3 C 93 % 1018,0 hPa 0,0 l/m 6,4 km/h (2 Bft) S-SW 202 0 min 0,0 UV-I 0 W/m -5,3 C -4,2 C 9,7 km/h (2 Bft)
17.01.2021 03:51 -4,3 C -3,3 C 93 % 1017,9 hPa 0,0 l/m 8,0 km/h (2 Bft) S-SW 202 0 min 0,0 UV-I 0 W/m -5,3 C -6,2 C 9,7 km/h (2 Bft)
17.01.2021 03:52 -4,3 C -3,3 C 93 % 1018,0 hPa 0,0 l/m 9,7 km/h (2 Bft) S-SW 202 0 min 0,0 UV-I 0 W/m -5,3 C -7,9 C 11,3 km/h (2 Bft)
17.01.2021 03:53 -4,3 C -3,3 C 93 % 1017,9 hPa 0,0 l/m 8,0 km/h (2 Bft) S-SW 202 0 min 0,0 UV-I 0 W/m -5,3 C -6,2 C 11,3 km/h (2 Bft)
17.01.2021 03:54 -4,3 C -3,3 C 93 % 1017,9 hPa 0,0 l/m 6,4 km/h (2 Bft) S-SW 202 0 min 0,0 UV-I 0 W/m -5,3 C -4,2 C 9,7 km/h (2 Bft)
17.01.2021 03:55 -4,3 C -3,3 C 93 % 1017,9 hPa 0,0 l/m 6,4 km/h (2 Bft) S-SW 202 0 min 0,0 UV-I 0 W/m -5,3 C -4,2 C 8,0 km/h (2 Bft)
17.01.2021 03:56 -4,3 C -3,3 C 93 % 1017,8 hPa 0,0 l/m 6,4 km/h (2 Bft) S-SW 202 0 min 0,0 UV-I 0 W/m -5,3 C -4,2 C 8,0 km/h (2 Bft)
17.01.2021 03:57 -4,3 C -3,3 C 93 % 1017,9 hPa 0,0 l/m 6,4 km/h (2 Bft) S-SW 202 0 min 0,0 UV-I 0 W/m -5,3 C -4,2 C 9,7 km/h (2 Bft)
17.01.2021 03:58 -4,3 C -3,3 C 93 % 1017,8 hPa 0,0 l/m 8,0 km/h (2 Bft) S-SW 202 0 min 0,0 UV-I 0 W/m -5,3 C -6,2 C 9,7 km/h (2 Bft)
17.01.2021 03:59 -4,3 C -3,3 C 93 % 1018,0 hPa 0,0 l/m 8,0 km/h (2 Bft) S-SW 202 0 min 0,0 UV-I 0 W/m -5,3 C -6,2 C 11,3 km/h (2 Bft)
17.01.2021 04:00 -4,3 C -3,3 C 93 % 1018,0 hPa 0,0 l/m 6,4 km/h (2 Bft) S-SW 202 0 min 0,0 UV-I 0 W/m -5,3 C -4,2 C 8,0 km/h (2 Bft)
17.01.2021 04:01 -4,3 C -3,3 C 93 % 1018,0 hPa 0,0 l/m 6,4 km/h (2 Bft) S-SW 202 0 min 0,0 UV-I 0 W/m -5,3 C -4,2 C 8,0 km/h (2 Bft)
17.01.2021 04:02 -4,3 C -3,3 C 93 % 1017,9 hPa 0,0 l/m 4,8 km/h (1 Bft) S-SW 202 0 min 0,0 UV-I 0 W/m -5,3 C -4,3 C 6,4 km/h (2 Bft)
17.01.2021 04:03 -4,3 C -3,3 C 93 % 1018,0 hPa 0,0 l/m 4,8 km/h (1 Bft) S-SW 202 0 min 0,0 UV-I 0 W/m -5,3 C -4,3 C 6,4 km/h (2 Bft)
17.01.2021 04:04 -4,3 C -3,3 C 92 % 1018,0 hPa 0,0 l/m 4,8 km/h (1 Bft) S-SW 202 0 min 0,0 UV-I 0 W/m -5,4 C -4,3 C 6,4 km/h (2 Bft)
17.01.2021 04:05 -4,3 C -3,3 C 93 % 1017,9 hPa 0,0 l/m 4,8 km/h (1 Bft) SW 225 0 min 0,0 UV-I 0 W/m -5,3 C -4,3 C 6,4 km/h (2 Bft)
17.01.2021 04:06 -4,3 C -3,3 C 92 % 1018,0 hPa 0,0 l/m 4,8 km/h (1 Bft) SW 225 0 min 0,0 UV-I 0 W/m -5,4 C -4,3 C 6,4 km/h (2 Bft)
17.01.2021 04:07 -4,3 C -3,3 C 92 % 1018,0 hPa 0,0 l/m 4,8 km/h (1 Bft) SW 225 0 min 0,0 UV-I 0 W/m -5,4 C -4,3 C 6,4 km/h (2 Bft)
17.01.2021 04:08 -4,3 C -3,3 C 92 % 1018,0 hPa 0,0 l/m 4,8 km/h (1 Bft) SW 225 0 min 0,0 UV-I 0 W/m -5,4 C -4,3 C 4,8 km/h (1 Bft)
17.01.2021 04:09 -4,3 C -3,3 C 92 % 1018,0 hPa 0,0 l/m 4,8 km/h (1 Bft) SW 225 0 min 0,0 UV-I 0 W/m -5,4 C -4,3 C 9,7 km/h (2 Bft)
17.01.2021 04:10 -4,3 C -3,3 C 92 % 1018,0 hPa 0,0 l/m 4,8 km/h (1 Bft) S-SW 202 0 min 0,0 UV-I 0 W/m -5,4 C -4,3 C 6,4 km/h (2 Bft)
17.01.2021 04:11 -4,3 C -3,3 C 92 % 1018,0 hPa 0,0 l/m 6,4 km/h (2 Bft) S-SW 202 0 min 0,0 UV-I 0 W/m -5,4 C -4,2 C 9,7 km/h (2 Bft)
17.01.2021 04:12 -4,3 C -3,3 C 92 % 1018,0 hPa 0,0 l/m 4,8 km/h (1 Bft) SW 225 0 min 0,0 UV-I 0 W/m -5,4 C -4,3 C 6,4 km/h (2 Bft)
17.01.2021 04:13 -4,4 C -3,3 C 92 % 1018,1 hPa 0,0 l/m 6,4 km/h (2 Bft) S-SW 202 0 min 0,0 UV-I 0 W/m -5,5 C -4,3 C 8,0 km/h (2 Bft)
17.01.2021 04:14 -4,4 C -3,3 C 92 % 1018,2 hPa 0,0 l/m 6,4 km/h (2 Bft) S-SW 202 0 min 0,0 UV-I 0 W/m -5,5 C -4,3 C 8,0 km/h (2 Bft)
17.01.2021 04:15 -4,4 C -3,3 C 92 % 1018,1 hPa 0,0 l/m 6,4 km/h (2 Bft) SW 225 0 min 0,0 UV-I 0 W/m -5,5 C -4,3 C 8,0 km/h (2 Bft)
17.01.2021 04:16 -4,4 C -3,3 C 92 % 1018,1 hPa 0,0 l/m 6,4 km/h (2 Bft) S-SW 202 0 min 0,0 UV-I 0 W/m -5,5 C -4,3 C 8,0 km/h (2 Bft)
17.01.2021 04:17 -4,4 C -3,3 C 92 % 1018,2 hPa 0,0 l/m 6,4 km/h (2 Bft) S-SW 202 0 min 0,0 UV-I 0 W/m -5,5 C -4,3 C 8,0 km/h (2 Bft)
17.01.2021 04:18 -4,4 C -3,3 C 92 % 1018,1 hPa 0,0 l/m 4,8 km/h (1 Bft) S-SW 202 0 min 0,0 UV-I 0 W/m -5,5 C -4,4 C 6,4 km/h (2 Bft)
17.01.2021 04:19 -4,4 C -3,3 C 92 % 1018,2 hPa 0,0 l/m 4,8 km/h (1 Bft) S-SW 202 0 min 0,0 UV-I 0 W/m -5,5 C -4,4 C 6,4 km/h (2 Bft)
17.01.2021 04:20 -4,4 C -3,3 C 92 % 1018,2 hPa 0,0 l/m 4,8 km/h (1 Bft) S-SW 202 0 min 0,0 UV-I 0 W/m -5,5 C -4,4 C 6,4 km/h (2 Bft)
17.01.2021 04:21 -4,4 C -3,3 C 93 % 1018,2 hPa 0,0 l/m 4,8 km/h (1 Bft) S-SW 202 0 min 0,0 UV-I 0 W/m -5,4 C -4,4 C 6,4 km/h (2 Bft)
17.01.2021 04:22 -4,4 C -3,3 C 93 % 1018,2 hPa 0,0 l/m 3,2 km/h (1 Bft) S-SW 202 0 min 0,0 UV-I 0 W/m -5,4 C -4,4 C 4,8 km/h (1 Bft)
17.01.2021 04:23 -4,4 C -3,3 C 93 % 1018,2 hPa 0,0 l/m 3,2 km/h (1 Bft) S-SW 202 0 min 0,0 UV-I 0 W/m -5,4 C -4,4 C 6,4 km/h (2 Bft)
17.01.2021 04:24 -4,4 C -3,3 C 93 % 1018,1 hPa 0,0 l/m 3,2 km/h (1 Bft) S-SW 202 0 min 0,0 UV-I 0 W/m -5,4 C -4,4 C 6,4 km/h (2 Bft)
17.01.2021 04:25 -4,4 C -3,3 C 93 % 1018,2 hPa 0,0 l/m 4,8 km/h (1 Bft) S-SW 202 0 min 0,0 UV-I 0 W/m -5,4 C -4,4 C 6,4 km/h (2 Bft)
17.01.2021 04:26 -4,4 C -3,3 C 93 % 1018,2 hPa 0,0 l/m 4,8 km/h (1 Bft) S-SW 202 0 min 0,0 UV-I 0 W/m -5,4 C -4,4 C 6,4 km/h (2 Bft)
17.01.2021 04:27 -4,4 C -3,3 C 93 % 1018,1 hPa 0,0 l/m 4,8 km/h (1 Bft) S-SW 202 0 min 0,0 UV-I 0 W/m -5,4 C -4,4 C 8,0 km/h (2 Bft)
17.01.2021 04:28 -4,4 C -3,3 C 93 % 1018,3 hPa 0,0 l/m 6,4 km/h (2 Bft) SW 225 0 min 0,0 UV-I 0 W/m -5,4 C -4,3 C 8,0 km/h (2 Bft)
17.01.2021 04:29 -4,4 C -3,3 C 93 % 1018,2 hPa 0,0 l/m 6,4 km/h (2 Bft) S-SW 202 0 min 0,0 UV-I 0 W/m -5,4 C -4,3 C 9,7 km/h (2 Bft)
17.01.2021 04:30 -4,4 C -3,3 C 93 % 1018,2 hPa 0,0 l/m 4,8 km/h (1 Bft) S-SW 202 0 min 0,0 UV-I 0 W/m -5,4 C -4,4 C 6,4 km/h (2 Bft)
17.01.2021 04:31 -4,3 C -3,3 C 93 % 1018,2 hPa 0,0 l/m 4,8 km/h (1 Bft) S-SW 202 0 min 0,0 UV-I 0 W/m -5,3 C -4,3 C 9,7 km/h (2 Bft)
17.01.2021 04:32 -4,4 C -3,3 C 93 % 1018,2 hPa 0,0 l/m 6,4 km/h (2 Bft) S-SW 202 0 min 0,0 UV-I 0 W/m -5,4 C -4,3 C 8,0 km/h (2 Bft)
17.01.2021 04:33 -4,4 C -3,3 C 93 % 1018,2 hPa 0,0 l/m 6,4 km/h (2 Bft) SW 225 0 min 0,0 UV-I 0 W/m -5,4 C -4,3 C 8,0 km/h (2 Bft)
17.01.2021 04:34 -4,4 C -3,3 C 93 % 1018,2 hPa 0,0 l/m 4,8 km/h (1 Bft) S-SW 202 0 min 0,0 UV-I 0 W/m -5,4 C -4,4 C 6,4 km/h (2 Bft)
17.01.2021 04:35 -4,4 C -3,3 C 93 % 1018,2 hPa 0,0 l/m 3,2 km/h (1 Bft) S-SW 202 0 min 0,0 UV-I 0 W/m -5,4 C -4,4 C 6,4 km/h (2 Bft)
17.01.2021 04:36 -4,4 C -3,3 C 93 % 1018,3 hPa 0,0 l/m 6,4 km/h (2 Bft) S-SW 202 0 min 0,0 UV-I 0 W/m -5,4 C -4,3 C 8,0 km/h (2 Bft)
17.01.2021 04:37 -4,4 C -3,3 C 93 % 1018,3 hPa 0,0 l/m 4,8 km/h (1 Bft) S-SW 202 0 min 0,0 UV-I 0 W/m -5,4 C -4,4 C 6,4 km/h (2 Bft)
17.01.2021 04:38 -4,3 C -3,3 C 93 % 1018,2 hPa 0,0 l/m 6,4 km/h (2 Bft) S-SW 202 0 min 0,0 UV-I 0 W/m -5,3 C -4,2 C 8,0 km/h (2 Bft)
17.01.2021 04:39 -4,3 C -3,3 C 93 % 1018,2 hPa 0,0 l/m 6,4 km/h (2 Bft) S-SW 202 0 min 0,0 UV-I 0 W/m -5,3 C -4,2 C 9,7 km/h (2 Bft)
17.01.2021 04:40 -4,4 C -3,3 C 93 % 1018,3 hPa 0,0 l/m 6,4 km/h (2 Bft) S-SW 202 0 min 0,0 UV-I 0 W/m -5,4 C -4,3 C 11,3 km/h (2 Bft)
17.01.2021 04:41 -4,3 C -3,3 C 93 % 1018,2 hPa 0,0 l/m 6,4 km/h (2 Bft) SW 225 0 min 0,0 UV-I 0 W/m -5,3 C -4,2 C 11,3 km/h (2 Bft)
17.01.2021 04:42 -4,4 C -3,3 C 93 % 1018,2 hPa 0,0 l/m 6,4 km/h (2 Bft) SW 225 0 min 0,0 UV-I 0 W/m -5,4 C -4,3 C 9,7 km/h (2 Bft)
17.01.2021 04:43 -4,3 C -3,3 C 93 % 1018,3 hPa 0,0 l/m 8,0 km/h (2 Bft) S-SW 202 0 min 0,0 UV-I 0 W/m -5,3 C -6,2 C 9,7 km/h (2 Bft)
17.01.2021 04:44 -4,4 C -3,3 C 93 % 1018,2 hPa 0,0 l/m 8,0 km/h (2 Bft) S-SW 202 0 min 0,0 UV-I 0 W/m -5,4 C -6,3 C 9,7 km/h (2 Bft)
17.01.2021 04:45 -4,3 C -3,3 C 93 % 1018,2 hPa 0,0 l/m 4,8 km/h (1 Bft) S-SW 202 0 min 0,0 UV-I 0 W/m -5,3 C -4,3 C 9,7 km/h (2 Bft)
17.01.2021 04:46 -4,3 C -3,3 C 93 % 1018,3 hPa 0,0 l/m 6,4 km/h (2 Bft) S-SW 202 0 min 0,0 UV-I 0 W/m -5,3 C -4,2 C 9,7 km/h (2 Bft)
17.01.2021 04:47 -4,3 C -3,3 C 93 % 1018,2 hPa 0,0 l/m 6,4 km/h (2 Bft) S-SW 202 0 min 0,0 UV-I 0 W/m -5,3 C -4,2 C 9,7 km/h (2 Bft)
17.01.2021 04:48 -4,3 C -3,3 C 93 % 1018,2 hPa 0,0 l/m 8,0 km/h (2 Bft) S-SW 202 0 min 0,0 UV-I 0 W/m -5,3 C -6,2 C 9,7 km/h (2 Bft)
17.01.2021 04:49 -4,3 C -3,3 C 93 % 1018,2 hPa 0,0 l/m 6,4 km/h (2 Bft) S-SW 202 0 min 0,0 UV-I 0 W/m -5,3 C -4,2 C 9,7 km/h (2 Bft)
17.01.2021 04:50 -4,3 C -3,3 C 93 % 1018,3 hPa 0,0 l/m 6,4 km/h (2 Bft) S-SW 202 0 min 0,0 UV-I 0 W/m -5,3 C -4,2 C 9,7 km/h (2 Bft)
17.01.2021 04:51 -4,3 C -3,3 C 93 % 1018,3 hPa 0,0 l/m 4,8 km/h (1 Bft) S-SW 202 0 min 0,0 UV-I 0 W/m -5,3 C -4,3 C 8,0 km/h (2 Bft)
17.01.2021 04:52 -4,3 C -3,3 C 93 % 1018,2 hPa 0,0 l/m 4,8 km/h (1 Bft) S-SW 202 0 min 0,0 UV-I 0 W/m -5,3 C -4,3 C 8,0 km/h (2 Bft)
17.01.2021 04:53 -4,3 C -3,3 C 93 % 1018,3 hPa 0,0 l/m 4,8 km/h (1 Bft) S-SW 202 0 min 0,0 UV-I 0 W/m -5,3 C -4,3 C 6,4 km/h (2 Bft)
17.01.2021 04:54 -4,3 C -3,3 C 93 % 1018,3 hPa 0,0 l/m 3,2 km/h (1 Bft) S-SW 202 0 min 0,0 UV-I 0 W/m -5,3 C -4,3 C 4,8 km/h (1 Bft)
17.01.2021 04:55 -4,3 C -3,3 C 93 % 1018,1 hPa 0,0 l/m 3,2 km/h (1 Bft) S-SW 202 0 min 0,0 UV-I 0 W/m -5,3 C -4,3 C 4,8 km/h (1 Bft)
17.01.2021 04:56 -4,3 C -3,3 C 93 % 1018,2 hPa 0,0 l/m 3,2 km/h (1 Bft) S-SW 202 0 min 0,0 UV-I 0 W/m -5,3 C -4,3 C 4,8 km/h (1 Bft)
17.01.2021 04:57 -4,3 C -3,3 C 93 % 1018,1 hPa 0,0 l/m 3,2 km/h (1 Bft) S-SW 202 0 min 0,0 UV-I 0 W/m -5,3 C -4,3 C 4,8 km/h (1 Bft)
17.01.2021 04:58 -4,3 C -3,3 C 93 % 1018,1 hPa 0,0 l/m 3,2 km/h (1 Bft) S-SW 202 0 min 0,0 UV-I 0 W/m -5,3 C -4,3 C 4,8 km/h (1 Bft)
17.01.2021 04:59 -4,3 C -3,3 C 93 % 1018,2 hPa 0,0 l/m 1,6 km/h (1 Bft) S-SW 202 0 min 0,0 UV-I 0 W/m -5,3 C -4,3 C 3,2 km/h (1 Bft)
17.01.2021 05:00 -4,3 C -3,3 C 93 % 1018,3 hPa 0,0 l/m 1,6 km/h (1 Bft) S-SW 202 0 min 0,0 UV-I 0 W/m -5,3 C -4,3 C 3,2 km/h (1 Bft)
17.01.2021 05:01 -4,3 C -3,3 C 93 % 1018,2 hPa 0,0 l/m 3,2 km/h (1 Bft) S-SW 202 0 min 0,0 UV-I 0 W/m -5,3 C -4,3 C 4,8 km/h (1 Bft)
17.01.2021 05:02 -4,3 C -3,3 C 93 % 1018,3 hPa 0,0 l/m 3,2 km/h (1 Bft) S-SW 202 0 min 0,0 UV-I 0 W/m -5,3 C -4,3 C 4,8 km/h (1 Bft)
17.01.2021 05:03 -4,3 C -3,3 C 93 % 1018,4 hPa 0,0 l/m 3,2 km/h (1 Bft) S-SW 202 0 min 0,0 UV-I 0 W/m -5,3 C -4,3 C 6,4 km/h (2 Bft)
17.01.2021 05:04 -4,2 C -3,3 C 93 % 1018,4 hPa 0,0 l/m 1,6 km/h (1 Bft) S-SW 202 0 min 0,0 UV-I 0 W/m -5,2 C -4,2 C 3,2 km/h (1 Bft)
17.01.2021 05:05 -4,3 C -3,3 C 93 % 1018,4 hPa 0,0 l/m 3,2 km/h (1 Bft) S-SW 202 0 min 0,0 UV-I 0 W/m -5,3 C -4,3 C 6,4 km/h (2 Bft)
17.01.2021 05:06 -4,2 C -3,3 C 93 % 1018,3 hPa 0,0 l/m 3,2 km/h (1 Bft) S-SW 202 0 min 0,0 UV-I 0 W/m -5,2 C -4,2 C 4,8 km/h (1 Bft)
17.01.2021 05:07 -4,2 C -3,3 C 93 % 1018,4 hPa 0,0 l/m 3,2 km/h (1 Bft) S-SW 202 0 min 0,0 UV-I 0 W/m -5,2 C -4,2 C 4,8 km/h (1 Bft)
17.01.2021 05:08 -4,2 C -3,3 C 93 % 1018,4 hPa 0,0 l/m 4,8 km/h (1 Bft) S-SW 202 0 min 0,0 UV-I 0 W/m -5,2 C -4,2 C 6,4 km/h (2 Bft)
17.01.2021 05:09 -4,2 C -3,3 C 93 % 1018,3 hPa 0,0 l/m 8,0 km/h (2 Bft) S-SW 202 0 min 0,0 UV-I 0 W/m -5,2 C -6,1 C 9,7 km/h (2 Bft)
17.01.2021 05:10 -4,2 C -3,3 C 93 % 1018,3 hPa 0,0 l/m 4,8 km/h (1 Bft) S-SW 202 0 min 0,0 UV-I 0 W/m -5,2 C -4,2 C 6,4 km/h (2 Bft)
17.01.2021 05:11 -4,2 C -3,3 C 93 % 1018,4 hPa 0,0 l/m 3,2 km/h (1 Bft) SW 225 0 min 0,0 UV-I 0 W/m -5,2 C -4,2 C 6,4 km/h (2 Bft)
17.01.2021 05:12 -4,2 C -3,3 C 93 % 1018,3 hPa 0,0 l/m 6,4 km/h (2 Bft) SW 225 0 min 0,0 UV-I 0 W/m -5,2 C -4,1 C 8,0 km/h (2 Bft)
17.01.2021 05:13 -4,2 C -3,3 C 93 % 1018,3 hPa 0,0 l/m 6,4 km/h (2 Bft) S-SW 202 0 min 0,0 UV-I 0 W/m -5,2 C -4,1 C 8,0 km/h (2 Bft)
17.01.2021 05:14 -4,1 C -3,3 C 93 % 1018,2 hPa 0,0 l/m 6,4 km/h (2 Bft) S-SW 202 0 min 0,0 UV-I 0 W/m -5,1 C -4,0 C 8,0 km/h (2 Bft)
17.01.2021 05:15 -4,2 C -3,3 C 93 % 1018,3 hPa 0,0 l/m 4,8 km/h (1 Bft) S-SW 202 0 min 0,0 UV-I 0 W/m -5,2 C -4,2 C 6,4 km/h (2 Bft)
17.01.2021 05:16 -4,2 C -3,3 C 93 % 1018,2 hPa 0,0 l/m 6,4 km/h (2 Bft) S-SW 202 0 min 0,0 UV-I 0 W/m -5,2 C -4,1 C 8,0 km/h (2 Bft)
17.01.2021 05:17 -4,2 C -3,3 C 93 % 1018,2 hPa 0,0 l/m 6,4 km/h (2 Bft) S-SW 202 0 min 0,0 UV-I 0 W/m -5,2 C -4,1 C 8,0 km/h (2 Bft)
17.01.2021 05:18 -4,2 C -3,3 C 93 % 1018,2 hPa 0,0 l/m 6,4 km/h (2 Bft) S-SW 202 0 min 0,0 UV-I 0 W/m -5,2 C -4,1 C 9,7 km/h (2 Bft)
17.01.2021 05:19 -4,1 C -3,3 C 93 % 1018,2 hPa 0,0 l/m 3,2 km/h (1 Bft) S-SW 202 0 min 0,0 UV-I 0 W/m -5,1 C -4,1 C 8,0 km/h (2 Bft)
17.01.2021 05:20 -4,1 C -3,3 C 93 % 1018,2 hPa 0,0 l/m 6,4 km/h (2 Bft) S-SW 202 0 min 0,0 UV-I 0 W/m -5,1 C -4,0 C 8,0 km/h (2 Bft)
17.01.2021 05:21 -4,2 C -3,3 C 93 % 1018,1 hPa 0,0 l/m 6,4 km/h (2 Bft) S-SW 202 0 min 0,0 UV-I 0 W/m -5,2 C -4,1 C 8,0 km/h (2 Bft)
17.01.2021 05:22 -4,1 C -3,3 C 93 % 1018,1 hPa 0,0 l/m 4,8 km/h (1 Bft) S-SW 202 0 min 0,0 UV-I 0 W/m -5,1 C -4,1 C 6,4 km/h (2 Bft)
17.01.2021 05:23 -4,1 C -3,3 C 93 % 1018,1 hPa 0,0 l/m 4,8 km/h (1 Bft) S-SW 202 0 min 0,0 UV-I 0 W/m -5,1 C -4,1 C 6,4 km/h (2 Bft)
17.01.2021 05:24 -4,1 C -3,3 C 93 % 1018,1 hPa 0,0 l/m 6,4 km/h (2 Bft) S-SW 202 0 min 0,0 UV-I 0 W/m -5,1 C -4,0 C 9,7 km/h (2 Bft)
17.01.2021 05:25 -4,1 C -3,3 C 93 % 1018,0 hPa 0,0 l/m 4,8 km/h (1 Bft) S-SW 202 0 min 0,0 UV-I 0 W/m -5,1 C -4,1 C 6,4 km/h (2 Bft)
17.01.2021 05:26 -4,1 C -3,3 C 93 % 1018,0 hPa 0,0 l/m 3,2 km/h (1 Bft) S-SW 202 0 min 0,0 UV-I 0 W/m -5,1 C -4,1 C 4,8 km/h (1 Bft)
17.01.2021 05:27 -4,1 C -2,8 C 93 % 1018,1 hPa 0,0 l/m 4,8 km/h (1 Bft) S-SW 202 0 min 0,0 UV-I 0 W/m -5,1 C -4,1 C 6,4 km/h (2 Bft)
17.01.2021 05:28 -4,1 C -2,8 C 93 % 1018,2 hPa 0,0 l/m 4,8 km/h (1 Bft) S-SW 202 0 min 0,0 UV-I 0 W/m -5,1 C -4,1 C 6,4 km/h (2 Bft)
17.01.2021 05:29 -4,1 C -2,8 C 93 % 1018,1 hPa 0,0 l/m 3,2 km/h (1 Bft) S-SW 202 0 min 0,0 UV-I 0 W/m -5,1 C -4,1 C 4,8 km/h (1 Bft)
17.01.2021 05:30 -4,1 C -2,8 C 93 % 1018,2 hPa 0,0 l/m 4,8 km/h (1 Bft) S-SW 202 0 min 0,0 UV-I 0 W/m -5,1 C -4,1 C 8,0 km/h (2 Bft)
17.01.2021 05:31 -4,1 C -2,8 C 93 % 1018,1 hPa 0,0 l/m 4,8 km/h (1 Bft) S-SW 202 0 min 0,0 UV-I 0 W/m -5,1 C -4,1 C 6,4 km/h (2 Bft)
17.01.2021 05:32 -4,1 C -3,3 C 93 % 1018,0 hPa 0,0 l/m 4,8 km/h (1 Bft) S-SW 202 0 min 0,0 UV-I 0 W/m -5,1 C -4,1 C 6,4 km/h (2 Bft)
17.01.2021 05:33 -4,1 C -2,8 C 93 % 1018,1 hPa 0,0 l/m 4,8 km/h (1 Bft) S-SW 202 0 min 0,0 UV-I 0 W/m -5,1 C -4,1 C 6,4 km/h (2 Bft)
17.01.2021 05:34 -4,1 C -2,8 C 93 % 1018,0 hPa 0,0 l/m 4,8 km/h (1 Bft) S 180 0 min 0,0 UV-I 0 W/m -5,1 C -4,1 C 8,0 km/h (2 Bft)
17.01.2021 05:35 -4,1 C -2,8 C 93 % 1018,0 hPa 0,0 l/m 6,4 km/h (2 Bft) S 180 0 min 0,0 UV-I 0 W/m -5,1 C -4,0 C 6,4 km/h (2 Bft)
17.01.2021 05:36 -4,1 C -2,8 C 93 % 1018,0 hPa 0,0 l/m 4,8 km/h (1 Bft) S 180 0 min 0,0 UV-I 0 W/m -5,1 C -4,1 C 8,0 km/h (2 Bft)
17.01.2021 05:37 -4,1 C -2,8 C 93 % 1018,0 hPa 0,0 l/m 4,8 km/h (1 Bft) S 180 0 min 0,0 UV-I 0 W/m -5,1 C -4,1 C 6,4 km/h (2 Bft)
17.01.2021 05:38 -4,0 C -2,8 C 93 % 1018,1 hPa 0,0 l/m 4,8 km/h (1 Bft) S-SW 202 0 min 0,0 UV-I 0 W/m -5,0 C -4,0 C 8,0 km/h (2 Bft)
17.01.2021 05:39 -4,0 C -2,8 C 93 % 1018,0 hPa 0,0 l/m 4,8 km/h (1 Bft) S-SW 202 0 min 0,0 UV-I 0 W/m -5,0 C -4,0 C 6,4 km/h (2 Bft)
17.01.2021 05:40 -4,0 C -2,8 C 93 % 1017,9 hPa 0,0 l/m 6,4 km/h (2 Bft) S-SW 202 0 min 0,0 UV-I 0 W/m -5,0 C -3,9 C 8,0 km/h (2 Bft)
17.01.2021 05:41 -4,0 C -2,8 C 93 % 1018,0 hPa 0,0 l/m 4,8 km/h (1 Bft) S-SW 202 0 min 0,0 UV-I 0 W/m -5,0 C -4,0 C 8,0 km/h (2 Bft)
17.01.2021 05:42 -4,0 C -2,8 C 93 % 1018,0 hPa 0,0 l/m 4,8 km/h (1 Bft) S-SW 202 0 min 0,0 UV-I 0 W/m -5,0 C -4,0 C 6,4 km/h (2 Bft)
17.01.2021 05:43 -4,0 C -2,8 C 93 % 1018,0 hPa 0,0 l/m 6,4 km/h (2 Bft) S-SW 202 0 min 0,0 UV-I 0 W/m -5,0 C -3,9 C 8,0 km/h (2 Bft)
17.01.2021 05:44 -4,0 C -2,8 C 93 % 1018,0 hPa 0,0 l/m 3,2 km/h (1 Bft) S-SW 202 0 min 0,0 UV-I 0 W/m -5,0 C -4,0 C 6,4 km/h (2 Bft)
17.01.2021 05:45 -4,0 C -2,8 C 93 % 1018,1 hPa 0,0 l/m 3,2 km/h (1 Bft) S-SW 202 0 min 0,0 UV-I 0 W/m -5,0 C -4,0 C 4,8 km/h (1 Bft)
17.01.2021 05:46 -3,9 C -2,8 C 93 % 1018,1 hPa 0,0 l/m 1,6 km/h (1 Bft) S-SW 202 0 min 0,0 UV-I 0 W/m -4,9 C -3,9 C 3,2 km/h (1 Bft)
17.01.2021 05:47 -3,9 C -2,8 C 93 % 1018,0 hPa 0,0 l/m 3,2 km/h (1 Bft) S-SW 202 0 min 0,0 UV-I 0 W/m -4,9 C -3,9 C 4,8 km/h (1 Bft)
17.01.2021 05:48 -3,9 C -2,8 C 93 % 1018,0 hPa 0,0 l/m 3,2 km/h (1 Bft) S-SW 202 0 min 0,0 UV-I 0 W/m -4,9 C -3,9 C 4,8 km/h (1 Bft)
17.01.2021 05:49 -4,0 C -2,8 C 93 % 1018,2 hPa 0,0 l/m 3,2 km/h (1 Bft) S-SW 202 0 min 0,0 UV-I 0 W/m -5,0 C -4,0 C 4,8 km/h (1 Bft)
17.01.2021 05:50 -4,0 C -2,8 C 93 % 1018,2 hPa 0,0 l/m 3,2 km/h (1 Bft) S-SW 202 0 min 0,0 UV-I 0 W/m -5,0 C -4,0 C 4,8 km/h (1 Bft)
17.01.2021 05:51 -3,9 C -2,8 C 93 % 1018,1 hPa 0,0 l/m 3,2 km/h (1 Bft) S-SW 202 0 min 0,0 UV-I 0 W/m -4,9 C -3,9 C 4,8 km/h (1 Bft)
17.01.2021 05:52 -3,9 C -2,8 C 93 % 1018,1 hPa 0,0 l/m 4,8 km/h (1 Bft) S-SW 202 0 min 0,0 UV-I 0 W/m -4,9 C -3,9 C 6,4 km/h (2 Bft)
17.01.2021 05:53 -3,9 C -2,8 C 93 % 1018,0 hPa 0,0 l/m 4,8 km/h (1 Bft) S 180 0 min 0,0 UV-I 0 W/m -4,9 C -3,9 C 8,0 km/h (2 Bft)
17.01.2021 05:54 -3,9 C -2,8 C 93 % 1018,0 hPa 0,0 l/m 4,8 km/h (1 Bft) S 180 0 min 0,0 UV-I 0 W/m -4,9 C -3,9 C 8,0 km/h (2 Bft)
17.01.2021 05:55 -3,9 C -2,8 C 93 % 1018,1 hPa 0,0 l/m 6,4 km/h (2 Bft) S-SW 202 0 min 0,0 UV-I 0 W/m -4,9 C -3,8 C 11,3 km/h (2 Bft)
17.01.2021 05:56 -3,9 C -2,8 C 93 % 1018,1 hPa 0,0 l/m 4,8 km/h (1 Bft) S-SW 202 0 min 0,0 UV-I 0 W/m -4,9 C -3,9 C 6,4 km/h (2 Bft)
17.01.2021 05:57 -3,9 C -2,8 C 93 % 1018,1 hPa 0,0 l/m 8,0 km/h (2 Bft) S-SW 202 0 min 0,0 UV-I 0 W/m -4,9 C -5,7 C 9,7 km/h (2 Bft)
17.01.2021 05:58 -3,9 C -2,8 C 93 % 1018,1 hPa 0,0 l/m 8,0 km/h (2 Bft) S-SW 202 0 min 0,0 UV-I 0 W/m -4,9 C -5,7 C 9,7 km/h (2 Bft)
17.01.2021 05:59 -3,9 C -2,8 C 93 % 1018,0 hPa 0,0 l/m 8,0 km/h (2 Bft) S-SW 202 0 min 0,0 UV-I 0 W/m -4,9 C -5,7 C 9,7 km/h (2 Bft)
17.01.2021 06:00 -3,9 C -2,8 C 93 % 1018,2 hPa 0,0 l/m 8,0 km/h (2 Bft) S-SW 202 0 min 0,0 UV-I 0 W/m -4,9 C -5,7 C 11,3 km/h (2 Bft)
17.01.2021 06:01 -3,9 C -2,8 C 93 % 1018,1 hPa 0,0 l/m 9,7 km/h (2 Bft) S-SW 202 0 min 0,0 UV-I 0 W/m -4,9 C -7,5 C 11,3 km/h (2 Bft)
17.01.2021 06:02 -3,9 C -2,8 C 93 % 1018,1 hPa 0,0 l/m 8,0 km/h (2 Bft) SW 225 0 min 0,0 UV-I 0 W/m -4,9 C -5,7 C 11,3 km/h (2 Bft)
17.01.2021 06:03 -3,9 C -2,8 C 93 % 1018,0 hPa 0,0 l/m 6,4 km/h (2 Bft) SW 225 0 min 0,0 UV-I 0 W/m -4,9 C -3,8 C 9,7 km/h (2 Bft)
17.01.2021 06:04 -3,9 C -3,3 C 93 % 1018,2 hPa 0,0 l/m 8,0 km/h (2 Bft) SW 225 0 min 0,0 UV-I 0 W/m -4,9 C -5,7 C 11,3 km/h (2 Bft)
17.01.2021 06:05 -3,9 C -3,3 C 93 % 1018,2 hPa 0,0 l/m 8,0 km/h (2 Bft) SW 225 0 min 0,0 UV-I 0 W/m -4,9 C -5,7 C 9,7 km/h (2 Bft)
17.01.2021 06:06 -3,9 C -3,3 C 93 % 1018,1 hPa 0,0 l/m 6,4 km/h (2 Bft) SW 225 0 min 0,0 UV-I 0 W/m -4,9 C -3,8 C 11,3 km/h (2 Bft)
17.01.2021 06:07 -3,9 C -3,3 C 93 % 1018,2 hPa 0,0 l/m 8,0 km/h (2 Bft) SW 225 0 min 0,0 UV-I 0 W/m -4,9 C -5,7 C 9,7 km/h (2 Bft)
17.01.2021 06:08 -3,9 C -3,3 C 93 % 1018,3 hPa 0,0 l/m 6,4 km/h (2 Bft) SW 225 0 min 0,0 UV-I 0 W/m -4,9 C -3,8 C 11,3 km/h (2 Bft)
17.01.2021 06:09 -3,9 C -3,3 C 93 % 1018,2 hPa 0,0 l/m 8,0 km/h (2 Bft) SW 225 0 min 0,0 UV-I 0 W/m -4,9 C -5,7 C 9,7 km/h (2 Bft)
17.01.2021 06:10 -3,9 C -3,3 C 93 % 1018,1 hPa 0,0 l/m 6,4 km/h (2 Bft) SW 225 0 min 0,0 UV-I 0 W/m -4,9 C -3,8 C 8,0 km/h (2 Bft)
17.01.2021 06:11 -3,9 C -3,3 C 93 % 1018,2 hPa 0,0 l/m 6,4 km/h (2 Bft) SW 225 0 min 0,0 UV-I 0 W/m -4,9 C -3,8 C 9,7 km/h (2 Bft)
17.01.2021 06:12 -3,8 C -3,3 C 93 % 1018,2 hPa 0,0 l/m 8,0 km/h (2 Bft) SW 225 0 min 0,0 UV-I 0 W/m -4,8 C -5,6 C 11,3 km/h (2 Bft)
17.01.2021 06:13 -3,8 C -3,3 C 93 % 1018,3 hPa 0,0 l/m 6,4 km/h (2 Bft) SW 225 0 min 0,0 UV-I 0 W/m -4,8 C -3,7 C 9,7 km/h (2 Bft)
17.01.2021 06:14 -3,9 C -3,3 C 93 % 1018,3 hPa 0,0 l/m 9,7 km/h (2 Bft) SW 225 0 min 0,0 UV-I 0 W/m -4,9 C -7,5 C 11,3 km/h (2 Bft)
17.01.2021 06:15 -3,8 C -3,3 C 93 % 1018,2 hPa 0,0 l/m 9,7 km/h (2 Bft) SW 225 0 min 0,0 UV-I 0 W/m -4,8 C -7,4 C 14,5 km/h (3 Bft)
17.01.2021 06:16 -3,8 C -3,3 C 93 % 1018,2 hPa 0,0 l/m 8,0 km/h (2 Bft) SW 225 0 min 0,0 UV-I 0 W/m -4,8 C -5,6 C 12,9 km/h (3 Bft)
17.01.2021 06:17 -3,9 C -3,3 C 93 % 1018,2 hPa 0,0 l/m 8,0 km/h (2 Bft) SW 225 0 min 0,0 UV-I 0 W/m -4,9 C -5,7 C 11,3 km/h (2 Bft)
17.01.2021 06:18 -3,8 C -3,3 C 93 % 1018,3 hPa 0,0 l/m 8,0 km/h (2 Bft) W-SW 247 0 min 0,0 UV-I 0 W/m -4,8 C -5,6 C 14,5 km/h (3 Bft)
17.01.2021 06:19 -3,8 C -3,3 C 93 % 1018,3 hPa 0,0 l/m 6,4 km/h (2 Bft) SW 225 0 min 0,0 UV-I 0 W/m -4,8 C -3,7 C 9,7 km/h (2 Bft)
17.01.2021 06:20 -3,8 C -3,3 C 93 % 1018,2 hPa 0,0 l/m 6,4 km/h (2 Bft) SW 225 0 min 0,0 UV-I 0 W/m -4,8 C -3,7 C 9,7 km/h (2 Bft)
17.01.2021 06:21 -3,8 C -3,3 C 93 % 1018,3 hPa 0,0 l/m 9,7 km/h (2 Bft) SW 225 0 min 0,0 UV-I 0 W/m -4,8 C -7,4 C 16,1 km/h (3 Bft)
17.01.2021 06:22 -3,8 C -3,3 C 93 % 1018,3 hPa 0,0 l/m 8,0 km/h (2 Bft) SW 225 0 min 0,0 UV-I 0 W/m -4,8 C -5,6 C 16,1 km/h (3 Bft)
17.01.2021 06:23 -3,8 C -3,3 C 93 % 1018,4 hPa 0,0 l/m 8,0 km/h (2 Bft) SW 225 0 min 0,0 UV-I 0 W/m -4,8 C -5,6 C 12,9 km/h (3 Bft)
17.01.2021 06:24 -3,8 C -3,3 C 93 % 1018,3 hPa 0,0 l/m 6,4 km/h (2 Bft) S-SW 202 0 min 0,0 UV-I 0 W/m -4,8 C -3,7 C 8,0 km/h (2 Bft)
17.01.2021 06:25 -3,8 C -3,3 C 93 % 1018,3 hPa 0,0 l/m 8,0 km/h (2 Bft) SW 225 0 min 0,0 UV-I 0 W/m -4,8 C -5,6 C 11,3 km/h (2 Bft)
17.01.2021 06:26 -3,8 C -3,3 C 93 % 1018,3 hPa 0,0 l/m 8,0 km/h (2 Bft) SW 225 0 min 0,0 UV-I 0 W/m -4,8 C -5,6 C 11,3 km/h (2 Bft)
17.01.2021 06:27 -3,8 C -3,3 C 93 % 1018,3 hPa 0,0 l/m 6,4 km/h (2 Bft) SW 225 0 min 0,0 UV-I 0 W/m -4,8 C -3,7 C 9,7 km/h (2 Bft)
17.01.2021 06:28 -3,8 C -3,3 C 93 % 1018,3 hPa 0,0 l/m 4,8 km/h (1 Bft) SW 225 0 min 0,0 UV-I 0 W/m -4,8 C -3,8 C 8,0 km/h (2 Bft)
17.01.2021 06:29 -3,8 C -3,3 C 93 % 1018,2 hPa 0,0 l/m 8,0 km/h (2 Bft) SW 225 0 min 0,0 UV-I 0 W/m -4,8 C -5,6 C 9,7 km/h (2 Bft)
17.01.2021 06:30 -3,8 C -3,3 C 93 % 1018,4 hPa 0,0 l/m 4,8 km/h (1 Bft) SW 225 0 min 0,0 UV-I 0 W/m -4,8 C -3,8 C 6,4 km/h (2 Bft)
17.01.2021 06:31 -3,8 C -3,3 C 93 % 1018,3 hPa 0,0 l/m 6,4 km/h (2 Bft) S-SW 202 0 min 0,0 UV-I 0 W/m -4,8 C -3,7 C 9,7 km/h (2 Bft)
17.01.2021 06:32 -3,8 C -3,3 C 93 % 1018,3 hPa 0,0 l/m 6,4 km/h (2 Bft) SW 225 0 min 0,0 UV-I 0 W/m -4,8 C -3,7 C 9,7 km/h (2 Bft)
17.01.2021 06:33 -3,8 C -3,3 C 93 % 1018,3 hPa 0,0 l/m 6,4 km/h (2 Bft) SW 225 0 min 0,0 UV-I 0 W/m -4,8 C -3,7 C 9,7 km/h (2 Bft)
17.01.2021 06:34 -3,8 C -3,3 C 93 % 1018,3 hPa 0,0 l/m 6,4 km/h (2 Bft) SW 225 0 min 0,0 UV-I 0 W/m -4,8 C -3,7 C 8,0 km/h (2 Bft)
17.01.2021 06:35 -3,8 C -3,3 C 93 % 1018,3 hPa 0,0 l/m 8,0 km/h (2 Bft) SW 225 0 min 0,0 UV-I 0 W/m -4,8 C -5,6 C 11,3 km/h (2 Bft)
17.01.2021 06:36 -3,8 C -3,3 C 93 % 1018,4 hPa 0,0 l/m 8,0 km/h (2 Bft) SW 225 0 min 0,0 UV-I 0 W/m -4,8 C -5,6 C 9,7 km/h (2 Bft)
17.01.2021 06:37 -3,8 C -3,3 C 93 % 1018,3 hPa 0,0 l/m 8,0 km/h (2 Bft) SW 225 0 min 0,0 UV-I 0 W/m -4,8 C -5,6 C 9,7 km/h (2 Bft)
17.01.2021 06:38 -3,8 C -3,3 C 93 % 1018,3 hPa 0,0 l/m 8,0 km/h (2 Bft) SW 225 0 min 0,0 UV-I 0 W/m -4,8 C -5,6 C 9,7 km/h (2 Bft)
17.01.2021 06:39 -3,8 C -3,3 C 93 % 1018,3 hPa 0,0 l/m 8,0 km/h (2 Bft) SW 225 0 min 0,0 UV-I 0 W/m -4,8 C -5,6 C 11,3 km/h (2 Bft)
17.01.2021 06:40 -3,8 C -3,3 C 93 % 1018,4 hPa 0,0 l/m 6,4 km/h (2 Bft) SW 225 0 min 0,0 UV-I 0 W/m -4,8 C -3,7 C 9,7 km/h (2 Bft)
17.01.2021 06:41 -3,8 C -3,3 C 94 % 1018,4 hPa 0,0 l/m 4,8 km/h (1 Bft) S-SW 202 0 min 0,0 UV-I 0 W/m -4,6 C -3,8 C 8,0 km/h (2 Bft)
17.01.2021 06:42 -3,8 C -3,3 C 93 % 1018,4 hPa 0,0 l/m 6,4 km/h (2 Bft) SW 225 0 min 0,0 UV-I 0 W/m -4,8 C -3,7 C 9,7 km/h (2 Bft)
17.01.2021 06:43 -3,8 C -3,3 C 93 % 1018,5 hPa 0,0 l/m 6,4 km/h (2 Bft) SW 225 0 min 0,0 UV-I 0 W/m -4,8 C -3,7 C 9,7 km/h (2 Bft)
17.01.2021 06:44 -3,8 C -3,3 C 93 % 1018,3 hPa 0,0 l/m 8,0 km/h (2 Bft) SW 225 0 min 0,0 UV-I 0 W/m -4,8 C -5,6 C 11,3 km/h (2 Bft)
17.01.2021 06:45 -3,8 C -3,3 C 94 % 1018,3 hPa 0,0 l/m 8,0 km/h (2 Bft) S-SW 202 0 min 0,0 UV-I 0 W/m -4,6 C -5,6 C 11,3 km/h (2 Bft)
17.01.2021 06:46 -3,8 C -3,3 C 93 % 1018,3 hPa 0,0 l/m 6,4 km/h (2 Bft) S-SW 202 0 min 0,0 UV-I 0 W/m -4,8 C -3,7 C 8,0 km/h (2 Bft)
17.01.2021 06:47 -3,8 C -3,3 C 94 % 1018,4 hPa 0,0 l/m 6,4 km/h (2 Bft) S-SW 202 0 min 0,0 UV-I 0 W/m -4,6 C -3,7 C 8,0 km/h (2 Bft)
17.01.2021 06:48 -3,8 C -3,3 C 94 % 1018,3 hPa 0,0 l/m 4,8 km/h (1 Bft) SW 225 0 min 0,0 UV-I 0 W/m -4,6 C -3,8 C 8,0 km/h (2 Bft)
17.01.2021 06:49 -3,8 C -3,3 C 94 % 1018,4 hPa 0,0 l/m 6,4 km/h (2 Bft) SW 225 0 min 0,0 UV-I 0 W/m -4,6 C -3,7 C 8,0 km/h (2 Bft)
17.01.2021 06:50 -3,8 C -3,3 C 94 % 1018,4 hPa 0,0 l/m 4,8 km/h (1 Bft) SW 225 0 min 0,0 UV-I 0 W/m -4,6 C -3,8 C 8,0 km/h (2 Bft)
17.01.2021 06:51 -3,8 C -3,3 C 94 % 1018,4 hPa 0,0 l/m 6,4 km/h (2 Bft) SW 225 0 min 0,0 UV-I 0 W/m -4,6 C -3,7 C 8,0 km/h (2 Bft)
17.01.2021 06:52 -3,8 C -2,8 C 94 % 1018,4 hPa 0,0 l/m 6,4 km/h (2 Bft) SW 225 0 min 0,0 UV-I 0 W/m -4,6 C -3,7 C 8,0 km/h (2 Bft)
17.01.2021 06:53 -3,8 C -2,8 C 94 % 1018,5 hPa 0,0 l/m 8,0 km/h (2 Bft) SW 225 0 min 0,0 UV-I 0 W/m -4,6 C -5,6 C 9,7 km/h (2 Bft)
17.01.2021 06:54 -3,8 C -2,8 C 94 % 1018,4 hPa 0,0 l/m 6,4 km/h (2 Bft) SW 225 0 min 0,0 UV-I 0 W/m -4,6 C -3,7 C 8,0 km/h (2 Bft)
17.01.2021 06:55 -3,8 C -2,8 C 94 % 1018,4 hPa 0,0 l/m 8,0 km/h (2 Bft) SW 225 0 min 0,0 UV-I 0 W/m -4,6 C -5,6 C 9,7 km/h (2 Bft)
17.01.2021 06:56 -3,8 C -2,8 C 94 % 1018,4 hPa 0,0 l/m 6,4 km/h (2 Bft) SW 225 0 min 0,0 UV-I 0 W/m -4,6 C -3,7 C 8,0 km/h (2 Bft)
17.01.2021 06:57 -3,8 C -2,8 C 94 % 1018,6 hPa 0,0 l/m 8,0 km/h (2 Bft) SW 225 0 min 0,0 UV-I 0 W/m -4,6 C -5,6 C 9,7 km/h (2 Bft)
17.01.2021 06:58 -3,8 C -2,8 C 94 % 1018,5 hPa 0,0 l/m 4,8 km/h (1 Bft) SW 225 0 min 0,0 UV-I 0 W/m -4,6 C -3,8 C 6,4 km/h (2 Bft)
17.01.2021 06:59 -3,8 C -2,8 C 94 % 1018,5 hPa 0,0 l/m 4,8 km/h (1 Bft) SW 225 0 min 0,0 UV-I 0 W/m -4,6 C -3,8 C 4,8 km/h (1 Bft)
17.01.2021 07:00 -3,8 C -2,8 C 94 % 1018,5 hPa 0,0 l/m 4,8 km/h (1 Bft) SW 225 0 min 0,0 UV-I 0 W/m -4,6 C -3,8 C 8,0 km/h (2 Bft)
17.01.2021 07:01 -3,8 C -2,8 C 94 % 1018,5 hPa 0,0 l/m 4,8 km/h (1 Bft) SW 225 0 min 0,0 UV-I 0 W/m -4,6 C -3,8 C 6,4 km/h (2 Bft)
17.01.2021 07:02 -3,8 C -2,8 C 94 % 1018,5 hPa 0,0 l/m 4,8 km/h (1 Bft) SW 225 0 min 0,0 UV-I 0 W/m -4,6 C -3,8 C 8,0 km/h (2 Bft)
17.01.2021 07:03 -3,7 C -2,8 C 94 % 1018,5 hPa 0,0 l/m 3,2 km/h (1 Bft) S-SW 202 0 min 0,0 UV-I 0 W/m -4,5 C -3,7 C 4,8 km/h (1 Bft)
17.01.2021 07:04 -3,8 C -2,8 C 94 % 1018,5 hPa 0,0 l/m 1,6 km/h (1 Bft) S-SW 202 0 min 0,0 UV-I 0 W/m -4,6 C -3,8 C 3,2 km/h (1 Bft)
17.01.2021 07:05 -3,7 C -2,8 C 94 % 1018,5 hPa 0,0 l/m 3,2 km/h (1 Bft) S-SW 202 0 min 0,0 UV-I 0 W/m -4,5 C -3,7 C 4,8 km/h (1 Bft)
17.01.2021 07:06 -3,7 C -2,8 C 94 % 1018,5 hPa 0,0 l/m 3,2 km/h (1 Bft) S-SW 202 0 min 0,0 UV-I 0 W/m -4,5 C -3,7 C 4,8 km/h (1 Bft)
17.01.2021 07:07 -3,7 C -2,8 C 94 % 1018,5 hPa 0,0 l/m 4,8 km/h (1 Bft) S-SW 202 0 min 0,0 UV-I 0 W/m -4,5 C -3,7 C 6,4 km/h (2 Bft)
17.01.2021 07:08 -3,7 C -2,8 C 94 % 1018,5 hPa 0,0 l/m 4,8 km/h (1 Bft) S-SW 202 0 min 0,0 UV-I 0 W/m -4,5 C -3,7 C 6,4 km/h (2 Bft)
17.01.2021 07:09 -3,7 C -2,8 C 94 % 1018,5 hPa 0,0 l/m 4,8 km/h (1 Bft) S-SW 202 0 min 0,0 UV-I 0 W/m -4,5 C -3,7 C 4,8 km/h (1 Bft)
17.01.2021 07:10 -3,7 C -2,8 C 94 % 1018,6 hPa 0,0 l/m 4,8 km/h (1 Bft) S-SW 202 0 min 0,0 UV-I 0 W/m -4,5 C -3,7 C 6,4 km/h (2 Bft)
17.01.2021 07:11 -3,7 C -2,8 C 94 % 1018,6 hPa 0,0 l/m 4,8 km/h (1 Bft) S-SW 202 0 min 0,0 UV-I 0 W/m -4,5 C -3,7 C 6,4 km/h (2 Bft)
17.01.2021 07:12 -3,7 C -2,8 C 94 % 1018,5 hPa 0,0 l/m 4,8 km/h (1 Bft) S-SW 202 0 min 0,0 UV-I 0 W/m -4,5 C -3,7 C 6,4 km/h (2 Bft)
17.01.2021 07:13 -3,7 C -2,8 C 94 % 1018,5 hPa 0,0 l/m 4,8 km/h (1 Bft) S-SW 202 0 min 0,0 UV-I 0 W/m -4,5 C -3,7 C 6,4 km/h (2 Bft)
17.01.2021 07:14 -3,7 C -2,8 C 94 % 1018,5 hPa 0,0 l/m 3,2 km/h (1 Bft) S-SW 202 0 min 0,0 UV-I 0 W/m -4,5 C -3,7 C 6,4 km/h (2 Bft)
17.01.2021 07:15 -3,7 C -2,8 C 94 % 1018,6 hPa 0,0 l/m 4,8 km/h (1 Bft) S-SW 202 0 min 0,0 UV-I 0 W/m -4,5 C -3,7 C 4,8 km/h (1 Bft)
17.01.2021 07:16 -3,7 C -2,8 C 94 % 1018,5 hPa 0,0 l/m 3,2 km/h (1 Bft) S-SW 202 0 min 0,0 UV-I 0 W/m -4,5 C -3,7 C 4,8 km/h (1 Bft)
17.01.2021 07:17 -3,7 C -2,8 C 94 % 1018,6 hPa 0,0 l/m 3,2 km/h (1 Bft) S-SW 202 0 min 0,0 UV-I 0 W/m -4,5 C -3,7 C 4,8 km/h (1 Bft)
17.01.2021 07:18 -3,7 C -2,8 C 94 % 1018,6 hPa 0,0 l/m 3,2 km/h (1 Bft) S-SW 202 0 min 0,0 UV-I 0 W/m -4,5 C -3,7 C 3,2 km/h (1 Bft)
17.01.2021 07:19 -3,7 C -2,8 C 94 % 1018,5 hPa 0,0 l/m 3,2 km/h (1 Bft) S-SW 202 0 min 0,0 UV-I 0 W/m -4,5 C -3,7 C 4,8 km/h (1 Bft)
17.01.2021 07:20 -3,7 C -2,8 C 94 % 1018,5 hPa 0,0 l/m 3,2 km/h (1 Bft) S-SW 202 0 min 0,0 UV-I 0 W/m -4,5 C -3,7 C 4,8 km/h (1 Bft)
17.01.2021 07:21 -3,7 C -2,8 C 94 % 1018,6 hPa 0,0 l/m 3,2 km/h (1 Bft) S-SW 202 0 min 0,0 UV-I 0 W/m -4,5 C -3,7 C 4,8 km/h (1 Bft)
17.01.2021 07:22 -3,7 C -2,8 C 94 % 1018,4 hPa 0,0 l/m 3,2 km/h (1 Bft) S-SW 202 0 min 0,0 UV-I 0 W/m -4,5 C -3,7 C 4,8 km/h (1 Bft)
17.01.2021 07:23 -3,7 C -2,8 C 94 % 1018,6 hPa 0,0 l/m 3,2 km/h (1 Bft) S-SW 202 0 min 0,0 UV-I 0 W/m -4,5 C -3,7 C 4,8 km/h (1 Bft)
17.01.2021 07:24 -3,7 C -2,8 C 94 % 1018,5 hPa 0,0 l/m 3,2 km/h (1 Bft) S-SW 202 0 min 0,0 UV-I 0 W/m -4,5 C -3,7 C 4,8 km/h (1 Bft)
17.01.2021 07:25 -3,7 C -2,8 C 94 % 1018,6 hPa 0,0 l/m 4,8 km/h (1 Bft) S-SW 202 0 min 0,0 UV-I 0 W/m -4,5 C -3,7 C 6,4 km/h (2 Bft)
17.01.2021 07:26 -3,7 C -2,8 C 94 % 1018,6 hPa 0,0 l/m 3,2 km/h (1 Bft) S-SW 202 0 min 0,0 UV-I 0 W/m -4,5 C -3,7 C 4,8 km/h (1 Bft)
17.01.2021 07:27 -3,7 C -2,8 C 94 % 1018,6 hPa 0,0 l/m 3,2 km/h (1 Bft) S-SW 202 0 min 0,0 UV-I 0 W/m -4,5 C -3,7 C 4,8 km/h (1 Bft)
17.01.2021 07:28 -3,7 C -2,8 C 94 % 1018,5 hPa 0,0 l/m 4,8 km/h (1 Bft) S-SW 202 0 min 0,0 UV-I 0 W/m -4,5 C -3,7 C 6,4 km/h (2 Bft)
17.01.2021 07:29 -3,7 C -2,8 C 94 % 1018,5 hPa 0,0 l/m 4,8 km/h (1 Bft) S-SW 202 0 min 0,0 UV-I 0 W/m -4,5 C -3,7 C 6,4 km/h (2 Bft)
17.01.2021 07:30 -3,7 C -2,8 C 94 % 1018,5 hPa 0,0 l/m 4,8 km/h (1 Bft) S-SW 202 0 min 0,0 UV-I 0 W/m -4,5 C -3,7 C 4,8 km/h (1 Bft)
17.01.2021 07:31 -3,7 C -2,8 C 94 % 1018,6 hPa 0,0 l/m 4,8 km/h (1 Bft) S-SW 202 0 min 0,0 UV-I 0 W/m -4,5 C -3,7 C 6,4 km/h (2 Bft)
17.01.2021 07:32 -3,7 C -2,8 C 94 % 1018,6 hPa 0,0 l/m 4,8 km/h (1 Bft) S-SW 202 0 min 0,0 UV-I 0 W/m -4,5 C -3,7 C 6,4 km/h (2 Bft)
17.01.2021 07:33 -3,7 C -2,8 C 94 % 1018,6 hPa 0,0 l/m 4,8 km/h (1 Bft) S-SW 202 0 min 0,0 UV-I 0 W/m -4,5 C -3,7 C 6,4 km/h (2 Bft)
17.01.2021 07:34 -3,7 C -2,8 C 94 % 1018,6 hPa 0,0 l/m 4,8 km/h (1 Bft) S-SW 202 0 min 0,0 UV-I 0 W/m -4,5 C -3,7 C 6,4 km/h (2 Bft)
17.01.2021 07:35 -3,7 C -2,8 C 94 % 1018,5 hPa 0,0 l/m 4,8 km/h (1 Bft) S-SW 202 0 min 0,0 UV-I 0 W/m -4,5 C -3,7 C 6,4 km/h (2 Bft)
17.01.2021 07:36 -3,7 C -2,8 C 94 % 1018,5 hPa 0,0 l/m 4,8 km/h (1 Bft) S-SW 202 0 min 0,0 UV-I 0 W/m -4,5 C -3,7 C 4,8 km/h (1 Bft)
17.01.2021 07:37 -3,7 C -2,8 C 94 % 1018,6 hPa 0,0 l/m 4,8 km/h (1 Bft) S-SW 202 0 min 0,0 UV-I 0 W/m -4,5 C -3,7 C 6,4 km/h (2 Bft)
17.01.2021 07:38 -3,7 C -2,8 C 94 % 1018,6 hPa 0,0 l/m 4,8 km/h (1 Bft) S-SW 202 0 min 0,0 UV-I 0 W/m -4,5 C -3,7 C 4,8 km/h (1 Bft)
17.01.2021 07:39 -3,7 C -2,8 C 94 % 1018,6 hPa 0,0 l/m 3,2 km/h (1 Bft) S-SW 202 0 min 0,0 UV-I 0 W/m -4,5 C -3,7 C 4,8 km/h (1 Bft)
17.01.2021 07:40 -3,7 C -2,8 C 94 % 1018,6 hPa 0,0 l/m 4,8 km/h (1 Bft) S-SW 202 0 min 0,0 UV-I 0 W/m -4,5 C -3,7 C 4,8 km/h (1 Bft)
17.01.2021 07:41 -3,7 C -2,8 C 94 % 1018,6 hPa 0,0 l/m 3,2 km/h (1 Bft) S-SW 202 0 min 0,0 UV-I 0 W/m -4,5 C -3,7 C 6,4 km/h (2 Bft)
17.01.2021 07:42 -3,7 C -2,8 C 94 % 1018,5 hPa 0,0 l/m 4,8 km/h (1 Bft) S-SW 202 0 min 0,0 UV-I 0 W/m -4,5 C -3,7 C 6,4 km/h (2 Bft)
17.01.2021 07:43 -3,6 C -2,8 C 94 % 1018,6 hPa 0,0 l/m 4,8 km/h (1 Bft) S-SW 202 0 min 0,0 UV-I 0 W/m -4,4 C -3,6 C 8,0 km/h (2 Bft)
17.01.2021 07:44 -3,6 C -2,8 C 94 % 1018,6 hPa 0,0 l/m 4,8 km/h (1 Bft) S 180 0 min 0,0 UV-I 0 W/m -4,4 C -3,6 C 8,0 km/h (2 Bft)
17.01.2021 07:45 -3,7 C -2,8 C 94 % 1018,6 hPa 0,0 l/m 4,8 km/h (1 Bft) S-SW 202 0 min 0,0 UV-I 0 W/m -4,5 C -3,7 C 6,4 km/h (2 Bft)
17.01.2021 07:46 -3,6 C -2,8 C 94 % 1018,6 hPa 0,0 l/m 4,8 km/h (1 Bft) S 180 0 min 0,0 UV-I 0 W/m -4,4 C -3,6 C 6,4 km/h (2 Bft)
17.01.2021 07:47 -3,6 C -2,8 C 94 % 1018,5 hPa 0,0 l/m 1,6 km/h (1 Bft) S 180 0 min 0,0 UV-I 0 W/m -4,4 C -3,6 C 3,2 km/h (1 Bft)
17.01.2021 07:48 -3,6 C -2,8 C 94 % 1018,6 hPa 0,0 l/m 3,2 km/h (1 Bft) S 180 0 min 0,0 UV-I 0 W/m -4,4 C -3,6 C 3,2 km/h (1 Bft)
17.01.2021 07:49 -3,6 C -2,8 C 94 % 1018,5 hPa 0,0 l/m 1,6 km/h (1 Bft) S 180 0 min 0,0 UV-I 0 W/m -4,4 C -3,6 C 4,8 km/h (1 Bft)
17.01.2021 07:50 -3,6 C -2,8 C 94 % 1018,6 hPa 0,0 l/m 3,2 km/h (1 Bft) S 180 0 min 0,0 UV-I 0 W/m -4,4 C -3,6 C 4,8 km/h (1 Bft)
17.01.2021 07:51 -3,6 C -2,8 C 94 % 1018,7 hPa 0,0 l/m 3,2 km/h (1 Bft) S 180 0 min 0,0 UV-I 0 W/m -4,4 C -3,6 C 4,8 km/h (1 Bft)
17.01.2021 07:52 -3,6 C -2,8 C 94 % 1018,6 hPa 0,0 l/m 3,2 km/h (1 Bft) S 180 0 min 0,0 UV-I 0 W/m -4,4 C -3,6 C 4,8 km/h (1 Bft)
17.01.2021 07:53 -3,6 C -2,8 C 94 % 1018,5 hPa 0,0 l/m 4,8 km/h (1 Bft) S 180 0 min 0,0 UV-I 0 W/m -4,4 C -3,6 C 6,4 km/h (2 Bft)
17.01.2021 07:54 -3,6 C -2,8 C 94 % 1018,5 hPa 0,0 l/m 4,8 km/h (1 Bft) S 180 0 min 0,0 UV-I 0 W/m -4,4 C -3,6 C 4,8 km/h (1 Bft)
17.01.2021 07:55 -3,5 C -2,8 C 94 % 1018,6 hPa 0,0 l/m 4,8 km/h (1 Bft) S 180 0 min 0,0 UV-I 0 W/m -4,3 C -3,5 C 4,8 km/h (1 Bft)
17.01.2021 07:56 -3,6 C -2,8 C 94 % 1018,6 hPa 0,0 l/m 4,8 km/h (1 Bft) S 180 0 min 0,0 UV-I 0 W/m -4,4 C -3,6 C 6,4 km/h (2 Bft)
17.01.2021 07:57 -3,6 C -2,8 C 94 % 1018,7 hPa 0,0 l/m 4,8 km/h (1 Bft) S 180 0 min 0,0 UV-I 0 W/m -4,4 C -3,6 C 4,8 km/h (1 Bft)
17.01.2021 07:58 -3,6 C -2,8 C 94 % 1018,6 hPa 0,0 l/m 3,2 km/h (1 Bft) S 180 0 min 0,0 UV-I 0 W/m -4,4 C -3,6 C 4,8 km/h (1 Bft)
17.01.2021 07:59 -3,5 C -2,8 C 94 % 1018,6 hPa 0,0 l/m 3,2 km/h (1 Bft) S 180 0 min 0,0 UV-I 0 W/m -4,3 C -3,5 C 4,8 km/h (1 Bft)
17.01.2021 08:00 -3,5 C -2,8 C 94 % 1018,6 hPa 0,0 l/m 3,2 km/h (1 Bft) S 180 0 min 0,0 UV-I 0 W/m -4,3 C -3,5 C 4,8 km/h (1 Bft)
17.01.2021 08:01 -3,5 C -2,8 C 94 % 1018,6 hPa 0,0 l/m 4,8 km/h (1 Bft) S 180 0 min 0,0 UV-I 0 W/m -4,3 C -3,5 C 6,4 km/h (2 Bft)
17.01.2021 08:02 -3,5 C -2,8 C 94 % 1018,6 hPa 0,0 l/m 3,2 km/h (1 Bft) S 180 0 min 0,0 UV-I 0 W/m -4,3 C -3,5 C 4,8 km/h (1 Bft)
17.01.2021 08:03 -3,5 C -2,8 C 94 % 1018,6 hPa 0,0 l/m 3,2 km/h (1 Bft) S 180 0 min 0,0 UV-I 0 W/m -4,3 C -3,5 C 4,8 km/h (1 Bft)
17.01.2021 08:04 -3,5 C -2,8 C 94 % 1018,7 hPa 0,0 l/m 1,6 km/h (1 Bft) S 180 0 min 0,0 UV-I 0 W/m -4,3 C -3,5 C 3,2 km/h (1 Bft)
17.01.2021 08:05 -3,4 C -2,2 C 94 % 1018,7 hPa 0,0 l/m 1,6 km/h (1 Bft) S 180 0 min 0,0 UV-I 0 W/m -4,2 C -3,4 C 3,2 km/h (1 Bft)
17.01.2021 08:06 -3,4 C -2,2 C 94 % 1018,7 hPa 0,0 l/m 1,6 km/h (1 Bft) S 180 0 min 0,0 UV-I 0 W/m -4,2 C -3,4 C 3,2 km/h (1 Bft)
17.01.2021 08:07 -3,4 C -2,2 C 94 % 1018,8 hPa 0,0 l/m 0,0 km/h (0 Bft) S 180 0 min 0,0 UV-I 0 W/m -4,2 C -3,4 C 3,2 km/h (1 Bft)
17.01.2021 08:08 -3,4 C -2,2 C 94 % 1018,7 hPa 0,0 l/m 1,6 km/h (1 Bft) S 180 0 min 0,0 UV-I 0 W/m -4,2 C -3,4 C 1,6 km/h (1 Bft)
17.01.2021 08:09 -3,4 C -2,2 C 94 % 1018,7 hPa 0,0 l/m 3,2 km/h (1 Bft) S 180 0 min 0,0 UV-I 0 W/m -4,2 C -3,4 C 3,2 km/h (1 Bft)
17.01.2021 08:10 -3,4 C -2,2 C 94 % 1018,7 hPa 0,0 l/m 1,6 km/h (1 Bft) S 180 0 min 0,0 UV-I 0 W/m -4,2 C -3,4 C 3,2 km/h (1 Bft)
17.01.2021 08:11 -3,4 C -2,2 C 94 % 1018,8 hPa 0,0 l/m 1,6 km/h (1 Bft) S 180 0 min 0,0 UV-I 0 W/m -4,2 C -3,4 C 1,6 km/h (1 Bft)
17.01.2021 08:12 -3,4 C -2,2 C 94 % 1018,8 hPa 0,0 l/m 1,6 km/h (1 Bft) S 180 0 min 0,0 UV-I 0 W/m -4,2 C -3,4 C 3,2 km/h (1 Bft)
17.01.2021 08:13 -3,4 C -2,2 C 94 % 1018,7 hPa 0,0 l/m 1,6 km/h (1 Bft) S 180 0 min 0,0 UV-I 0 W/m -4,2 C -3,4 C 3,2 km/h (1 Bft)
17.01.2021 08:14 -3,4 C -2,2 C 94 % 1018,9 hPa 0,0 l/m 1,6 km/h (1 Bft) S 180 0 min 0,0 UV-I 0 W/m -4,2 C -3,4 C 3,2 km/h (1 Bft)
17.01.2021 08:15 -3,4 C -2,2 C 94 % 1018,8 hPa 0,0 l/m 1,6 km/h (1 Bft) S 180 0 min 0,0 UV-I 0 W/m -4,2 C -3,4 C 3,2 km/h (1 Bft)
17.01.2021 08:16 -3,4 C -2,2 C 94 % 1018,9 hPa 0,0 l/m 1,6 km/h (1 Bft) S 180 0 min 0,0 UV-I 0 W/m -4,2 C -3,4 C 3,2 km/h (1 Bft)
17.01.2021 08:17 -3,4 C -2,2 C 94 % 1018,8 hPa 0,0 l/m 1,6 km/h (1 Bft) S 180 0 min 0,0 UV-I 0 W/m -4,2 C -3,4 C 3,2 km/h (1 Bft)
17.01.2021 08:18 -3,3 C -2,2 C 94 % 1018,8 hPa 0,0 l/m 3,2 km/h (1 Bft) S 180 0 min 0,0 UV-I 0 W/m -4,1 C -3,3 C 4,8 km/h (1 Bft)
17.01.2021 08:19 -3,3 C -2,2 C 94 % 1018,8 hPa 0,0 l/m 1,6 km/h (1 Bft) S 180 0 min 0,0 UV-I 0 W/m -4,1 C -3,3 C 3,2 km/h (1 Bft)
17.01.2021 08:20 -3,3 C -2,2 C 94 % 1018,8 hPa 0,0 l/m 1,6 km/h (1 Bft) S 180 0 min 0,0 UV-I 0 W/m -4,1 C -3,3 C 3,2 km/h (1 Bft)
17.01.2021 08:21 -3,3 C -2,2 C 94 % 1018,9 hPa 0,0 l/m 3,2 km/h (1 Bft) S 180 0 min 0,0 UV-I 0 W/m -4,1 C -3,3 C 4,8 km/h (1 Bft)
17.01.2021 08:22 -3,3 C -2,2 C 94 % 1018,9 hPa 0,0 l/m 3,2 km/h (1 Bft) S 180 0 min 0,0 UV-I 0 W/m -4,1 C -3,3 C 3,2 km/h (1 Bft)
17.01.2021 08:23 -3,3 C -2,2 C 94 % 1018,9 hPa 0,0 l/m 3,2 km/h (1 Bft) S 180 0 min 0,0 UV-I 0 W/m -4,1 C -3,3 C 4,8 km/h (1 Bft)
17.01.2021 08:24 -3,3 C -2,2 C 94 % 1019,0 hPa 0,0 l/m 3,2 km/h (1 Bft) S 180 0 min 0,0 UV-I 0 W/m -4,1 C -3,3 C 3,2 km/h (1 Bft)
17.01.2021 08:25 -3,3 C -2,2 C 94 % 1018,9 hPa 0,0 l/m 3,2 km/h (1 Bft) S 180 0 min 0,0 UV-I 0 W/m -4,1 C -3,3 C 4,8 km/h (1 Bft)
17.01.2021 08:26 -3,3 C -2,2 C 94 % 1019,0 hPa 0,0 l/m 4,8 km/h (1 Bft) S 180 0 min 0,0 UV-I 0 W/m -4,1 C -3,3 C 6,4 km/h (2 Bft)
17.01.2021 08:27 -3,3 C -2,2 C 94 % 1019,0 hPa 0,0 l/m 4,8 km/h (1 Bft) S 180 0 min 0,0 UV-I 0 W/m -4,1 C -3,3 C 6,4 km/h (2 Bft)
17.01.2021 08:28 -3,3 C -2,2 C 94 % 1019,0 hPa 0,0 l/m 4,8 km/h (1 Bft) S 180 0 min 0,0 UV-I 0 W/m -4,1 C -3,3 C 6,4 km/h (2 Bft)
17.01.2021 08:29 -3,3 C -2,2 C 94 % 1019,1 hPa 0,0 l/m 6,4 km/h (2 Bft) S 180 0 min 0,0 UV-I 0 W/m -4,1 C -3,2 C 6,4 km/h (2 Bft)
17.01.2021 08:30 -3,3 C -2,2 C 94 % 1019,1 hPa 0,0 l/m 4,8 km/h (1 Bft) S-SW 202 0 min 0,0 UV-I 0 W/m -4,1 C -3,3 C 6,4 km/h (2 Bft)
17.01.2021 08:31 -3,3 C -2,2 C 94 % 1019,0 hPa 0,0 l/m 4,8 km/h (1 Bft) S-SW 202 0 min 0,0 UV-I 0 W/m -4,1 C -3,3 C 6,4 km/h (2 Bft)
17.01.2021 08:32 -3,2 C -2,2 C 94 % 1019,0 hPa 0,0 l/m 4,8 km/h (1 Bft) S-SW 202 0 min 0,0 UV-I 0 W/m -4,0 C -3,2 C 6,4 km/h (2 Bft)
17.01.2021 08:33 -3,2 C -2,2 C 94 % 1019,0 hPa 0,0 l/m 3,2 km/h (1 Bft) S-SW 202 0 min 0,0 UV-I 0 W/m -4,0 C -3,2 C 4,8 km/h (1 Bft)
17.01.2021 08:34 -3,2 C -2,2 C 94 % 1018,9 hPa 0,0 l/m 4,8 km/h (1 Bft) S-SW 202 0 min 0,0 UV-I 0 W/m -4,0 C -3,2 C 6,4 km/h (2 Bft)
17.01.2021 08:35 -3,2 C -2,2 C 94 % 1019,0 hPa 0,0 l/m 3,2 km/h (1 Bft) S-SW 202 0 min 0,0 UV-I 0 W/m -4,0 C -3,2 C 6,4 km/h (2 Bft)
17.01.2021 08:36 -3,2 C -2,2 C 94 % 1019,0 hPa 0,0 l/m 8,0 km/h (2 Bft) S-SW 202 0 min 0,0 UV-I 0 W/m -4,0 C -5,0 C 9,7 km/h (2 Bft)
17.01.2021 08:37 -3,2 C -2,2 C 94 % 1019,0 hPa 0,0 l/m 6,4 km/h (2 Bft) S-SW 202 0 min 0,0 UV-I 0 W/m -4,0 C -3,2 C 8,0 km/h (2 Bft)
17.01.2021 08:38 -3,2 C -2,2 C 94 % 1019,0 hPa 0,0 l/m 4,8 km/h (1 Bft) S 180 0 min 0,0 UV-I 0 W/m -4,0 C -3,2 C 8,0 km/h (2 Bft)
17.01.2021 08:39 -3,2 C -2,2 C 94 % 1019,0 hPa 0,0 l/m 1,6 km/h (1 Bft) S 180 0 min 0,0 UV-I 0 W/m -4,0 C -3,2 C 3,2 km/h (1 Bft)
17.01.2021 08:40 -3,2 C -2,2 C 94 % 1019,1 hPa 0,0 l/m 0,0 km/h (0 Bft) S 180 0 min 0,0 UV-I 0 W/m -4,0 C -3,2 C 1,6 km/h (1 Bft)
17.01.2021 08:41 -3,2 C -2,2 C 94 % 1019,1 hPa 0,0 l/m 1,6 km/h (1 Bft) S 180 0 min 0,0 UV-I 0 W/m -4,0 C -3,2 C 4,8 km/h (1 Bft)
17.01.2021 08:42 -3,2 C -2,2 C 94 % 1019,2 hPa 0,0 l/m 1,6 km/h (1 Bft) S 180 0 min 0,0 UV-I 0 W/m -4,0 C -3,2 C 3,2 km/h (1 Bft)
17.01.2021 08:43 -3,1 C -2,2 C 94 % 1019,1 hPa 0,0 l/m 1,6 km/h (1 Bft) S 180 0 min 0,0 UV-I 0 W/m -3,9 C -3,1 C 3,2 km/h (1 Bft)
17.01.2021 08:44 -3,1 C -2,2 C 94 % 1019,2 hPa 0,0 l/m 0,0 km/h (0 Bft) S 180 0 min 0,0 UV-I 0 W/m -3,9 C -3,1 C 1,6 km/h (1 Bft)
17.01.2021 08:45 -3,1 C -2,2 C 95 % 1019,1 hPa 0,0 l/m 1,6 km/h (1 Bft) S 180 0 min 0,0 UV-I 5 W/m -3,8 C -3,1 C 3,2 km/h (1 Bft)
17.01.2021 08:46 -3,1 C -2,2 C 94 % 1019,2 hPa 0,0 l/m 1,6 km/h (1 Bft) S 180 0 min 0,0 UV-I 5 W/m -3,9 C -3,1 C 3,2 km/h (1 Bft)
17.01.2021 08:47 -3,1 C -2,2 C 94 % 1019,2 hPa 0,0 l/m 1,6 km/h (1 Bft) S 180 0 min 0,0 UV-I 5 W/m -3,9 C -3,1 C 3,2 km/h (1 Bft)
17.01.2021 08:48 -3,1 C -2,2 C 94 % 1019,1 hPa 0,0 l/m 0,0 km/h (0 Bft) S 180 0 min 0,0 UV-I 5 W/m -3,9 C -3,1 C 1,6 km/h (1 Bft)
17.01.2021 08:49 -3,1 C -2,2 C 94 % 1019,3 hPa 0,0 l/m 1,6 km/h (1 Bft) S 180 0 min 0,0 UV-I 5 W/m -3,9 C -3,1 C 3,2 km/h (1 Bft)
17.01.2021 08:50 -3,1 C -2,2 C 94 % 1019,3 hPa 0,0 l/m 1,6 km/h (1 Bft) S 180 0 min 0,0 UV-I 5 W/m -3,9 C -3,1 C 3,2 km/h (1 Bft)
17.01.2021 08:51 -3,1 C -2,2 C 94 % 1019,3 hPa 0,0 l/m 1,6 km/h (1 Bft) S 180 0 min 0,0 UV-I 5 W/m -3,9 C -3,1 C 4,8 km/h (1 Bft)
17.01.2021 08:52 -3,1 C -2,2 C 94 % 1019,4 hPa 0,0 l/m 1,6 km/h (1 Bft) S 180 0 min 0,0 UV-I 5 W/m -3,9 C -3,1 C 1,6 km/h (1 Bft)
17.01.2021 08:53 -3,1 C -2,2 C 94 % 1019,2 hPa 0,0 l/m 1,6 km/h (1 Bft) S 180 0 min 0,0 UV-I 7 W/m -3,9 C -3,1 C 3,2 km/h (1 Bft)
17.01.2021 08:54 -3,1 C -2,2 C 94 % 1019,3 hPa 0,0 l/m 1,6 km/h (1 Bft) S 180 0 min 0,0 UV-I 7 W/m -3,9 C -3,1 C 3,2 km/h (1 Bft)
17.01.2021 08:55 -3,1 C -2,2 C 94 % 1019,3 hPa 0,0 l/m 1,6 km/h (1 Bft) S 180 0 min 0,0 UV-I 7 W/m -3,9 C -3,1 C 3,2 km/h (1 Bft)
17.01.2021 08:56 -3,0 C -2,2 C 94 % 1019,4 hPa 0,0 l/m 3,2 km/h (1 Bft) S 180 0 min 0,0 UV-I 7 W/m -3,8 C -3,0 C 3,2 km/h (1 Bft)
17.01.2021 08:57 -3,0 C -2,2 C 94 % 1019,4 hPa 0,0 l/m 1,6 km/h (1 Bft) S 180 0 min 0,0 UV-I 9 W/m -3,8 C -3,0 C 3,2 km/h (1 Bft)
17.01.2021 08:58 -3,0 C -2,2 C 94 % 1019,4 hPa 0,0 l/m 0,0 km/h (0 Bft) S 180 0 min 0,0 UV-I 11 W/m -3,8 C -3,0 C 3,2 km/h (1 Bft)
17.01.2021 08:59 -3,0 C -2,2 C 94 % 1019,4 hPa 0,0 l/m 1,6 km/h (1 Bft) S 180 0 min 0,0 UV-I 11 W/m -3,8 C -3,0 C 3,2 km/h (1 Bft)
17.01.2021 09:00 -2,9 C -2,2 C 94 % 1019,5 hPa 0,0 l/m 1,6 km/h (1 Bft) S 180 0 min 0,0 UV-I 11 W/m -3,7 C -2,9 C 3,2 km/h (1 Bft)
17.01.2021 09:01 -2,9 C -2,2 C 95 % 1019,5 hPa 0,0 l/m 0,0 km/h (0 Bft) S 180 0 min 0,0 UV-I 12 W/m -3,6 C -2,9 C 1,6 km/h (1 Bft)
17.01.2021 09:02 -2,9 C -1,7 C 95 % 1019,5 hPa 0,0 l/m 1,6 km/h (1 Bft) S 180 0 min 0,0 UV-I 14 W/m -3,6 C -2,9 C 3,2 km/h (1 Bft)
17.01.2021 09:03 -2,9 C -1,7 C 95 % 1019,5 hPa 0,0 l/m 3,2 km/h (1 Bft) S 180 0 min 0,0 UV-I 14 W/m -3,6 C -2,9 C 4,8 km/h (1 Bft)
17.01.2021 09:04 -2,9 C -1,7 C 95 % 1019,5 hPa 0,0 l/m 4,8 km/h (1 Bft) SW 225 0 min 0,0 UV-I 16 W/m -3,6 C -2,9 C 8,0 km/h (2 Bft)
17.01.2021 09:05 -2,8 C -1,7 C 95 % 1019,4 hPa 0,0 l/m 3,2 km/h (1 Bft) SW 225 0 min 0,0 UV-I 16 W/m -3,5 C -2,8 C 6,4 km/h (2 Bft)
17.01.2021 09:06 -2,8 C -1,7 C 95 % 1019,5 hPa 0,0 l/m 3,2 km/h (1 Bft) SW 225 0 min 0,0 UV-I 18 W/m -3,5 C -2,8 C 6,4 km/h (2 Bft)
17.01.2021 09:07 -2,8 C -1,7 C 95 % 1019,5 hPa 0,0 l/m 6,4 km/h (2 Bft) SW 225 0 min 0,0 UV-I 19 W/m -3,5 C -2,8 C 9,7 km/h (2 Bft)
17.01.2021 09:08 -2,8 C -1,7 C 95 % 1019,6 hPa 0,0 l/m 6,4 km/h (2 Bft) SW 225 0 min 0,0 UV-I 19 W/m -3,5 C -2,8 C 6,4 km/h (2 Bft)
17.01.2021 09:09 -2,7 C -1,7 C 95 % 1019,5 hPa 0,0 l/m 4,8 km/h (1 Bft) S-SW 202 0 min 0,0 UV-I 21 W/m -3,4 C -2,7 C 8,0 km/h (2 Bft)
17.01.2021 09:10 -2,7 C -1,7 C 95 % 1019,5 hPa 0,0 l/m 6,4 km/h (2 Bft) S-SW 202 0 min 0,0 UV-I 23 W/m -3,4 C -2,7 C 8,0 km/h (2 Bft)
17.01.2021 09:11 -2,6 C -1,7 C 95 % 1019,4 hPa 0,0 l/m 6,4 km/h (2 Bft) S-SW 202 0 min 0,0 UV-I 25 W/m -3,3 C -2,6 C 8,0 km/h (2 Bft)
17.01.2021 09:12 -2,4 C -1,7 C 95 % 1019,5 hPa 0,0 l/m 6,4 km/h (2 Bft) SW 225 0 min 0,0 UV-I 26 W/m -3,1 C -2,4 C 8,0 km/h (2 Bft)
17.01.2021 09:13 -2,4 C -1,7 C 95 % 1019,5 hPa 0,0 l/m 8,0 km/h (2 Bft) S-SW 202 0 min 0,0 UV-I 26 W/m -3,1 C -4,2 C 9,7 km/h (2 Bft)
17.01.2021 09:14 -2,3 C -1,7 C 95 % 1019,5 hPa 0,0 l/m 8,0 km/h (2 Bft) SW 225 0 min 0,0 UV-I 29 W/m -3,0 C -4,1 C 8,0 km/h (2 Bft)
17.01.2021 09:15 -2,2 C -1,7 C 95 % 1019,5 hPa 0,0 l/m 3,2 km/h (1 Bft) SW 225 0 min 0,0 UV-I 33 W/m -2,9 C -2,2 C 6,4 km/h (2 Bft)
17.01.2021 09:16 -2,2 C -1,7 C 95 % 1019,6 hPa 0,0 l/m 4,8 km/h (1 Bft) SW 225 0 min 0,0 UV-I 37 W/m -2,9 C -2,2 C 8,0 km/h (2 Bft)
17.01.2021 09:17 -2,2 C -1,7 C 95 % 1019,6 hPa 0,0 l/m 4,8 km/h (1 Bft) SW 225 0 min 0,0 UV-I 40 W/m -2,9 C -2,2 C 8,0 km/h (2 Bft)
17.01.2021 09:18 -2,1 C -1,7 C 95 % 1019,4 hPa 0,0 l/m 4,8 km/h (1 Bft) SW 225 0 min 0,0 UV-I 40 W/m -2,8 C -2,1 C 6,4 km/h (2 Bft)
17.01.2021 09:19 -2,1 C -1,7 C 95 % 1019,6 hPa 0,0 l/m 4,8 km/h (1 Bft) SW 225 0 min 0,0 UV-I 40 W/m -2,8 C -2,1 C 6,4 km/h (2 Bft)
17.01.2021 09:20 -2,0 C -1,7 C 95 % 1019,6 hPa 0,0 l/m 4,8 km/h (1 Bft) SW 225 0 min 0,0 UV-I 43 W/m -2,7 C -2,0 C 8,0 km/h (2 Bft)
17.01.2021 09:21 -2,0 C -1,7 C 95 % 1019,7 hPa 0,0 l/m 4,8 km/h (1 Bft) SW 225 0 min 0,0 UV-I 46 W/m -2,7 C -2,0 C 6,4 km/h (2 Bft)
17.01.2021 09:22 -1,9 C -1,1 C 95 % 1019,6 hPa 0,0 l/m 3,2 km/h (1 Bft) SW 225 0 min 0,0 UV-I 49 W/m -2,6 C -1,9 C 4,8 km/h (1 Bft)
17.01.2021 09:23 -1,9 C -1,1 C 95 % 1019,7 hPa 0,0 l/m 3,2 km/h (1 Bft) SW 225 0 min 0,0 UV-I 47 W/m -2,6 C -1,9 C 4,8 km/h (1 Bft)
17.01.2021 09:24 -1,9 C -1,1 C 95 % 1019,7 hPa 0,0 l/m 4,8 km/h (1 Bft) SW 225 0 min 0,0 UV-I 49 W/m -2,6 C -1,9 C 6,4 km/h (2 Bft)
17.01.2021 09:25 -1,8 C -1,1 C 95 % 1019,8 hPa 0,0 l/m 3,2 km/h (1 Bft) SW 225 0 min 0,0 UV-I 49 W/m -2,5 C -1,8 C 6,4 km/h (2 Bft)
17.01.2021 09:26 -1,8 C -1,1 C 95 % 1019,7 hPa 0,0 l/m 4,8 km/h (1 Bft) SW 225 0 min 0,0 UV-I 53 W/m -2,5 C -1,8 C 6,4 km/h (2 Bft)
17.01.2021 09:27 -1,8 C -1,1 C 95 % 1019,7 hPa 0,0 l/m 4,8 km/h (1 Bft) W-SW 247 0 min 0,0 UV-I 58 W/m -2,5 C -1,8 C 8,0 km/h (2 Bft)
17.01.2021 09:28 -1,8 C -1,1 C 95 % 1019,8 hPa 0,0 l/m 4,8 km/h (1 Bft) W-SW 247 0 min 0,0 UV-I 63 W/m -2,5 C -1,8 C 6,4 km/h (2 Bft)
17.01.2021 09:29 -1,7 C -1,1 C 95 % 1019,7 hPa 0,0 l/m 4,8 km/h (1 Bft) SW 225 0 min 0,0 UV-I 65 W/m -2,4 C -1,7 C 8,0 km/h (2 Bft)
17.01.2021 09:30 -1,7 C -1,1 C 95 % 1019,7 hPa 0,0 l/m 6,4 km/h (2 Bft) SW 225 0 min 0,0 UV-I 69 W/m -2,4 C -1,7 C 8,0 km/h (2 Bft)
17.01.2021 09:31 -1,7 C -1,1 C 95 % 1019,7 hPa 0,0 l/m 6,4 km/h (2 Bft) SW 225 0 min 0,0 UV-I 76 W/m -2,4 C -1,7 C 9,7 km/h (2 Bft)
17.01.2021 09:32 -1,6 C -1,1 C 95 % 1019,8 hPa 0,0 l/m 6,4 km/h (2 Bft) SW 225 0 min 0,0 UV-I 79 W/m -2,3 C -1,6 C 9,7 km/h (2 Bft)
17.01.2021 09:33 -1,6 C -1,1 C 95 % 1019,7 hPa 0,0 l/m 4,8 km/h (1 Bft) W-SW 247 0 min 0,0 UV-I 76 W/m -2,3 C -1,6 C 8,0 km/h (2 Bft)
17.01.2021 09:34 -1,6 C -1,1 C 95 % 1019,7 hPa 0,0 l/m 4,8 km/h (1 Bft) W-SW 247 0 min 0,0 UV-I 72 W/m -2,3 C -1,6 C 8,0 km/h (2 Bft)
17.01.2021 09:35 -1,6 C -1,1 C 95 % 1019,8 hPa 0,0 l/m 6,4 km/h (2 Bft) W-SW 247 0 min 0,0 UV-I 69 W/m -2,3 C -1,6 C 11,3 km/h (2 Bft)
17.01.2021 09:36 -1,6 C -1,1 C 95 % 1019,8 hPa 0,0 l/m 6,4 km/h (2 Bft) SW 225 0 min 0,0 UV-I 63 W/m -2,3 C -1,6 C 9,7 km/h (2 Bft)
17.01.2021 09:37 -1,6 C -1,1 C 95 % 1019,8 hPa 0,0 l/m 4,8 km/h (1 Bft) SW 225 0 min 0,0 UV-I 58 W/m -2,3 C -1,6 C 8,0 km/h (2 Bft)
17.01.2021 09:38 -1,5 C -1,1 C 95 % 1019,8 hPa 0,0 l/m 4,8 km/h (1 Bft) W-SW 247 0 min 0,0 UV-I 54 W/m -2,2 C -1,5 C 8,0 km/h (2 Bft)
17.01.2021 09:42 -1,4 C -1,1 C 95 % 1019,9 hPa 0,0 l/m 4,4 km/h (1 Bft) W-SW 240 0 min 0,0 UV-I 55 W/m -2,1 C -1,4 C 8,0 km/h (2 Bft)
17.01.2021 09:44 -1,4 C -1,1 C 95 % 1019,8 hPa 0,0 l/m 5,1 km/h (1 Bft) SW 232 0 min 0,0 UV-I 57 W/m -2,1 C -1,4 C 8,0 km/h (2 Bft)
17.01.2021 09:46 -1,3 C -1,1 C 95 % 1019,8 hPa 0,0 l/m 5,3 km/h (1 Bft) SW 230 0 min 0,0 UV-I 56 W/m -2,0 C -1,3 C 8,0 km/h (2 Bft)
17.01.2021 09:48 -1,3 C -0,6 C 95 % 1019,8 hPa 0,0 l/m 6,5 km/h (2 Bft) SW 226 0 min 0,0 UV-I 58 W/m -2,0 C -1,4 C 11,3 km/h (2 Bft)
17.01.2021 09:50 -1,3 C -0,6 C 95 % 1019,9 hPa 0,0 l/m 5,2 km/h (1 Bft) W-SW 247 0 min 0,0 UV-I 50 W/m -2,0 C -1,3 C 8,0 km/h (2 Bft)
17.01.2021 09:52 -1,2 C -0,6 C 95 % 1019,9 hPa 0,0 l/m 6,1 km/h (2 Bft) W-SW 239 0 min 0,0 UV-I 45 W/m -1,9 C -1,2 C 11,3 km/h (2 Bft)
17.01.2021 09:54 -1,3 C -0,6 C 95 % 1020,0 hPa 0,0 l/m 5,6 km/h (1 Bft) W-SW 245 0 min 0,0 UV-I 42 W/m -2,0 C -1,3 C 9,7 km/h (2 Bft)
17.01.2021 09:56 -1,2 C -0,6 C 95 % 1020,0 hPa 0,0 l/m 4,3 km/h (1 Bft) SW 222 0 min 0,0 UV-I 40 W/m -1,9 C -1,2 C 6,4 km/h (2 Bft)
17.01.2021 09:58 -1,2 C -0,6 C 95 % 1020,0 hPa 0,0 l/m 3,7 km/h (1 Bft) SW 227 0 min 0,0 UV-I 38 W/m -1,9 C -1,2 C 6,4 km/h (2 Bft)
17.01.2021 10:00 -1,2 C -0,6 C 95 % 1020,0 hPa 0,0 l/m 2,9 km/h (1 Bft) S-SW 209 0 min 0,0 UV-I 34 W/m -1,9 C -1,2 C 6,4 km/h (2 Bft)
17.01.2021 10:02 -1,2 C -0,6 C 95 % 1020,0 hPa 0,0 l/m 4,9 km/h (1 Bft) SW 228 0 min 0,0 UV-I 36 W/m -1,9 C -1,2 C 6,4 km/h (2 Bft)
17.01.2021 10:04 -1,2 C -0,6 C 95 % 1020,1 hPa 0,0 l/m 4,5 km/h (1 Bft) W-SW 246 0 min 0,0 UV-I 39 W/m -1,9 C -1,2 C 8,0 km/h (2 Bft)
17.01.2021 10:06 -1,2 C -0,6 C 95 % 1020,1 hPa 0,0 l/m 4,1 km/h (1 Bft) W-SW 238 0 min 0,0 UV-I 43 W/m -1,9 C -1,2 C 6,4 km/h (2 Bft)
17.01.2021 10:08 -1,1 C -0,6 C 95 % 1020,1 hPa 0,0 l/m 4,6 km/h (1 Bft) SW 227 0 min 0,0 UV-I 44 W/m -1,8 C -1,1 C 6,4 km/h (2 Bft)
17.01.2021 10:10 -1,1 C -0,6 C 95 % 1020,2 hPa 0,0 l/m 4,8 km/h (1 Bft) SW 225 0 min 0,0 UV-I 41 W/m -1,8 C -1,1 C 8,0 km/h (2 Bft)
17.01.2021 10:12 -1,1 C -0,6 C 95 % 1020,2 hPa 0,0 l/m 5,7 km/h (1 Bft) SW 232 0 min 0,0 UV-I 42 W/m -1,8 C -1,1 C 9,7 km/h (2 Bft)
17.01.2021 10:14 -1,1 C -0,6 C 95 % 1020,3 hPa 0,0 l/m 3,9 km/h (1 Bft) SW 221 0 min 0,0 UV-I 48 W/m -1,8 C -1,1 C 8,0 km/h (2 Bft)
17.01.2021 10:16 -1,0 C -0,6 C 95 % 1020,3 hPa 0,0 l/m 5,1 km/h (1 Bft) SW 227 0 min 0,0 UV-I 55 W/m -1,7 C -1,0 C 8,0 km/h (2 Bft)
17.01.2021 10:18 -1,0 C -0,6 C 95 % 1020,3 hPa 0,0 l/m 4,2 km/h (1 Bft) SW 234 0 min 0,0 UV-I 52 W/m -1,7 C -1,0 C 6,4 km/h (2 Bft)
17.01.2021 10:20 -0,9 C -0,6 C 95 % 1020,3 hPa 0,0 l/m 4,3 km/h (1 Bft) SW 231 0 min 0,0 UV-I 51 W/m -1,6 C -0,9 C 6,4 km/h (2 Bft)
17.01.2021 10:22 -0,9 C -0,6 C 95 % 1020,3 hPa 0,0 l/m 3,8 km/h (1 Bft) SW 231 0 min 0,0 UV-I 55 W/m -1,6 C -0,9 C 6,4 km/h (2 Bft)
17.01.2021 10:24 -0,8 C -0,6 C 95 % 1020,2 hPa 0,0 l/m 3,4 km/h (1 Bft) SW 231 0 min 0,0 UV-I 60 W/m -1,5 C -0,8 C 4,8 km/h (1 Bft)
17.01.2021 10:26 -0,8 C -0,6 C 95 % 1020,3 hPa 0,0 l/m 3,3 km/h (1 Bft) SW 231 0 min 0,0 UV-I 66 W/m -1,5 C -0,8 C 4,8 km/h (1 Bft)
17.01.2021 10:28 -0,7 C -0,6 C 95 % 1020,4 hPa 0,0 l/m 3,8 km/h (1 Bft) SW 230 0 min 0,0 UV-I 65 W/m -1,4 C -0,7 C 4,8 km/h (1 Bft)
17.01.2021 10:30 -0,7 C -0,6 C 95 % 1020,4 hPa 0,0 l/m 2,4 km/h (1 Bft) SW 231 0 min 0,0 UV-I 63 W/m -1,4 C -0,7 C 4,8 km/h (1 Bft)
17.01.2021 10:32 -0,7 C -0,6 C 95 % 1020,4 hPa 0,0 l/m 2,2 km/h (1 Bft) SW 231 0 min 0,0 UV-I 60 W/m -1,4 C -0,7 C 3,2 km/h (1 Bft)
17.01.2021 10:34 -0,6 C -0,6 C 95 % 1020,5 hPa 0,0 l/m 1,8 km/h (1 Bft) SW 231 0 min 0,0 UV-I 60 W/m -1,3 C -0,6 C 4,8 km/h (1 Bft)
17.01.2021 10:36 -0,6 C -0,6 C 95 % 1020,4 hPa 0,0 l/m 2,3 km/h (1 Bft) SW 231 0 min 0,0 UV-I 58 W/m -1,3 C -0,6 C 4,8 km/h (1 Bft)
17.01.2021 10:38 -0,6 C 0,0 C 95 % 1020,4 hPa 0,0 l/m 2,3 km/h (1 Bft) SW 230 0 min 0,0 UV-I 58 W/m -1,3 C -0,6 C 4,8 km/h (1 Bft)
17.01.2021 10:40 -0,5 C 0,0 C 95 % 1020,5 hPa 0,0 l/m 3,2 km/h (1 Bft) SW 230 0 min 0,0 UV-I 56 W/m -1,2 C -0,5 C 4,8 km/h (1 Bft)
17.01.2021 10:42 -0,4 C 0,0 C 95 % 1020,6 hPa 0,0 l/m 5,9 km/h (2 Bft) SW 217 0 min 0,0 UV-I 51 W/m -1,1 C -0,4 C 8,0 km/h (2 Bft)
17.01.2021 10:44 -0,4 C -0,6 C 95 % 1020,6 hPa 0,0 l/m 5,9 km/h (2 Bft) S 190 0 min 0,0 UV-I 49 W/m -1,1 C -0,4 C 9,7 km/h (2 Bft)
17.01.2021 10:46 -0,3 C -0,6 C 95 % 1020,7 hPa 0,0 l/m 7,0 km/h (2 Bft) S-SW 200 0 min 0,0 UV-I 58 W/m -1,0 C -0,9 C 9,7 km/h (2 Bft)
17.01.2021 10:48 -0,3 C -0,6 C 95 % 1020,7 hPa 0,0 l/m 10,3 km/h (2 Bft) SW 214 0 min 0,0 UV-I 62 W/m -1,0 C -4,0 C 12,9 km/h (3 Bft)
17.01.2021 10:50 -0,3 C -0,6 C 95 % 1020,7 hPa 0,0 l/m 6,7 km/h (2 Bft) SW 226 0 min 0,0 UV-I 62 W/m -1,0 C -0,6 C 9,7 km/h (2 Bft)
17.01.2021 10:52 -0,3 C -0,6 C 95 % 1020,8 hPa 0,0 l/m 4,7 km/h (1 Bft) SW 232 0 min 0,0 UV-I 57 W/m -1,0 C -0,3 C 6,4 km/h (2 Bft)
17.01.2021 10:54 -0,3 C -0,6 C 94 % 1020,8 hPa 0,0 l/m 3,7 km/h (1 Bft) S-SW 213 0 min 0,0 UV-I 56 W/m -1,1 C -0,3 C 6,4 km/h (2 Bft)
17.01.2021 10:56 -0,3 C -0,6 C 94 % 1020,8 hPa 0,0 l/m 5,0 km/h (1 Bft) SW 227 0 min 0,0 UV-I 52 W/m -1,1 C -0,3 C 9,7 km/h (2 Bft)
17.01.2021 10:58 -0,2 C -0,6 C 94 % 1020,8 hPa 0,0 l/m 5,3 km/h (1 Bft) W-SW 240 0 min 0,0 UV-I 52 W/m -1,0 C -0,2 C 9,7 km/h (2 Bft)
17.01.2021 11:00 -0,2 C 0,0 C 94 % 1020,9 hPa 0,0 l/m 4,3 km/h (1 Bft) SW 234 0 min 0,0 UV-I 56 W/m -1,0 C -0,2 C 9,7 km/h (2 Bft)
17.01.2021 11:02 -0,2 C 0,0 C 94 % 1020,9 hPa 0,0 l/m 5,8 km/h (2 Bft) SW 230 0 min 0,0 UV-I 60 W/m -1,0 C -0,2 C 9,7 km/h (2 Bft)
17.01.2021 11:04 -0,2 C 0,0 C 94 % 1021,0 hPa 0,0 l/m 7,5 km/h (2 Bft) SW 223 0 min 0,0 UV-I 63 W/m -1,0 C -1,4 C 11,3 km/h (2 Bft)
17.01.2021 11:06 -0,1 C 0,0 C 94 % 1021,1 hPa 0,0 l/m 6,4 km/h (2 Bft) SW 224 0 min 0,0 UV-I 65 W/m -0,9 C -0,1 C 9,7 km/h (2 Bft)
17.01.2021 11:08 -0,1 C 0,0 C 94 % 1021,1 hPa 0,0 l/m 4,5 km/h (1 Bft) S-SW 209 0 min 0,5 UV-I 73 W/m -0,9 C -0,1 C 8,0 km/h (2 Bft)
17.01.2021 11:10 -0,1 C 0,0 C 94 % 1021,0 hPa 0,0 l/m 4,8 km/h (1 Bft) SW 229 0 min 0,5 UV-I 79 W/m -0,9 C -0,1 C 6,4 km/h (2 Bft)
17.01.2021 11:12 0,0 C 0,0 C 94 % 1021,1 hPa 0,0 l/m 4,2 km/h (1 Bft) SW 215 0 min 0,5 UV-I 75 W/m -0,8 C 0,0 C 6,4 km/h (2 Bft)
17.01.2021 11:14 0,0 C 0,0 C 94 % 1021,2 hPa 0,0 l/m 5,1 km/h (1 Bft) SW 228 0 min 0,5 UV-I 77 W/m -0,8 C 0,0 C 6,4 km/h (2 Bft)
17.01.2021 11:16 0,1 C 0,0 C 94 % 1021,2 hPa 0,0 l/m 4,1 km/h (1 Bft) W-SW 239 0 min 0,5 UV-I 79 W/m -0,7 C 0,1 C 8,0 km/h (2 Bft)
17.01.2021 11:18 0,1 C 0,0 C 94 % 1021,3 hPa 0,0 l/m 5,4 km/h (1 Bft) S-SW 198 0 min 0,5 UV-I 74 W/m -0,7 C 0,1 C 8,0 km/h (2 Bft)
17.01.2021 11:20 0,1 C 0,0 C 94 % 1021,2 hPa 0,0 l/m 5,1 km/h (1 Bft) W-SW 237 0 min 0,2 UV-I 69 W/m -0,7 C 0,1 C 9,7 km/h (2 Bft)
17.01.2021 11:22 0,1 C 0,0 C 94 % 1021,4 hPa 0,0 l/m 5,7 km/h (1 Bft) SW 234 0 min 0,0 UV-I 62 W/m -0,7 C 0,1 C 8,0 km/h (2 Bft)
17.01.2021 11:24 0,1 C 0,0 C 94 % 1021,5 hPa 0,0 l/m 5,0 km/h (1 Bft) W-SW 238 0 min 0,0 UV-I 61 W/m -0,7 C 0,1 C 8,0 km/h (2 Bft)
17.01.2021 11:26 0,1 C 0,0 C 94 % 1021,3 hPa 0,0 l/m 4,7 km/h (1 Bft) S-SW 205 0 min 0,1 UV-I 62 W/m -0,7 C 0,1 C 8,0 km/h (2 Bft)
17.01.2021 11:28 0,2 C 0,0 C 94 % 1021,3 hPa 0,0 l/m 4,2 km/h (1 Bft) S-SW 209 0 min 0,5 UV-I 80 W/m -0,6 C 0,2 C 6,4 km/h (2 Bft)
17.01.2021 11:30 0,2 C 0,0 C 94 % 1021,3 hPa 0,0 l/m 1,9 km/h (1 Bft) S-SW 209 0 min 0,5 UV-I 86 W/m -0,6 C 0,2 C 3,2 km/h (1 Bft)
17.01.2021 11:32 0,2 C 0,0 C 94 % 1021,4 hPa 0,0 l/m 2,8 km/h (1 Bft) S-SW 213 0 min 0,5 UV-I 84 W/m -0,6 C 0,2 C 4,8 km/h (1 Bft)
17.01.2021 11:34 0,3 C 0,0 C 94 % 1021,4 hPa 0,0 l/m 3,3 km/h (1 Bft) S-SW 213 0 min 0,6 UV-I 91 W/m -0,5 C 0,3 C 6,4 km/h (2 Bft)
17.01.2021 11:36 0,3 C 0,0 C 94 % 1021,5 hPa 0,0 l/m 3,8 km/h (1 Bft) S-SW 213 0 min 0,6 UV-I 96 W/m -0,5 C 0,3 C 6,4 km/h (2 Bft)
17.01.2021 11:38 0,4 C 0,0 C 94 % 1021,5 hPa 0,0 l/m 2,7 km/h (1 Bft) S-SW 213 0 min 0,6 UV-I 109 W/m -0,5 C 0,4 C 4,8 km/h (1 Bft)
17.01.2021 11:40 0,4 C 0,0 C 94 % 1021,4 hPa 0,0 l/m 2,7 km/h (1 Bft) S-SW 213 0 min 0,6 UV-I 124 W/m -0,5 C 0,4 C 4,8 km/h (1 Bft)
17.01.2021 11:42 0,6 C 0,0 C 94 % 1021,4 hPa 0,0 l/m 3,8 km/h (1 Bft) S-SW 213 0 min 0,6 UV-I 113 W/m -0,3 C 0,6 C 6,4 km/h (2 Bft)
17.01.2021 11:44 0,7 C 0,0 C 94 % 1021,4 hPa 0,0 l/m 2,6 km/h (1 Bft) S-SW 213 0 min 0,6 UV-I 120 W/m -0,2 C 0,7 C 4,8 km/h (1 Bft)
17.01.2021 11:46 0,7 C 0,0 C 94 % 1021,3 hPa 0,0 l/m 3,4 km/h (1 Bft) S-SW 213 0 min 0,7 UV-I 144 W/m -0,2 C 0,7 C 4,8 km/h (1 Bft)
17.01.2021 11:48 0,8 C 0,0 C 94 % 1021,4 hPa 0,0 l/m 2,2 km/h (1 Bft) S-SW 213 0 min 0,7 UV-I 141 W/m -0,1 C 0,8 C 3,2 km/h (1 Bft)
17.01.2021 11:50 0,8 C 0,0 C 94 % 1021,4 hPa 0,0 l/m 2,5 km/h (1 Bft) S-SW 213 0 min 0,7 UV-I 134 W/m -0,1 C 0,8 C 4,8 km/h (1 Bft)
17.01.2021 11:52 0,9 C 0,0 C 94 % 1021,3 hPa 0,0 l/m 2,6 km/h (1 Bft) S-SW 213 0 min 0,7 UV-I 165 W/m 0,0 C 0,9 C 6,4 km/h (2 Bft)
17.01.2021 11:54 1,0 C 0,0 C 94 % 1021,3 hPa 0,0 l/m 2,4 km/h (1 Bft) S-SW 213 0 min 0,7 UV-I 158 W/m 0,1 C 1,0 C 3,2 km/h (1 Bft)
17.01.2021 11:56 1,1 C 0,0 C 94 % 1021,3 hPa 0,0 l/m 2,8 km/h (1 Bft) S-SW 213 0 min 0,7 UV-I 157 W/m 0,2 C 1,1 C 4,8 km/h (1 Bft)
17.01.2021 11:58 1,2 C 0,0 C 94 % 1021,4 hPa 0,0 l/m 5,0 km/h (1 Bft) W 280 0 min 0,7 UV-I 145 W/m 0,3 C 1,2 C 12,9 km/h (3 Bft)
17.01.2021 12:00 1,3 C 0,0 C 94 % 1021,5 hPa 0,0 l/m 5,1 km/h (1 Bft) W 267 0 min 0,8 UV-I 167 W/m 0,4 C 1,3 C 11,3 km/h (2 Bft)
17.01.2021 12:02 1,3 C 0,0 C 94 % 1021,4 hPa 0,0 l/m 5,2 km/h (1 Bft) W-SW 247 0 min 0,8 UV-I 178 W/m 0,4 C 1,3 C 9,7 km/h (2 Bft)
17.01.2021 12:04 1,4 C 0,0 C 94 % 1021,4 hPa 0,0 l/m 7,2 km/h (2 Bft) W-SW 255 0 min 0,7 UV-I 131 W/m 0,5 C 0,6 C 11,3 km/h (2 Bft)
17.01.2021 12:06 1,4 C 0,0 C 94 % 1021,5 hPa 0,0 l/m 9,4 km/h (2 Bft) W 263 0 min 0,7 UV-I 105 W/m 0,5 C -1,4 C 16,1 km/h (3 Bft)
17.01.2021 12:08 1,5 C 0,0 C 94 % 1021,4 hPa 0,0 l/m 8,0 km/h (2 Bft) W 262 0 min 0,8 UV-I 169 W/m 0,6 C -0,1 C 12,9 km/h (3 Bft)
17.01.2021 12:10 1,6 C 0,0 C 94 % 1021,4 hPa 0,0 l/m 5,7 km/h (1 Bft) W-SW 252 0 min 0,7 UV-I 165 W/m 0,7 C 1,6 C 12,9 km/h (3 Bft)
17.01.2021 12:12 1,6 C 0,0 C 94 % 1021,4 hPa 0,0 l/m 6,4 km/h (2 Bft) S-SW 211 0 min 0,7 UV-I 128 W/m 0,7 C 1,6 C 9,7 km/h (2 Bft)
17.01.2021 12:14 1,6 C 0,0 C 94 % 1021,4 hPa 0,0 l/m 6,0 km/h (2 Bft) S-SW 207 0 min 0,7 UV-I 135 W/m 0,7 C 1,6 C 8,0 km/h (2 Bft)
17.01.2021 12:16 1,6 C 0,0 C 94 % 1021,4 hPa 0,0 l/m 6,2 km/h (2 Bft) SW 217 0 min 0,7 UV-I 161 W/m 0,7 C 1,6 C 8,0 km/h (2 Bft)
17.01.2021 12:18 1,7 C 0,6 C 94 % 1021,4 hPa 0,0 l/m 3,6 km/h (1 Bft) SW 217 0 min 0,8 UV-I 175 W/m 0,8 C 1,7 C 4,8 km/h (1 Bft)
17.01.2021 12:20 1,7 C 0,6 C 94 % 1021,4 hPa 0,0 l/m 5,1 km/h (1 Bft) SW 221 0 min 0,8 UV-I 180 W/m 0,8 C 1,7 C 8,0 km/h (2 Bft)
17.01.2021 12:22 1,7 C 0,6 C 94 % 1021,5 hPa 0,0 l/m 5,5 km/h (1 Bft) SW 218 0 min 0,8 UV-I 154 W/m 0,8 C 1,7 C 8,0 km/h (2 Bft)
17.01.2021 12:24 1,8 C 0,6 C 94 % 1021,5 hPa 0,0 l/m 5,4 km/h (1 Bft) SW 231 0 min 0,6 UV-I 109 W/m 0,9 C 1,8 C 9,7 km/h (2 Bft)
17.01.2021 12:26 1,7 C 0,6 C 93 % 1021,5 hPa 0,0 l/m 4,0 km/h (1 Bft) SW 231 0 min 0,6 UV-I 97 W/m 0,7 C 1,7 C 6,4 km/h (2 Bft)
17.01.2021 12:28 1,7 C 0,6 C 93 % 1021,5 hPa 0,0 l/m 4,3 km/h (1 Bft) W 263 0 min 0,6 UV-I 114 W/m 0,7 C 1,7 C 11,3 km/h (2 Bft)
17.01.2021 12:30 1,8 C 0,6 C 93 % 1021,5 hPa 0,0 l/m 4,6 km/h (1 Bft) SW 231 0 min 0,7 UV-I 116 W/m 0,8 C 1,8 C 9,7 km/h (2 Bft)
17.01.2021 12:32 1,7 C 0,6 C 93 % 1021,5 hPa 0,0 l/m 6,9 km/h (2 Bft) W-NW 289 0 min 0,7 UV-I 108 W/m 0,7 C 1,2 C 11,3 km/h (2 Bft)
17.01.2021 12:34 1,8 C 0,6 C 94 % 1021,5 hPa 0,0 l/m 5,3 km/h (1 Bft) W-SW 256 0 min 0,7 UV-I 112 W/m 0,9 C 1,8 C 8,0 km/h (2 Bft)
17.01.2021 12:35 1,8 C 0,6 C 93 % 1021,5 hPa 0,0 l/m 8,0 km/h (2 Bft) W 270 0 min 0,8 UV-I 114 W/m 0,8 C 0,2 C 12,9 km/h (3 Bft)
17.01.2021 12:36 1,8 C 0,6 C 94 % 1021,5 hPa 0,0 l/m 6,4 km/h (2 Bft) SW 225 0 min 0,7 UV-I 125 W/m 0,9 C 1,8 C 11,3 km/h (2 Bft)
17.01.2021 12:37 1,8 C 0,6 C 93 % 1021,6 hPa 0,0 l/m 4,8 km/h (1 Bft) W-SW 247 0 min 0,7 UV-I 95 W/m 0,8 C 1,8 C 6,4 km/h (2 Bft)
17.01.2021 12:40 1,8 C 0,6 C 94 % 1021,5 hPa 0,0 l/m 6,5 km/h (2 Bft) W 268 0 min 0,7 UV-I 134 W/m 0,9 C 1,7 C 11,3 km/h (2 Bft)
17.01.2021 12:42 1,9 C 1,1 C 94 % 1021,6 hPa 0,0 l/m 7,9 km/h (2 Bft) W-SW 240 0 min 0,7 UV-I 131 W/m 1,0 C 0,4 C 12,9 km/h (3 Bft)
17.01.2021 12:44 1,9 C 1,1 C 93 % 1021,6 hPa 0,0 l/m 4,9 km/h (1 Bft) W 269 0 min 0,7 UV-I 117 W/m 0,9 C 1,9 C 9,7 km/h (2 Bft)
17.01.2021 12:46 1,8 C 1,1 C 94 % 1021,6 hPa 0,0 l/m 6,5 km/h (2 Bft) W-SW 248 0 min 0,6 UV-I 111 W/m 0,9 C 1,7 C 11,3 km/h (2 Bft)
17.01.2021 12:48 1,8 C 1,1 C 93 % 1021,5 hPa 0,0 l/m 6,3 km/h (2 Bft) SW 233 0 min 0,7 UV-I 134 W/m 0,8 C 1,8 C 12,9 km/h (3 Bft)
17.01.2021 12:50 1,8 C 1,1 C 93 % 1021,6 hPa 0,0 l/m 7,5 km/h (2 Bft) W-SW 246 0 min 0,6 UV-I 110 W/m 0,8 C 0,7 C 11,3 km/h (2 Bft)
17.01.2021 12:52 1,7 C 1,1 C 93 % 1021,5 hPa 0,0 l/m 5,5 km/h (1 Bft) W-SW 253 0 min 0,6 UV-I 110 W/m 0,7 C 1,7 C 8,0 km/h (2 Bft)
17.01.2021 12:54 1,7 C 1,1 C 94 % 1021,5 hPa 0,0 l/m 6,9 km/h (2 Bft) S-SW 202 0 min 0,6 UV-I 106 W/m 0,8 C 1,2 C 14,5 km/h (3 Bft)
17.01.2021 12:56 1,7 C 1,1 C 94 % 1021,4 hPa 0,0 l/m 5,1 km/h (1 Bft) W 259 0 min 0,6 UV-I 98 W/m 0,8 C 1,7 C 11,3 km/h (2 Bft)
17.01.2021 12:58 1,6 C 1,1 C 94 % 1021,5 hPa 0,0 l/m 5,3 km/h (1 Bft) SW 235 0 min 0,7 UV-I 101 W/m 0,7 C 1,6 C 6,4 km/h (2 Bft)
17.01.2021 13:00 1,6 C 1,1 C 94 % 1021,6 hPa 0,0 l/m 7,3 km/h (2 Bft) SW 217 0 min 0,6 UV-I 89 W/m 0,7 C 0,7 C 12,9 km/h (3 Bft)
17.01.2021 13:02 1,6 C 1,1 C 94 % 1021,6 hPa 0,0 l/m 7,5 km/h (2 Bft) W 259 0 min 0,6 UV-I 88 W/m 0,7 C 0,5 C 12,9 km/h (3 Bft)
17.01.2021 13:04 1,6 C 1,1 C 94 % 1021,5 hPa 0,2 l/m 6,2 km/h (2 Bft) SW 220 0 min 0,6 UV-I 73 W/m 0,7 C 1,6 C 14,5 km/h (3 Bft)
17.01.2021 13:06 1,6 C 1,1 C 94 % 1021,6 hPa 0,0 l/m 9,0 km/h (2 Bft) W 265 0 min 0,6 UV-I 84 W/m 0,7 C -0,9 C 16,1 km/h (3 Bft)
17.01.2021 13:08 1,6 C 1,1 C 94 % 1021,6 hPa 0,0 l/m 7,0 km/h (2 Bft) W 263 0 min 0,7 UV-I 104 W/m 0,7 C 1,0 C 11,3 km/h (2 Bft)
17.01.2021 13:10 1,6 C 1,1 C 94 % 1021,6 hPa 0,0 l/m 6,6 km/h (2 Bft) W-SW 250 0 min 0,6 UV-I 103 W/m 0,7 C 1,4 C 11,3 km/h (2 Bft)
17.01.2021 13:12 1,6 C 1,1 C 94 % 1021,6 hPa 0,0 l/m 7,0 km/h (2 Bft) SW 230 0 min 0,6 UV-I 103 W/m 0,7 C 1,0 C 11,3 km/h (2 Bft)
17.01.2021 13:14 1,6 C 1,1 C 94 % 1021,5 hPa 0,0 l/m 6,4 km/h (2 Bft) SW 232 0 min 0,6 UV-I 91 W/m 0,7 C 1,6 C 12,9 km/h (3 Bft)
17.01.2021 13:16 1,5 C 1,1 C 94 % 1021,5 hPa 0,0 l/m 5,0 km/h (1 Bft) W-SW 238 0 min 0,7 UV-I 97 W/m 0,6 C 1,5 C 6,4 km/h (2 Bft)
17.01.2021 13:18 1,4 C 1,1 C 94 % 1021,7 hPa 0,0 l/m 5,7 km/h (1 Bft) SW 229 0 min 0,6 UV-I 96 W/m 0,5 C 1,4 C 12,9 km/h (3 Bft)
17.01.2021 13:20 1,4 C 1,1 C 94 % 1021,7 hPa 0,0 l/m 7,5 km/h (2 Bft) SW 233 0 min 0,6 UV-I 88 W/m 0,5 C 0,3 C 11,3 km/h (2 Bft)
17.01.2021 13:22 1,5 C 1,1 C 94 % 1021,6 hPa 0,0 l/m 6,9 km/h (2 Bft) W 261 0 min 0,6 UV-I 100 W/m 0,6 C 1,0 C 12,9 km/h (3 Bft)
17.01.2021 13:24 1,5 C 1,1 C 94 % 1021,6 hPa 0,0 l/m 7,8 km/h (2 Bft) W 263 0 min 0,6 UV-I 84 W/m 0,6 C 0,1 C 12,9 km/h (3 Bft)
17.01.2021 13:26 1,5 C 1,1 C 94 % 1021,6 hPa 0,0 l/m 7,5 km/h (2 Bft) W 269 0 min 0,6 UV-I 80 W/m 0,6 C 0,4 C 12,9 km/h (3 Bft)
17.01.2021 13:28 1,6 C 1,1 C 94 % 1021,6 hPa 0,0 l/m 9,2 km/h (2 Bft) W-SW 249 0 min 0,7 UV-I 106 W/m 0,7 C -1,0 C 12,9 km/h (3 Bft)
17.01.2021 13:30 1,6 C 1,1 C 94 % 1021,7 hPa 0,0 l/m 7,2 km/h (2 Bft) W-SW 249 0 min 0,6 UV-I 105 W/m 0,7 C 0,8 C 16,1 km/h (3 Bft)
17.01.2021 13:32 1,6 C 1,1 C 94 % 1021,6 hPa 0,0 l/m 10,2 km/h (2 Bft) W-SW 253 0 min 0,6 UV-I 110 W/m 0,7 C -1,8 C 17,7 km/h (3 Bft)
17.01.2021 13:34 1,6 C 1,1 C 94 % 1021,7 hPa 0,0 l/m 5,4 km/h (1 Bft) W 279 0 min 0,7 UV-I 137 W/m 0,7 C 1,6 C 12,9 km/h (3 Bft)
17.01.2021 13:36 1,7 C 1,1 C 94 % 1021,6 hPa 0,0 l/m 6,5 km/h (2 Bft) W-SW 240 0 min 0,7 UV-I 138 W/m 0,8 C 1,6 C 12,9 km/h (3 Bft)
17.01.2021 13:38 1,7 C 1,1 C 94 % 1021,7 hPa 0,0 l/m 6,0 km/h (2 Bft) SW 231 0 min 0,7 UV-I 126 W/m 0,8 C 1,7 C 11,3 km/h (2 Bft)
17.01.2021 13:40 1,7 C 1,1 C 94 % 1021,6 hPa 0,0 l/m 7,4 km/h (2 Bft) W-SW 252 0 min 0,5 UV-I 97 W/m 0,8 C 0,7 C 14,5 km/h (3 Bft)
17.01.2021 13:42 1,7 C 1,1 C 94 % 1021,7 hPa 0,0 l/m 9,0 km/h (2 Bft) W 261 0 min 0,6 UV-I 97 W/m 0,8 C -0,8 C 12,9 km/h (3 Bft)
17.01.2021 13:44 1,7 C 1,1 C 94 % 1021,7 hPa 0,0 l/m 4,3 km/h (1 Bft) W-NW 285 0 min 0,6 UV-I 105 W/m 0,8 C 1,7 C 6,4 km/h (2 Bft)
17.01.2021 13:46 1,7 C 1,1 C 94 % 1021,6 hPa 0,0 l/m 4,8 km/h (1 Bft) W-SW 255 0 min 0,6 UV-I 108 W/m 0,8 C 1,7 C 9,7 km/h (2 Bft)
17.01.2021 13:48 1,8 C 1,1 C 94 % 1021,6 hPa 0,0 l/m 9,8 km/h (2 Bft) W 264 0 min 0,6 UV-I 136 W/m 0,9 C -1,3 C 17,7 km/h (3 Bft)
17.01.2021 13:50 1,8 C 1,1 C 94 % 1021,7 hPa 0,0 l/m 7,4 km/h (2 Bft) W-SW 250 0 min 0,5 UV-I 98 W/m 0,9 C 0,8 C 11,3 km/h (2 Bft)
17.01.2021 13:52 1,8 C 1,1 C 94 % 1021,7 hPa 0,0 l/m 8,7 km/h (2 Bft) W-NW 284 0 min 0,5 UV-I 85 W/m 0,9 C -0,4 C 16,1 km/h (3 Bft)
17.01.2021 13:54 1,8 C 1,1 C 94 % 1021,8 hPa 0,0 l/m 9,3 km/h (2 Bft) W 277 0 min 0,5 UV-I 97 W/m 0,9 C -0,9 C 12,9 km/h (3 Bft)
17.01.2021 13:56 1,8 C 1,1 C 94 % 1021,7 hPa 0,0 l/m 5,9 km/h (2 Bft) W-SW 250 0 min 0,6 UV-I 94 W/m 0,9 C 1,8 C 11,3 km/h (2 Bft)
17.01.2021 13:58 1,8 C 1,1 C 94 % 1021,8 hPa 0,0 l/m 5,3 km/h (1 Bft) W 277 0 min 0,6 UV-I 96 W/m 0,9 C 1,8 C 12,9 km/h (3 Bft)
17.01.2021 14:00 1,8 C 1,1 C 94 % 1021,8 hPa 0,0 l/m 6,7 km/h (2 Bft) W 269 0 min 0,7 UV-I 108 W/m 0,9 C 1,5 C 11,3 km/h (2 Bft)
17.01.2021 14:02 1,8 C 1,1 C 94 % 1021,8 hPa 0,0 l/m 5,1 km/h (1 Bft) W 259 0 min 0,7 UV-I 130 W/m 0,9 C 1,8 C 8,0 km/h (2 Bft)
17.01.2021 14:04 1,7 C 1,1 C 94 % 1021,8 hPa 0,0 l/m 6,7 km/h (2 Bft) W-SW 250 0 min 0,6 UV-I 120 W/m 0,8 C 1,4 C 11,3 km/h (2 Bft)
17.01.2021 14:06 1,7 C 1,1 C 94 % 1021,8 hPa 0,2 l/m 7,6 km/h (2 Bft) W 267 0 min 0,6 UV-I 97 W/m 0,8 C 0,5 C 17,7 km/h (3 Bft)
17.01.2021 14:08 1,7 C 1,1 C 94 % 1021,8 hPa 0,0 l/m 7,7 km/h (2 Bft) W 261 0 min 0,7 UV-I 92 W/m 0,8 C 0,4 C 12,9 km/h (3 Bft)
17.01.2021 14:10 1,6 C 1,1 C 94 % 1021,8 hPa 0,0 l/m 6,9 km/h (2 Bft) W 269 0 min 0,7 UV-I 110 W/m 0,7 C 1,1 C 12,9 km/h (3 Bft)
17.01.2021 14:12 1,6 C 1,1 C 94 % 1021,7 hPa 0,0 l/m 3,9 km/h (1 Bft) W-SW 249 0 min 0,8 UV-I 179 W/m 0,7 C 1,6 C 8,0 km/h (2 Bft)
17.01.2021 14:14 1,6 C 1,7 C 94 % 1021,8 hPa 0,0 l/m 1,3 km/h (1 Bft) W-SW 249 0 min 0,7 UV-I 175 W/m 0,7 C 1,6 C 3,2 km/h (1 Bft)
17.01.2021 14:16 1,6 C 1,7 C 94 % 1021,9 hPa 0,0 l/m 2,1 km/h (1 Bft) W-SW 249 0 min 0,6 UV-I 98 W/m 0,7 C 1,6 C 4,8 km/h (1 Bft)
17.01.2021 14:18 1,6 C 1,1 C 94 % 1021,8 hPa 0,0 l/m 1,9 km/h (1 Bft) W 273 0 min 0,3 UV-I 58 W/m 0,7 C 1,6 C 6,4 km/h (2 Bft)
17.01.2021 14:20 1,6 C 1,1 C 94 % 1021,8 hPa 0,0 l/m 2,0 km/h (1 Bft) W-NW 291 0 min 0,0 UV-I 46 W/m 0,7 C 1,6 C 4,8 km/h (1 Bft)
17.01.2021 14:22 1,7 C 1,1 C 94 % 1021,8 hPa 0,0 l/m 2,8 km/h (1 Bft) W 264 0 min 0,3 UV-I 70 W/m 0,8 C 1,7 C 6,4 km/h (2 Bft)
17.01.2021 14:24 1,7 C 1,1 C 94 % 1021,9 hPa 0,0 l/m 4,3 km/h (1 Bft) W-SW 256 0 min 0,5 UV-I 73 W/m 0,8 C 1,7 C 9,7 km/h (2 Bft)
17.01.2021 14:26 1,8 C 1,1 C 94 % 1021,9 hPa 0,0 l/m 4,8 km/h (1 Bft) N-NW 346 0 min 0,5 UV-I 92 W/m 0,9 C 1,8 C 9,7 km/h (2 Bft)
17.01.2021 14:28 1,8 C 1,1 C 94 % 1021,9 hPa 0,0 l/m 6,5 km/h (2 Bft) W-SW 254 0 min 0,6 UV-I 99 W/m 0,9 C 1,7 C 12,9 km/h (3 Bft)
17.01.2021 14:30 1,8 C 1,1 C 94 % 1021,9 hPa 0,0 l/m 8,1 km/h (2 Bft) W-NW 292 0 min 0,6 UV-I 120 W/m 0,9 C 0,2 C 14,5 km/h (3 Bft)
17.01.2021 14:32 1,8 C 1,1 C 94 % 1022,0 hPa 0,0 l/m 7,4 km/h (2 Bft) W 268 0 min 0,5 UV-I 112 W/m 0,9 C 0,8 C 12,9 km/h (3 Bft)
17.01.2021 14:34 1,8 C 1,1 C 94 % 1022,1 hPa 0,0 l/m 6,3 km/h (2 Bft) W 273 0 min 0,0 UV-I 84 W/m 0,9 C 1,8 C 14,5 km/h (3 Bft)
17.01.2021 14:36 1,7 C 1,1 C 94 % 1022,1 hPa 0,0 l/m 7,4 km/h (2 Bft) W 269 0 min 0,0 UV-I 79 W/m 0,8 C 0,7 C 14,5 km/h (3 Bft)
17.01.2021 14:38 1,7 C 1,1 C 93 % 1022,0 hPa 0,0 l/m 4,5 km/h (1 Bft) W 270 0 min 0,3 UV-I 88 W/m 0,7 C 1,7 C 6,4 km/h (2 Bft)
17.01.2021 14:40 1,6 C 1,1 C 94 % 1022,1 hPa 0,2 l/m 8,0 km/h (2 Bft) W 269 0 min 0,6 UV-I 103 W/m 0,7 C 0,0 C 14,5 km/h (3 Bft)
17.01.2021 14:42 1,6 C 1,1 C 94 % 1022,1 hPa 0,0 l/m 5,1 km/h (1 Bft) SW 232 0 min 0,5 UV-I 90 W/m 0,7 C 1,6 C 11,3 km/h (2 Bft)
17.01.2021 14:44 1,7 C 1,1 C 94 % 1022,2 hPa 0,0 l/m 6,5 km/h (2 Bft) W 261 0 min 0,5 UV-I 123 W/m 0,8 C 1,6 C 16,1 km/h (3 Bft)
17.01.2021 14:46 1,7 C 1,1 C 94 % 1022,2 hPa 0,0 l/m 6,5 km/h (2 Bft) W 261 0 min 0,2 UV-I 98 W/m 0,8 C 1,6 C 11,3 km/h (2 Bft)
17.01.2021 14:48 1,8 C 1,1 C 94 % 1022,2 hPa 0,0 l/m 5,0 km/h (1 Bft) W 265 0 min 0,0 UV-I 88 W/m 0,9 C 1,8 C 11,3 km/h (2 Bft)
17.01.2021 14:50 1,8 C 1,1 C 94 % 1022,4 hPa 0,0 l/m 3,5 km/h (1 Bft) W-SW 251 0 min 0,2 UV-I 100 W/m 0,9 C 1,8 C 6,4 km/h (2 Bft)
17.01.2021 14:52 1,8 C 1,1 C 94 % 1022,5 hPa 0,0 l/m 7,0 km/h (2 Bft) SW 234 0 min 0,0 UV-I 82 W/m 0,9 C 1,2 C 11,3 km/h (2 Bft)
17.01.2021 14:54 1,8 C 1,1 C 93 % 1022,4 hPa 0,0 l/m 6,7 km/h (2 Bft) W-SW 256 0 min 0,2 UV-I 77 W/m 0,8 C 1,5 C 11,3 km/h (2 Bft)
17.01.2021 14:56 1,8 C 1,1 C 94 % 1022,4 hPa 0,0 l/m 5,1 km/h (1 Bft) W 279 0 min 0,5 UV-I 88 W/m 0,9 C 1,8 C 9,7 km/h (2 Bft)
17.01.2021 14:58 1,8 C 1,1 C 94 % 1022,5 hPa 0,0 l/m 9,3 km/h (2 Bft) W-NW 284 0 min 0,5 UV-I 120 W/m 0,9 C -0,9 C 16,1 km/h (3 Bft)
17.01.2021 15:00 1,9 C 1,7 C 94 % 1022,4 hPa 0,0 l/m 4,8 km/h (1 Bft) W-NW 287 0 min 0,6 UV-I 133 W/m 1,0 C 1,9 C 11,3 km/h (2 Bft)
17.01.2021 15:02 1,9 C 1,7 C 94 % 1022,5 hPa 0,0 l/m 5,3 km/h (1 Bft) W 277 0 min 0,5 UV-I 130 W/m 1,0 C 1,9 C 11,3 km/h (2 Bft)
17.01.2021 15:04 1,9 C 1,7 C 94 % 1022,5 hPa 0,0 l/m 8,0 km/h (2 Bft) W 259 0 min 0,4 UV-I 101 W/m 1,0 C 0,3 C 16,1 km/h (3 Bft)
17.01.2021 15:06 1,9 C 1,7 C 93 % 1022,5 hPa 0,0 l/m 9,4 km/h (2 Bft) W-SW 247 0 min 0,0 UV-I 104 W/m 0,9 C -0,9 C 14,5 km/h (3 Bft)
17.01.2021 15:08 1,9 C 1,1 C 93 % 1022,5 hPa 0,0 l/m 8,1 km/h (2 Bft) W 261 0 min 0,1 UV-I 96 W/m 0,9 C 0,3 C 12,9 km/h (3 Bft)
17.01.2021 15:10 1,9 C 1,7 C 93 % 1022,5 hPa 0,0 l/m 5,7 km/h (1 Bft) W 281 0 min 0,5 UV-I 131 W/m 0,9 C 1,9 C 11,3 km/h (2 Bft)
17.01.2021 15:12 1,9 C 1,7 C 93 % 1022,6 hPa 0,0 l/m 4,4 km/h (1 Bft) W-SW 251 0 min 0,5 UV-I 120 W/m 0,9 C 1,9 C 8,0 km/h (2 Bft)
17.01.2021 15:14 2,0 C 1,7 C 93 % 1022,6 hPa 0,0 l/m 6,4 km/h (2 Bft) W-SW 238 0 min 0,5 UV-I 110 W/m 1,0 C 2,0 C 9,7 km/h (2 Bft)
17.01.2021 15:16 1,9 C 1,7 C 93 % 1022,5 hPa 0,0 l/m 4,3 km/h (1 Bft) W 262 0 min 0,1 UV-I 66 W/m 0,9 C 1,9 C 11,3 km/h (2 Bft)
17.01.2021 15:18 1,9 C 1,7 C 93 % 1022,6 hPa 0,0 l/m 5,8 km/h (2 Bft) W 259 0 min 0,0 UV-I 56 W/m 0,9 C 1,9 C 12,9 km/h (3 Bft)
17.01.2021 15:20 2,0 C 1,1 C 93 % 1022,6 hPa 0,0 l/m 4,5 km/h (1 Bft) W-SW 257 0 min 0,0 UV-I 80 W/m 1,0 C 2,0 C 8,0 km/h (2 Bft)
17.01.2021 15:22 1,9 C 1,1 C 93 % 1022,6 hPa 0,0 l/m 9,9 km/h (2 Bft) W-NW 283 0 min 0,0 UV-I 81 W/m 0,9 C -1,3 C 14,5 km/h (3 Bft)
17.01.2021 15:24 1,9 C 1,1 C 93 % 1022,6 hPa 0,0 l/m 7,2 km/h (2 Bft) W 269 0 min 0,0 UV-I 67 W/m 0,9 C 1,1 C 11,3 km/h (2 Bft)
17.01.2021 15:26 1,9 C 1,1 C 93 % 1022,8 hPa 0,0 l/m 4,5 km/h (1 Bft) W-SW 257 0 min 0,0 UV-I 63 W/m 0,9 C 1,9 C 9,7 km/h (2 Bft)
17.01.2021 15:28 1,9 C 1,1 C 93 % 1022,7 hPa 0,0 l/m 7,5 km/h (2 Bft) W 259 0 min 0,0 UV-I 45 W/m 0,9 C 0,8 C 12,9 km/h (3 Bft)
17.01.2021 15:30 1,8 C 1,1 C 93 % 1022,9 hPa 0,0 l/m 5,2 km/h (1 Bft) SW 229 0 min 0,0 UV-I 43 W/m 0,8 C 1,8 C 11,3 km/h (2 Bft)
17.01.2021 15:32 1,7 C 1,1 C 93 % 1022,8 hPa 0,0 l/m 4,6 km/h (1 Bft) W-SW 254 0 min 0,0 UV-I 46 W/m 0,7 C 1,7 C 9,7 km/h (2 Bft)
17.01.2021 15:34 1,7 C 1,1 C 93 % 1022,9 hPa 0,0 l/m 5,0 km/h (1 Bft) W-SW 238 0 min 0,0 UV-I 71 W/m 0,7 C 1,7 C 9,7 km/h (2 Bft)
17.01.2021 15:36 1,7 C 1,1 C 93 % 1022,9 hPa 0,0 l/m 5,9 km/h (2 Bft) W 278 0 min 0,0 UV-I 72 W/m 0,7 C 1,7 C 11,3 km/h (2 Bft)
17.01.2021 15:38 1,7 C 1,1 C 93 % 1022,9 hPa 0,0 l/m 5,5 km/h (1 Bft) W 266 0 min 0,0 UV-I 73 W/m 0,7 C 1,7 C 9,7 km/h (2 Bft)
17.01.2021 15:40 1,8 C 1,1 C 93 % 1022,9 hPa 0,0 l/m 6,7 km/h (2 Bft) W-NW 286 0 min 0,0 UV-I 57 W/m 0,8 C 1,5 C 11,3 km/h (2 Bft)
17.01.2021 15:42 1,8 C 1,1 C 93 % 1022,8 hPa 0,0 l/m 4,1 km/h (1 Bft) W-SW 256 0 min 0,0 UV-I 42 W/m 0,8 C 1,8 C 6,4 km/h (2 Bft)
17.01.2021 15:44 1,8 C 1,1 C 93 % 1023,0 hPa 0,0 l/m 4,6 km/h (1 Bft) W 262 0 min 0,0 UV-I 59 W/m 0,8 C 1,8 C 8,0 km/h (2 Bft)
17.01.2021 15:46 1,7 C 1,1 C 93 % 1022,9 hPa 0,0 l/m 8,1 km/h (2 Bft) W 265 0 min 0,0 UV-I 44 W/m 0,7 C 0,0 C 12,9 km/h (3 Bft)
17.01.2021 15:48 1,7 C 1,1 C 93 % 1022,9 hPa 0,0 l/m 4,9 km/h (1 Bft) W-SW 248 0 min 0,0 UV-I 34 W/m 0,7 C 1,7 C 9,7 km/h (2 Bft)
17.01.2021 15:50 1,7 C 1,1 C 93 % 1022,9 hPa 0,0 l/m 3,9 km/h (1 Bft) W-SW 243 0 min 0,0 UV-I 30 W/m 0,7 C 1,7 C 6,4 km/h (2 Bft)
17.01.2021 15:52 1,7 C 1,1 C 93 % 1023,0 hPa 0,0 l/m 4,6 km/h (1 Bft) W 261 0 min 0,0 UV-I 29 W/m 0,7 C 1,7 C 6,4 km/h (2 Bft)
17.01.2021 15:54 1,7 C 0,6 C 93 % 1023,0 hPa 0,0 l/m 3,3 km/h (1 Bft) W 279 0 min 0,0 UV-I 44 W/m 0,7 C 1,7 C 6,4 km/h (2 Bft)
17.01.2021 15:56 1,7 C 1,1 C 93 % 1023,0 hPa 0,0 l/m 3,5 km/h (1 Bft) W-SW 255 0 min 0,0 UV-I 56 W/m 0,7 C 1,7 C 4,8 km/h (1 Bft)
17.01.2021 15:58 1,7 C 1,1 C 93 % 1023,1 hPa 0,0 l/m 2,4 km/h (1 Bft) W 271 0 min 0,0 UV-I 45 W/m 0,7 C 1,7 C 6,4 km/h (2 Bft)
17.01.2021 16:00 1,7 C 1,1 C 93 % 1023,2 hPa 0,0 l/m 3,7 km/h (1 Bft) W 264 0 min 0,0 UV-I 27 W/m 0,7 C 1,7 C 9,7 km/h (2 Bft)
17.01.2021 16:02 1,7 C 0,6 C 93 % 1023,2 hPa 0,0 l/m 3,1 km/h (1 Bft) W 263 0 min 0,0 UV-I 21 W/m 0,7 C 1,7 C 4,8 km/h (1 Bft)
17.01.2021 16:04 1,7 C 0,6 C 93 % 1023,2 hPa 0,0 l/m 2,1 km/h (1 Bft) W 269 0 min 0,0 UV-I 19 W/m 0,7 C 1,7 C 6,4 km/h (2 Bft)
17.01.2021 16:06 1,7 C 0,6 C 93 % 1023,3 hPa 0,0 l/m 4,0 km/h (1 Bft) W-SW 247 0 min 0,0 UV-I 18 W/m 0,7 C 1,7 C 6,4 km/h (2 Bft)
17.01.2021 16:08 1,7 C 0,6 C 93 % 1023,4 hPa 0,0 l/m 4,9 km/h (1 Bft) W-NW 286 0 min 0,0 UV-I 21 W/m 0,7 C 1,7 C 9,7 km/h (2 Bft)
17.01.2021 16:10 1,6 C 0,6 C 93 % 1023,3 hPa 0,0 l/m 5,0 km/h (1 Bft) W 261 0 min 0,0 UV-I 20 W/m 0,6 C 1,6 C 9,7 km/h (2 Bft)
17.01.2021 16:12 1,6 C 0,6 C 93 % 1023,5 hPa 0,0 l/m 7,2 km/h (2 Bft) W 275 0 min 0,0 UV-I 21 W/m 0,6 C 0,8 C 12,9 km/h (3 Bft)
17.01.2021 16:14 1,6 C 0,6 C 93 % 1023,4 hPa 0,0 l/m 2,1 km/h (1 Bft) W-NW 288 0 min 0,0 UV-I 25 W/m 0,6 C 1,6 C 6,4 km/h (2 Bft)
17.01.2021 16:16 1,6 C 0,6 C 93 % 1023,4 hPa 0,2 l/m 1,7 km/h (1 Bft) W-NW 284 0 min 0,0 UV-I 34 W/m 0,6 C 1,6 C 4,8 km/h (1 Bft)
17.01.2021 16:18 1,5 C 0,6 C 93 % 1023,5 hPa 0,0 l/m 2,8 km/h (1 Bft) W-SW 246 0 min 0,0 UV-I 50 W/m 0,5 C 1,5 C 4,8 km/h (1 Bft)
17.01.2021 16:20 1,5 C 0,6 C 94 % 1023,5 hPa 0,0 l/m 1,6 km/h (1 Bft) W-SW 246 0 min 0,0 UV-I 47 W/m 0,6 C 1,5 C 3,2 km/h (1 Bft)
17.01.2021 16:22 1,4 C 0,6 C 93 % 1023,5 hPa 0,0 l/m 0,5 km/h (0 Bft) W-SW 246 0 min 0,0 UV-I 29 W/m 0,4 C 1,4 C 3,2 km/h (1 Bft)
17.01.2021 16:24 1,5 C 0,6 C 94 % 1023,5 hPa 0,0 l/m 1,1 km/h (1 Bft) W-SW 246 0 min 0,0 UV-I 23 W/m 0,6 C 1,5 C 3,2 km/h (1 Bft)
17.01.2021 16:26 1,4 C 0,6 C 94 % 1023,5 hPa 0,0 l/m 0,3 km/h (0 Bft) W-SW 246 0 min 0,0 UV-I 24 W/m 0,5 C 1,4 C 1,6 km/h (1 Bft)
17.01.2021 16:28 1,4 C 0,6 C 94 % 1023,5 hPa 0,0 l/m 0,9 km/h (0 Bft) W-SW 239 0 min 0,0 UV-I 21 W/m 0,5 C 1,4 C 3,2 km/h (1 Bft)
17.01.2021 16:30 1,4 C 0,6 C 94 % 1023,5 hPa 0,0 l/m 1,8 km/h (1 Bft) W-SW 239 0 min 0,0 UV-I 18 W/m 0,5 C 1,4 C 4,8 km/h (1 Bft)
17.01.2021 16:32 1,4 C 0,6 C 94 % 1023,5 hPa 0,0 l/m 0,0 km/h (0 Bft) W-SW 239 0 min 0,0 UV-I 13 W/m 0,5 C 1,4 C 0,0 km/h (0 Bft)
17.01.2021 16:34 1,4 C 0,6 C 94 % 1023,5 hPa 0,0 l/m 0,3 km/h (0 Bft) W-SW 239 0 min 0,0 UV-I 11 W/m 0,5 C 1,4 C 1,6 km/h (1 Bft)
17.01.2021 16:36 1,4 C 0,6 C 94 % 1023,6 hPa 0,0 l/m 3,4 km/h (1 Bft) W-SW 256 0 min 0,0 UV-I 9 W/m 0,5 C 1,4 C 6,4 km/h (2 Bft)
17.01.2021 16:38 1,4 C 0,6 C 94 % 1023,5 hPa 0,0 l/m 1,8 km/h (1 Bft) W-SW 256 0 min 0,0 UV-I 10 W/m 0,5 C 1,4 C 3,2 km/h (1 Bft)
17.01.2021 16:40 1,4 C 0,6 C 94 % 1023,6 hPa 0,0 l/m 3,4 km/h (1 Bft) W-SW 256 0 min 0,0 UV-I 8 W/m 0,5 C 1,4 C 6,4 km/h (2 Bft)
17.01.2021 16:42 1,4 C 0,6 C 94 % 1023,6 hPa 0,0 l/m 3,4 km/h (1 Bft) W-SW 256 0 min 0,0 UV-I 8 W/m 0,5 C 1,4 C 4,8 km/h (1 Bft)
17.01.2021 16:44 1,4 C 0,6 C 94 % 1023,7 hPa 0,0 l/m 3,2 km/h (1 Bft) W-SW 256 0 min 0,0 UV-I 7 W/m 0,5 C 1,4 C 4,8 km/h (1 Bft)
17.01.2021 16:46 1,4 C 0,6 C 94 % 1023,8 hPa 0,0 l/m 2,9 km/h (1 Bft) W-SW 256 0 min 0,0 UV-I 5 W/m 0,5 C 1,4 C 4,8 km/h (1 Bft)
17.01.2021 16:48 1,4 C 0,6 C 94 % 1023,8 hPa 0,0 l/m 2,7 km/h (1 Bft) W-SW 256 0 min 0,0 UV-I 5 W/m 0,5 C 1,4 C 4,8 km/h (1 Bft)
17.01.2021 16:50 1,4 C 0,6 C 94 % 1023,7 hPa 0,0 l/m 2,6 km/h (1 Bft) W-SW 256 0 min 0,0 UV-I 5 W/m 0,5 C 1,4 C 4,8 km/h (1 Bft)
17.01.2021 16:52 1,4 C 0,6 C 94 % 1023,7 hPa 0,0 l/m 3,0 km/h (1 Bft) W-SW 256 0 min 0,0 UV-I 0 W/m 0,5 C 1,4 C 4,8 km/h (1 Bft)
17.01.2021 16:54 1,5 C 0,6 C 94 % 1023,7 hPa 0,0 l/m 2,6 km/h (1 Bft) W-SW 256 0 min 0,0 UV-I 0 W/m 0,6 C 1,5 C 4,8 km/h (1 Bft)
17.01.2021 16:56 1,4 C 0,6 C 94 % 1023,8 hPa 0,0 l/m 4,0 km/h (1 Bft) W-SW 254 0 min 0,0 UV-I 0 W/m 0,5 C 1,4 C 6,4 km/h (2 Bft)
17.01.2021 16:58 1,4 C 0,6 C 94 % 1023,9 hPa 0,0 l/m 3,0 km/h (1 Bft) W-SW 252 0 min 0,0 UV-I 0 W/m 0,5 C 1,4 C 4,8 km/h (1 Bft)
17.01.2021 17:00 1,4 C 0,6 C 94 % 1023,8 hPa 0,0 l/m 5,6 km/h (1 Bft) W-SW 253 0 min 0,0 UV-I 0 W/m 0,5 C 1,4 C 9,7 km/h (2 Bft)
17.01.2021 17:02 1,4 C 0,6 C 94 % 1024,0 hPa 0,0 l/m 3,9 km/h (1 Bft) SW 227 0 min 0,0 UV-I 0 W/m 0,5 C 1,4 C 8,0 km/h (2 Bft)
17.01.2021 17:04 1,4 C 0,6 C 94 % 1023,9 hPa 0,0 l/m 5,7 km/h (1 Bft) W 259 0 min 0,0 UV-I 0 W/m 0,5 C 1,4 C 9,7 km/h (2 Bft)
17.01.2021 17:06 1,4 C 0,6 C 94 % 1024,0 hPa 0,0 l/m 4,9 km/h (1 Bft) W-SW 240 0 min 0,0 UV-I 0 W/m 0,5 C 1,4 C 9,7 km/h (2 Bft)
17.01.2021 17:08 1,4 C 0,6 C 94 % 1024,0 hPa 0,0 l/m 5,1 km/h (1 Bft) W 265 0 min 0,0 UV-I 0 W/m 0,5 C 1,4 C 9,7 km/h (2 Bft)
17.01.2021 17:10 1,4 C 0,6 C 94 % 1024,0 hPa 0,0 l/m 3,9 km/h (1 Bft) W-SW 237 0 min 0,0 UV-I 0 W/m 0,5 C 1,4 C 6,4 km/h (2 Bft)
17.01.2021 17:12 1,4 C 0,6 C 94 % 1024,2 hPa 0,0 l/m 4,1 km/h (1 Bft) SW 236 0 min 0,0 UV-I 0 W/m 0,5 C 1,4 C 6,4 km/h (2 Bft)
17.01.2021 17:14 1,4 C 0,6 C 94 % 1024,2 hPa 0,0 l/m 6,0 km/h (2 Bft) W-SW 240 0 min 0,0 UV-I 0 W/m 0,5 C 1,4 C 11,3 km/h (2 Bft)
17.01.2021 17:16 1,4 C 0,6 C 94 % 1024,3 hPa 0,0 l/m 5,2 km/h (1 Bft) W 269 0 min 0,0 UV-I 0 W/m 0,5 C 1,4 C 9,7 km/h (2 Bft)
17.01.2021 17:18 1,4 C 0,6 C 94 % 1024,2 hPa 0,0 l/m 4,2 km/h (1 Bft) W-SW 255 0 min 0,0 UV-I 0 W/m 0,5 C 1,4 C 6,4 km/h (2 Bft)
17.01.2021 17:20 1,4 C 0,6 C 94 % 1024,2 hPa 0,0 l/m 3,3 km/h (1 Bft) W-SW 255 0 min 0,0 UV-I 0 W/m 0,5 C 1,4 C 4,8 km/h (1 Bft)
17.01.2021 17:22 1,4 C 0,6 C 94 % 1024,3 hPa 0,0 l/m 2,6 km/h (1 Bft) W-SW 255 0 min 0,0 UV-I 0 W/m 0,5 C 1,4 C 4,8 km/h (1 Bft)
17.01.2021 17:24 1,4 C 0,6 C 94 % 1024,3 hPa 0,0 l/m 2,8 km/h (1 Bft) W-SW 255 0 min 0,0 UV-I 0 W/m 0,5 C 1,4 C 4,8 km/h (1 Bft)
17.01.2021 17:26 1,4 C 0,6 C 94 % 1024,3 hPa 0,0 l/m 2,4 km/h (1 Bft) W-SW 255 0 min 0,0 UV-I 0 W/m 0,5 C 1,4 C 3,2 km/h (1 Bft)
17.01.2021 17:28 1,3 C 0,6 C 94 % 1024,3 hPa 0,0 l/m 0,8 km/h (0 Bft) W-SW 255 0 min 0,0 UV-I 0 W/m 0,4 C 1,3 C 3,2 km/h (1 Bft)
17.01.2021 17:30 1,3 C 0,0 C 94 % 1024,4 hPa 0,0 l/m 0,3 km/h (0 Bft) W-SW 255 0 min 0,0 UV-I 0 W/m 0,4 C 1,3 C 3,2 km/h (1 Bft)
17.01.2021 17:32 1,3 C 0,0 C 94 % 1024,4 hPa 0,0 l/m 1,7 km/h (1 Bft) W-SW 255 0 min 0,0 UV-I 0 W/m 0,4 C 1,3 C 3,2 km/h (1 Bft)
17.01.2021 17:34 1,3 C 0,0 C 94 % 1024,4 hPa 0,0 l/m 2,2 km/h (1 Bft) W-SW 255 0 min 0,0 UV-I 0 W/m 0,4 C 1,3 C 4,8 km/h (1 Bft)
17.01.2021 17:36 1,3 C 0,0 C 94 % 1024,4 hPa 0,0 l/m 3,4 km/h (1 Bft) W-SW 255 0 min 0,0 UV-I 0 W/m 0,4 C 1,3 C 4,8 km/h (1 Bft)
17.01.2021 17:38 1,3 C 0,0 C 94 % 1024,5 hPa 0,0 l/m 4,0 km/h (1 Bft) SW 230 0 min 0,0 UV-I 0 W/m 0,4 C 1,3 C 9,7 km/h (2 Bft)
17.01.2021 17:40 1,3 C 0,0 C 94 % 1024,4 hPa 0,0 l/m 4,8 km/h (1 Bft) SW 234 0 min 0,0 UV-I 0 W/m 0,4 C 1,3 C 9,7 km/h (2 Bft)
17.01.2021 17:42 1,3 C 0,0 C 94 % 1024,5 hPa 0,0 l/m 3,2 km/h (1 Bft) SW 234 0 min 0,0 UV-I 0 W/m 0,4 C 1,3 C 4,8 km/h (1 Bft)
17.01.2021 17:44 1,3 C 0,0 C 94 % 1024,5 hPa 0,0 l/m 3,5 km/h (1 Bft) SW 234 0 min 0,0 UV-I 0 W/m 0,4 C 1,3 C 4,8 km/h (1 Bft)
17.01.2021 17:46 1,3 C 0,0 C 94 % 1024,5 hPa 0,0 l/m 5,4 km/h (1 Bft) W-SW 238 0 min 0,0 UV-I 0 W/m 0,4 C 1,3 C 9,7 km/h (2 Bft)
17.01.2021 17:48 1,3 C 0,6 C 94 % 1024,6 hPa 0,0 l/m 4,9 km/h (1 Bft) W 267 0 min 0,0 UV-I 0 W/m 0,4 C 1,3 C 9,7 km/h (2 Bft)
17.01.2021 17:50 1,3 C 0,6 C 94 % 1024,5 hPa 0,0 l/m 6,5 km/h (2 Bft) W 265 0 min 0,0 UV-I 0 W/m 0,4 C 1,2 C 9,7 km/h (2 Bft)
17.01.2021 17:52 1,3 C 0,6 C 94 % 1024,5 hPa 0,0 l/m 5,8 km/h (2 Bft) W-NW 286 0 min 0,0 UV-I 0 W/m 0,4 C 1,3 C 11,3 km/h (2 Bft)
17.01.2021 17:54 1,3 C 0,6 C 94 % 1024,6 hPa 0,0 l/m 5,7 km/h (1 Bft) SW 229 0 min 0,0 UV-I 0 W/m 0,4 C 1,3 C 8,0 km/h (2 Bft)
17.01.2021 17:56 1,3 C 0,6 C 94 % 1024,6 hPa 0,0 l/m 5,5 km/h (1 Bft) SW 236 0 min 0,0 UV-I 0 W/m 0,4 C 1,3 C 11,3 km/h (2 Bft)
17.01.2021 17:58 1,3 C 0,6 C 94 % 1024,6 hPa 0,0 l/m 7,4 km/h (2 Bft) W-SW 251 0 min 0,0 UV-I 0 W/m 0,4 C 0,3 C 12,9 km/h (3 Bft)
17.01.2021 18:00 1,3 C 0,6 C 94 % 1024,6 hPa 0,0 l/m 6,9 km/h (2 Bft) W 259 0 min 0,0 UV-I 0 W/m 0,4 C 0,8 C 11,3 km/h (2 Bft)
17.01.2021 18:02 1,3 C 0,6 C 94 % 1024,8 hPa 0,0 l/m 6,1 km/h (2 Bft) W-SW 254 0 min 0,0 UV-I 0 W/m 0,4 C 1,3 C 8,0 km/h (2 Bft)
17.01.2021 18:04 1,3 C 0,6 C 94 % 1024,8 hPa 0,0 l/m 6,0 km/h (2 Bft) W-SW 240 0 min 0,0 UV-I 0 W/m 0,4 C 1,3 C 9,7 km/h (2 Bft)
17.01.2021 18:06 1,3 C 0,6 C 94 % 1024,8 hPa 0,0 l/m 6,9 km/h (2 Bft) W-SW 240 0 min 0,0 UV-I 0 W/m 0,4 C 0,8 C 12,9 km/h (3 Bft)
17.01.2021 18:08 1,3 C 0,6 C 94 % 1024,8 hPa 0,0 l/m 7,7 km/h (2 Bft) SW 215 0 min 0,0 UV-I 0 W/m 0,4 C 0,0 C 12,9 km/h (3 Bft)
17.01.2021 18:10 1,3 C 0,6 C 94 % 1024,8 hPa 0,0 l/m 7,1 km/h (2 Bft) SW 232 0 min 0,0 UV-I 0 W/m 0,4 C 0,6 C 12,9 km/h (3 Bft)
17.01.2021 18:12 1,3 C 0,6 C 94 % 1024,8 hPa 0,0 l/m 6,4 km/h (2 Bft) W-SW 248 0 min 0,0 UV-I 0 W/m 0,4 C 1,3 C 12,9 km/h (3 Bft)
17.01.2021 18:14 1,3 C 0,6 C 94 % 1024,8 hPa 0,0 l/m 6,0 km/h (2 Bft) W-SW 252 0 min 0,0 UV-I 0 W/m 0,4 C 1,3 C 12,9 km/h (3 Bft)
17.01.2021 18:16 1,3 C 0,6 C 94 % 1024,9 hPa 0,0 l/m 6,2 km/h (2 Bft) W-SW 241 0 min 0,0 UV-I 0 W/m 0,4 C 1,3 C 12,9 km/h (3 Bft)
17.01.2021 18:18 1,3 C 0,6 C 94 % 1025,0 hPa 0,0 l/m 5,6 km/h (1 Bft) W-SW 250 0 min 0,0 UV-I 0 W/m 0,4 C 1,3 C 11,3 km/h (2 Bft)
17.01.2021 18:20 1,4 C 0,6 C 94 % 1025,0 hPa 0,0 l/m 3,8 km/h (1 Bft) W 265 0 min 0,0 UV-I 0 W/m 0,5 C 1,4 C 6,4 km/h (2 Bft)
17.01.2021 18:22 1,4 C 0,6 C 94 % 1025,0 hPa 0,0 l/m 3,8 km/h (1 Bft) W 261 0 min 0,0 UV-I 0 W/m 0,5 C 1,4 C 6,4 km/h (2 Bft)
17.01.2021 18:24 1,3 C 0,6 C 94 % 1025,0 hPa 0,0 l/m 5,6 km/h (1 Bft) W 281 0 min 0,0 UV-I 0 W/m 0,4 C 1,3 C 14,5 km/h (3 Bft)
17.01.2021 18:26 1,4 C 0,6 C 94 % 1024,9 hPa 0,0 l/m 4,8 km/h (1 Bft) W-SW 251 0 min 0,0 UV-I 0 W/m 0,5 C 1,4 C 12,9 km/h (3 Bft)
17.01.2021 18:28 1,4 C 0,6 C 94 % 1025,0 hPa 0,0 l/m 4,2 km/h (1 Bft) SW 236 0 min 0,0 UV-I 0 W/m 0,5 C 1,4 C 6,4 km/h (2 Bft)
17.01.2021 18:30 1,4 C 0,6 C 94 % 1025,0 hPa 0,0 l/m 3,2 km/h (1 Bft) W-SW 239 0 min 0,0 UV-I 0 W/m 0,5 C 1,4 C 6,4 km/h (2 Bft)
17.01.2021 18:32 1,4 C 0,6 C 94 % 1025,0 hPa 0,0 l/m 4,7 km/h (1 Bft) W 260 0 min 0,0 UV-I 0 W/m 0,5 C 1,4 C 9,7 km/h (2 Bft)
17.01.2021 18:34 1,4 C 0,6 C 94 % 1025,0 hPa 0,0 l/m 4,4 km/h (1 Bft) W-SW 248 0 min 0,0 UV-I 0 W/m 0,5 C 1,4 C 8,0 km/h (2 Bft)
17.01.2021 18:36 1,4 C 0,6 C 94 % 1025,0 hPa 0,0 l/m 3,6 km/h (1 Bft) W 266 0 min 0,0 UV-I 0 W/m 0,5 C 1,4 C 9,7 km/h (2 Bft)
17.01.2021 18:38 1,4 C 0,6 C 94 % 1025,1 hPa 0,0 l/m 3,9 km/h (1 Bft) W 267 0 min 0,0 UV-I 0 W/m 0,5 C 1,4 C 6,4 km/h (2 Bft)
17.01.2021 18:40 1,4 C 0,6 C 94 % 1024,9 hPa 0,0 l/m 3,2 km/h (1 Bft) W 267 0 min 0,0 UV-I 0 W/m 0,5 C 1,4 C 4,8 km/h (1 Bft)
17.01.2021 18:42 1,4 C 0,6 C 94 % 1024,9 hPa 0,0 l/m 5,5 km/h (1 Bft) W-SW 252 0 min 0,0 UV-I 0 W/m 0,5 C 1,4 C 11,3 km/h (2 Bft)
17.01.2021 18:44 1,4 C 0,6 C 94 % 1024,9 hPa 0,0 l/m 5,1 km/h (1 Bft) W-SW 250 0 min 0,0 UV-I 0 W/m 0,5 C 1,4 C 11,3 km/h (2 Bft)
17.01.2021 18:46 1,4 C 0,6 C 94 % 1025,0 hPa 0,0 l/m 3,1 km/h (1 Bft) W 260 0 min 0,0 UV-I 0 W/m 0,5 C 1,4 C 6,4 km/h (2 Bft)
17.01.2021 18:48 1,4 C 0,6 C 94 % 1025,0 hPa 0,0 l/m 4,2 km/h (1 Bft) W-SW 239 0 min 0,0 UV-I 0 W/m 0,5 C 1,4 C 9,7 km/h (2 Bft)
17.01.2021 18:50 1,4 C 0,6 C 94 % 1024,9 hPa 0,0 l/m 4,8 km/h (1 Bft) W 268 0 min 0,0 UV-I 0 W/m 0,5 C 1,4 C 11,3 km/h (2 Bft)
17.01.2021 18:52 1,4 C 0,6 C 94 % 1025,0 hPa 0,0 l/m 4,5 km/h (1 Bft) W 260 0 min 0,0 UV-I 0 W/m 0,5 C 1,4 C 6,4 km/h (2 Bft)
17.01.2021 18:54 1,4 C 0,6 C 94 % 1025,0 hPa 0,0 l/m 3,3 km/h (1 Bft) W 269 0 min 0,0 UV-I 0 W/m 0,5 C 1,4 C 6,4 km/h (2 Bft)
17.01.2021 18:56 1,4 C 0,6 C 94 % 1025,0 hPa 0,0 l/m 6,0 km/h (2 Bft) W 265 0 min 0,0 UV-I 0 W/m 0,5 C 1,4 C 9,7 km/h (2 Bft)
17.01.2021 18:58 1,5 C 0,6 C 94 % 1025,2 hPa 0,0 l/m 5,0 km/h (1 Bft) W 260 0 min 0,0 UV-I 0 W/m 0,6 C 1,5 C 6,4 km/h (2 Bft)
17.01.2021 19:00 1,5 C 0,6 C 94 % 1025,2 hPa 0,0 l/m 5,4 km/h (1 Bft) W 262 0 min 0,0 UV-I 0 W/m 0,6 C 1,5 C 11,3 km/h (2 Bft)
17.01.2021 19:02 1,5 C 0,6 C 94 % 1025,2 hPa 0,0 l/m 5,4 km/h (1 Bft) W 261 0 min 0,0 UV-I 0 W/m 0,6 C 1,5 C 9,7 km/h (2 Bft)
17.01.2021 19:04 1,5 C 0,6 C 94 % 1025,3 hPa 0,0 l/m 3,4 km/h (1 Bft) W-SW 255 0 min 0,0 UV-I 0 W/m 0,6 C 1,5 C 4,8 km/h (1 Bft)
17.01.2021 19:06 1,5 C 0,6 C 94 % 1025,3 hPa 0,0 l/m 3,5 km/h (1 Bft) W-SW 247 0 min 0,0 UV-I 0 W/m 0,6 C 1,5 C 6,4 km/h (2 Bft)
17.01.2021 19:08 1,5 C 0,6 C 94 % 1025,2 hPa 0,0 l/m 5,4 km/h (1 Bft) W-SW 246 0 min 0,0 UV-I 0 W/m 0,6 C 1,5 C 9,7 km/h (2 Bft)
17.01.2021 19:10 1,5 C 0,6 C 94 % 1025,3 hPa 0,0 l/m 2,5 km/h (1 Bft) W-SW 248 0 min 0,0 UV-I 0 W/m 0,6 C 1,5 C 4,8 km/h (1 Bft)
17.01.2021 19:12 1,4 C 0,6 C 94 % 1025,4 hPa 0,0 l/m 4,1 km/h (1 Bft) W-SW 253 0 min 0,0 UV-I 0 W/m 0,5 C 1,4 C 6,4 km/h (2 Bft)
17.01.2021 19:14 1,4 C 0,6 C 94 % 1025,3 hPa 0,0 l/m 3,7 km/h (1 Bft) W-SW 254 0 min 0,0 UV-I 0 W/m 0,5 C 1,4 C 6,4 km/h (2 Bft)
17.01.2021 19:16 1,4 C 0,6 C 94 % 1025,4 hPa 0,0 l/m 2,5 km/h (1 Bft) W-SW 254 0 min 0,0 UV-I 0 W/m 0,5 C 1,4 C 4,8 km/h (1 Bft)
17.01.2021 19:18 1,4 C 0,6 C 94 % 1025,3 hPa 0,0 l/m 3,4 km/h (1 Bft) W-SW 254 0 min 0,0 UV-I 0 W/m 0,5 C 1,4 C 4,8 km/h (1 Bft)
17.01.2021 19:20 1,4 C 0,6 C 94 % 1025,4 hPa 0,0 l/m 3,4 km/h (1 Bft) W-SW 254 0 min 0,0 UV-I 0 W/m 0,5 C 1,4 C 4,8 km/h (1 Bft)
17.01.2021 19:22 1,4 C 0,6 C 94 % 1025,4 hPa 0,2 l/m 3,8 km/h (1 Bft) W-SW 254 0 min 0,0 UV-I 0 W/m 0,5 C 1,4 C 6,4 km/h (2 Bft)
17.01.2021 19:24 1,4 C 0,6 C 94 % 1025,4 hPa 0,0 l/m 4,4 km/h (1 Bft) W-SW 248 0 min 0,0 UV-I 0 W/m 0,5 C 1,4 C 8,0 km/h (2 Bft)
17.01.2021 19:26 1,4 C 0,6 C 94 % 1025,4 hPa 0,0 l/m 3,7 km/h (1 Bft) W 261 0 min 0,0 UV-I 0 W/m 0,5 C 1,4 C 6,4 km/h (2 Bft)
17.01.2021 19:28 1,4 C 0,6 C 94 % 1025,4 hPa 0,0 l/m 5,4 km/h (1 Bft) W-SW 248 0 min 0,0 UV-I 0 W/m 0,5 C 1,4 C 8,0 km/h (2 Bft)
17.01.2021 19:30 1,4 C 0,6 C 94 % 1025,5 hPa 0,0 l/m 5,3 km/h (1 Bft) SW 227 0 min 0,0 UV-I 0 W/m 0,5 C 1,4 C 8,0 km/h (2 Bft)
17.01.2021 19:32 1,3 C 0,6 C 94 % 1025,5 hPa 0,0 l/m 4,6 km/h (1 Bft) W-SW 246 0 min 0,0 UV-I 0 W/m 0,4 C 1,3 C 8,0 km/h (2 Bft)
17.01.2021 19:34 1,4 C 0,6 C 94 % 1025,5 hPa 0,0 l/m 4,2 km/h (1 Bft) W 263 0 min 0,0 UV-I 0 W/m 0,5 C 1,4 C 8,0 km/h (2 Bft)
17.01.2021 19:36 1,3 C 0,6 C 94 % 1025,5 hPa 0,0 l/m 5,4 km/h (1 Bft) W-SW 242 0 min 0,0 UV-I 0 W/m 0,4 C 1,3 C 9,7 km/h (2 Bft)
17.01.2021 19:38 1,3 C 0,6 C 94 % 1025,6 hPa 0,0 l/m 8,6 km/h (2 Bft) W 269 0 min 0,0 UV-I 0 W/m 0,4 C -0,8 C 16,1 km/h (3 Bft)
17.01.2021 19:40 1,3 C 0,6 C 94 % 1025,5 hPa 0,0 l/m 9,7 km/h (2 Bft) W 263 0 min 0,0 UV-I 0 W/m 0,4 C -1,8 C 16,1 km/h (3 Bft)
17.01.2021 19:42 1,3 C 0,6 C 94 % 1025,6 hPa 0,0 l/m 6,8 km/h (2 Bft) W 267 0 min 0,0 UV-I 0 W/m 0,4 C 0,9 C 12,9 km/h (3 Bft)
17.01.2021 19:44 1,3 C 0,6 C 94 % 1025,6 hPa 0,0 l/m 5,7 km/h (1 Bft) W-SW 248 0 min 0,0 UV-I 0 W/m 0,4 C 1,3 C 9,7 km/h (2 Bft)
17.01.2021 19:46 1,3 C 0,6 C 94 % 1025,6 hPa 0,0 l/m 6,1 km/h (2 Bft) W 261 0 min 0,0 UV-I 0 W/m 0,4 C 1,3 C 12,9 km/h (3 Bft)
17.01.2021 19:48 1,3 C 0,6 C 94 % 1025,6 hPa 0,0 l/m 6,4 km/h (2 Bft) W-NW 290 0 min 0,0 UV-I 0 W/m 0,4 C 1,3 C 12,9 km/h (3 Bft)
17.01.2021 19:50 1,3 C 0,6 C 94 % 1025,5 hPa 0,0 l/m 4,7 km/h (1 Bft) W-SW 245 0 min 0,0 UV-I 0 W/m 0,4 C 1,3 C 6,4 km/h (2 Bft)
17.01.2021 19:52 1,3 C 0,6 C 94 % 1025,5 hPa 0,0 l/m 4,0 km/h (1 Bft) W 267 0 min 0,0 UV-I 0 W/m 0,4 C 1,3 C 8,0 km/h (2 Bft)
17.01.2021 19:54 1,3 C 0,6 C 94 % 1025,5 hPa 0,0 l/m 5,9 km/h (2 Bft) W 263 0 min 0,0 UV-I 0 W/m 0,4 C 1,3 C 12,9 km/h (3 Bft)
17.01.2021 19:56 1,3 C 0,6 C 94 % 1025,5 hPa 0,0 l/m 4,8 km/h (1 Bft) W-SW 238 0 min 0,0 UV-I 0 W/m 0,4 C 1,3 C 6,4 km/h (2 Bft)
17.01.2021 19:58 1,4 C 0,6 C 94 % 1025,4 hPa 0,0 l/m 6,2 km/h (2 Bft) W-SW 249 0 min 0,0 UV-I 0 W/m 0,5 C 1,4 C 11,3 km/h (2 Bft)
17.01.2021 20:00 1,3 C 0,6 C 94 % 1025,5 hPa 0,0 l/m 3,9 km/h (1 Bft) W-SW 238 0 min 0,0 UV-I 0 W/m 0,4 C 1,3 C 8,0 km/h (2 Bft)
17.01.2021 20:02 1,3 C 0,6 C 94 % 1025,6 hPa 0,0 l/m 2,1 km/h (1 Bft) W-SW 238 0 min 0,0 UV-I 0 W/m 0,4 C 1,3 C 4,8 km/h (1 Bft)
17.01.2021 20:04 1,3 C 0,6 C 94 % 1025,5 hPa 0,0 l/m 5,4 km/h (1 Bft) W-SW 243 0 min 0,0 UV-I 0 W/m 0,4 C 1,3 C 8,0 km/h (2 Bft)
17.01.2021 20:06 1,3 C 0,6 C 94 % 1025,6 hPa 0,0 l/m 6,4 km/h (2 Bft) SW 223 0 min 0,0 UV-I 0 W/m 0,4 C 1,3 C 11,3 km/h (2 Bft)
17.01.2021 20:08 1,3 C 0,6 C 94 % 1025,6 hPa 0,0 l/m 4,6 km/h (1 Bft) W-SW 238 0 min 0,0 UV-I 0 W/m 0,4 C 1,3 C 6,4 km/h (2 Bft)
17.01.2021 20:10 1,3 C 0,6 C 94 % 1025,7 hPa 0,0 l/m 4,0 km/h (1 Bft) W-SW 238 0 min 0,0 UV-I 0 W/m 0,4 C 1,3 C 6,4 km/h (2 Bft)
17.01.2021 20:12 1,3 C 0,6 C 94 % 1025,6 hPa 0,0 l/m 4,8 km/h (1 Bft) SW 235 0 min 0,0 UV-I 0 W/m 0,4 C 1,3 C 8,0 km/h (2 Bft)
17.01.2021 20:14 1,3 C 0,6 C 94 % 1025,6 hPa 0,0 l/m 4,2 km/h (1 Bft) W-SW 252 0 min 0,0 UV-I 0 W/m 0,4 C 1,3 C 6,4 km/h (2 Bft)
17.01.2021 20:16 1,3 C 0,6 C 94 % 1025,5 hPa 0,0 l/m 4,1 km/h (1 Bft) W-SW 246 0 min 0,0 UV-I 0 W/m 0,4 C 1,3 C 8,0 km/h (2 Bft)
17.01.2021 20:18 1,2 C 0,6 C 94 % 1025,7 hPa 0,0 l/m 4,5 km/h (1 Bft) W-SW 239 0 min 0,0 UV-I 0 W/m 0,3 C 1,2 C 6,4 km/h (2 Bft)
17.01.2021 20:20 1,2 C 0,6 C 94 % 1025,7 hPa 0,0 l/m 3,8 km/h (1 Bft) W 263 0 min 0,0 UV-I 0 W/m 0,3 C 1,2 C 6,4 km/h (2 Bft)
17.01.2021 20:22 1,2 C 0,6 C 94 % 1025,7 hPa 0,0 l/m 4,6 km/h (1 Bft) W-SW 238 0 min 0,0 UV-I 0 W/m 0,3 C 1,2 C 8,0 km/h (2 Bft)
17.01.2021 20:24 1,2 C 0,0 C 94 % 1025,7 hPa 0,0 l/m 6,1 km/h (2 Bft) W-SW 257 0 min 0,0 UV-I 0 W/m 0,3 C 1,2 C 11,3 km/h (2 Bft)
17.01.2021 20:26 1,2 C 0,0 C 94 % 1025,7 hPa 0,0 l/m 4,5 km/h (1 Bft) W-SW 249 0 min 0,0 UV-I 0 W/m 0,3 C 1,2 C 8,0 km/h (2 Bft)
17.01.2021 20:28 1,2 C 0,0 C 94 % 1025,6 hPa 0,0 l/m 5,6 km/h (1 Bft) W-SW 242 0 min 0,0 UV-I 0 W/m 0,3 C 1,2 C 11,3 km/h (2 Bft)
17.01.2021 20:30 1,2 C 0,0 C 94 % 1025,7 hPa 0,0 l/m 5,7 km/h (1 Bft) W-SW 244 0 min 0,0 UV-I 0 W/m 0,3 C 1,2 C 9,7 km/h (2 Bft)
17.01.2021 20:32 1,2 C 0,0 C 94 % 1025,7 hPa 0,0 l/m 4,6 km/h (1 Bft) S-SW 207 0 min 0,0 UV-I 0 W/m 0,3 C 1,2 C 8,0 km/h (2 Bft)
17.01.2021 20:34 1,1 C 0,6 C 94 % 1025,8 hPa 0,0 l/m 8,6 km/h (2 Bft) W-SW 255 0 min 0,0 UV-I 0 W/m 0,2 C -1,0 C 16,1 km/h (3 Bft)
17.01.2021 20:36 1,1 C 0,6 C 94 % 1025,8 hPa 0,0 l/m 12,0 km/h (2 Bft) W-SW 239 0 min 0,0 UV-I 0 W/m 0,2 C -3,7 C 19,3 km/h (3 Bft)
17.01.2021 20:38 1,2 C 0,6 C 94 % 1025,8 hPa 0,0 l/m 8,0 km/h (2 Bft) S-SW 207 0 min 0,0 UV-I 0 W/m 0,3 C -0,4 C 14,5 km/h (3 Bft)
17.01.2021 20:40 1,2 C 0,6 C 94 % 1025,8 hPa 0,0 l/m 8,5 km/h (2 Bft) W-SW 252 0 min 0,0 UV-I 0 W/m 0,3 C -0,8 C 14,5 km/h (3 Bft)
17.01.2021 20:42 1,2 C 0,6 C 94 % 1025,8 hPa 0,0 l/m 6,1 km/h (2 Bft) SW 224 0 min 0,0 UV-I 0 W/m 0,3 C 1,2 C 12,9 km/h (3 Bft)
17.01.2021 20:44 1,2 C 0,6 C 94 % 1025,9 hPa 0,0 l/m 8,6 km/h (2 Bft) W-SW 238 0 min 0,0 UV-I 0 W/m 0,3 C -0,9 C 16,1 km/h (3 Bft)
17.01.2021 20:46 1,2 C 0,6 C 94 % 1025,8 hPa 0,0 l/m 6,3 km/h (2 Bft) W-SW 253 0 min 0,0 UV-I 0 W/m 0,3 C 1,2 C 14,5 km/h (3 Bft)
17.01.2021 20:48 1,2 C 0,6 C 94 % 1025,8 hPa 0,0 l/m 9,3 km/h (2 Bft) W-SW 242 0 min 0,0 UV-I 0 W/m 0,3 C -1,5 C 14,5 km/h (3 Bft)
17.01.2021 20:50 1,2 C 0,6 C 94 % 1025,8 hPa 0,0 l/m 9,1 km/h (2 Bft) W-SW 250 0 min 0,0 UV-I 0 W/m 0,3 C -1,4 C 17,7 km/h (3 Bft)
17.01.2021 20:52 1,2 C 0,6 C 95 % 1025,8 hPa 0,0 l/m 9,0 km/h (2 Bft) S-SW 207 0 min 0,0 UV-I 0 W/m 0,5 C -1,3 C 14,5 km/h (3 Bft)
17.01.2021 20:54 1,2 C 0,6 C 95 % 1025,8 hPa 0,0 l/m 8,0 km/h (2 Bft) W 268 0 min 0,0 UV-I 0 W/m 0,5 C -0,4 C 14,5 km/h (3 Bft)
17.01.2021 20:56 1,2 C 0,6 C 95 % 1025,8 hPa 0,0 l/m 7,5 km/h (2 Bft) W 267 0 min 0,0 UV-I 0 W/m 0,5 C 0,1 C 14,5 km/h (3 Bft)
17.01.2021 20:58 1,3 C 0,6 C 95 % 1025,8 hPa 0,0 l/m 8,7 km/h (2 Bft) W-SW 252 0 min 0,0 UV-I 0 W/m 0,6 C -0,9 C 14,5 km/h (3 Bft)
17.01.2021 21:00 1,2 C 0,6 C 95 % 1025,8 hPa 0,0 l/m 6,1 km/h (2 Bft) SW 227 0 min 0,0 UV-I 0 W/m 0,5 C 1,2 C 12,9 km/h (3 Bft)
17.01.2021 21:02 1,2 C 0,6 C 95 % 1025,7 hPa 0,0 l/m 6,7 km/h (2 Bft) S-SW 208 0 min 0,0 UV-I 0 W/m 0,5 C 0,9 C 12,9 km/h (3 Bft)
17.01.2021 21:04 1,2 C 0,6 C 95 % 1026,2 hPa 0,0 l/m 6,5 km/h (2 Bft) W 261 0 min 0,0 UV-I 0 W/m 0,5 C 1,1 C 11,3 km/h (2 Bft)
17.01.2021 21:06 1,2 C 0,6 C 95 % 1025,8 hPa 0,2 l/m 8,8 km/h (2 Bft) W-SW 250 0 min 0,0 UV-I 0 W/m 0,5 C -1,1 C 17,7 km/h (3 Bft)
17.01.2021 21:08 1,2 C 0,6 C 95 % 1025,8 hPa 0,0 l/m 10,0 km/h (2 Bft) W 266 0 min 0,0 UV-I 0 W/m 0,5 C -2,1 C 16,1 km/h (3 Bft)
17.01.2021 21:10 1,2 C 0,6 C 95 % 1025,8 hPa 0,0 l/m 10,9 km/h (2 Bft) SW 230 0 min 0,0 UV-I 0 W/m 0,5 C -2,8 C 20,9 km/h (4 Bft)
17.01.2021 21:12 1,2 C 0,6 C 95 % 1025,8 hPa 0,0 l/m 7,5 km/h (2 Bft) W-SW 237 0 min 0,0 UV-I 0 W/m 0,5 C 0,1 C 12,9 km/h (3 Bft)
17.01.2021 21:14 1,3 C 0,6 C 95 % 1025,8 hPa 0,0 l/m 9,2 km/h (2 Bft) SW 224 0 min 0,0 UV-I 0 W/m 0,6 C -1,4 C 14,5 km/h (3 Bft)
17.01.2021 21:16 1,2 C 0,6 C 95 % 1025,8 hPa 0,0 l/m 7,9 km/h (2 Bft) W-SW 248 0 min 0,0 UV-I 0 W/m 0,5 C -0,3 C 14,5 km/h (3 Bft)
17.01.2021 21:18 1,3 C 0,6 C 95 % 1025,8 hPa 0,0 l/m 11,6 km/h (2 Bft) W-SW 255 0 min 0,0 UV-I 0 W/m 0,6 C -3,2 C 19,3 km/h (3 Bft)
17.01.2021 21:20 1,3 C 0,6 C 95 % 1025,8 hPa 0,0 l/m 7,4 km/h (2 Bft) SW 215 0 min 0,0 UV-I 0 W/m 0,6 C 0,3 C 14,5 km/h (3 Bft)
17.01.2021 21:22 1,2 C 0,6 C 95 % 1025,8 hPa 0,0 l/m 11,1 km/h (2 Bft) W-SW 244 0 min 0,0 UV-I 0 W/m 0,5 C -3,0 C 17,7 km/h (3 Bft)
17.01.2021 21:24 1,3 C 0,6 C 95 % 1025,8 hPa 0,0 l/m 9,5 km/h (2 Bft) W-SW 249 0 min 0,0 UV-I 0 W/m 0,6 C -1,6 C 16,1 km/h (3 Bft)
17.01.2021 21:26 1,3 C 0,6 C 95 % 1025,8 hPa 0,0 l/m 6,7 km/h (2 Bft) SW 218 0 min 0,0 UV-I 0 W/m 0,6 C 1,0 C 12,9 km/h (3 Bft)
17.01.2021 21:28 1,3 C 0,6 C 95 % 1025,7 hPa 0,0 l/m 6,1 km/h (2 Bft) SW 220 0 min 0,0 UV-I 0 W/m 0,6 C 1,3 C 16,1 km/h (3 Bft)
17.01.2021 21:30 1,3 C 0,6 C 95 % 1025,7 hPa 0,0 l/m 6,3 km/h (2 Bft) W 266 0 min 0,0 UV-I 0 W/m 0,6 C 1,3 C 11,3 km/h (2 Bft)
17.01.2021 21:32 1,3 C 0,6 C 95 % 1025,8 hPa 0,0 l/m 6,3 km/h (2 Bft) W-SW 250 0 min 0,0 UV-I 0 W/m 0,6 C 1,3 C 9,7 km/h (2 Bft)
17.01.2021 21:34 1,2 C 0,6 C 95 % 1025,8 hPa 0,0 l/m 8,2 km/h (2 Bft) SW 229 0 min 0,0 UV-I 0 W/m 0,5 C -0,6 C 16,1 km/h (3 Bft)
17.01.2021 21:36 1,2 C 0,6 C 95 % 1025,7 hPa 0,0 l/m 8,9 km/h (2 Bft) W-SW 258 0 min 0,0 UV-I 0 W/m 0,5 C -1,2 C 17,7 km/h (3 Bft)
17.01.2021 21:38 1,2 C 0,6 C 95 % 1025,8 hPa 0,0 l/m 8,4 km/h (2 Bft) SW 219 0 min 0,0 UV-I 0 W/m 0,5 C -0,8 C 16,1 km/h (3 Bft)
17.01.2021 21:40 1,3 C 0,6 C 95 % 1025,9 hPa 0,0 l/m 10,3 km/h (2 Bft) SW 223 0 min 0,0 UV-I 0 W/m 0,6 C -2,3 C 16,1 km/h (3 Bft)
17.01.2021 21:42 1,3 C 0,6 C 95 % 1025,9 hPa 0,0 l/m 9,2 km/h (2 Bft) W 261 0 min 0,0 UV-I 0 W/m 0,6 C -1,4 C 14,5 km/h (3 Bft)
17.01.2021 21:44 1,3 C 0,6 C 95 % 1025,9 hPa 0,0 l/m 7,3 km/h (2 Bft) W 259 0 min 0,0 UV-I 0 W/m 0,6 C 0,4 C 12,9 km/h (3 Bft)
17.01.2021 21:46 1,3 C 0,6 C 95 % 1025,9 hPa 0,0 l/m 6,9 km/h (2 Bft) SW 233 0 min 0,0 UV-I 0 W/m 0,6 C 0,8 C 14,5 km/h (3 Bft)
17.01.2021 21:48 1,2 C 0,6 C 95 % 1025,9 hPa 0,0 l/m 6,6 km/h (2 Bft) W 267 0 min 0,0 UV-I 0 W/m 0,5 C 1,0 C 14,5 km/h (3 Bft)
17.01.2021 21:50 1,2 C 0,6 C 95 % 1026,0 hPa 0,0 l/m 7,7 km/h (2 Bft) W-SW 257 0 min 0,0 UV-I 0 W/m 0,5 C -0,1 C 12,9 km/h (3 Bft)
17.01.2021 21:52 1,3 C 0,6 C 95 % 1026,0 hPa 0,0 l/m 8,7 km/h (2 Bft) SW 229 0 min 0,0 UV-I 0 W/m 0,6 C -0,9 C 14,5 km/h (3 Bft)
17.01.2021 21:54 1,3 C 0,6 C 95 % 1026,0 hPa 0,0 l/m 8,6 km/h (2 Bft) W-SW 246 0 min 0,0 UV-I 0 W/m 0,6 C -0,8 C 14,5 km/h (3 Bft)
17.01.2021 21:56 1,3 C 0,6 C 95 % 1026,0 hPa 0,0 l/m 5,0 km/h (1 Bft) W-SW 246 0 min 0,0 UV-I 0 W/m 0,6 C 1,3 C 6,4 km/h (2 Bft)
17.01.2021 21:58 1,3 C 0,6 C 95 % 1025,9 hPa 0,0 l/m 8,7 km/h (2 Bft) W-SW 245 0 min 0,0 UV-I 0 W/m 0,6 C -0,9 C 12,9 km/h (3 Bft)
17.01.2021 22:00 1,3 C 0,6 C 95 % 1026,0 hPa 0,0 l/m 5,8 km/h (2 Bft) W 267 0 min 0,0 UV-I 0 W/m 0,6 C 1,3 C 12,9 km/h (3 Bft)
17.01.2021 22:02 1,3 C 0,6 C 95 % 1025,9 hPa 0,0 l/m 6,3 km/h (2 Bft) W 260 0 min 0,0 UV-I 0 W/m 0,6 C 1,3 C 11,3 km/h (2 Bft)
17.01.2021 22:04 1,3 C 0,6 C 95 % 1026,0 hPa 0,0 l/m 7,3 km/h (2 Bft) W 265 0 min 0,0 UV-I 0 W/m 0,6 C 0,4 C 11,3 km/h (2 Bft)
17.01.2021 22:06 1,3 C 0,6 C 95 % 1025,9 hPa 0,0 l/m 6,0 km/h (2 Bft) W 265 0 min 0,0 UV-I 0 W/m 0,6 C 1,3 C 9,7 km/h (2 Bft)
17.01.2021 22:08 1,3 C 0,6 C 95 % 1026,0 hPa 0,0 l/m 7,4 km/h (2 Bft) W-SW 252 0 min 0,0 UV-I 0 W/m 0,6 C 0,3 C 12,9 km/h (3 Bft)
17.01.2021 22:10 1,3 C 0,6 C 95 % 1026,0 hPa 0,0 l/m 6,1 km/h (2 Bft) SW 227 0 min 0,0 UV-I 0 W/m 0,6 C 1,3 C 11,3 km/h (2 Bft)
17.01.2021 22:12 1,3 C 0,6 C 95 % 1026,0 hPa 0,0 l/m 6,7 km/h (2 Bft) W-SW 257 0 min 0,0 UV-I 0 W/m 0,6 C 1,0 C 12,9 km/h (3 Bft)
17.01.2021 22:14 1,3 C 0,6 C 95 % 1026,0 hPa 0,0 l/m 5,4 km/h (1 Bft) W-SW 250 0 min 0,0 UV-I 0 W/m 0,6 C 1,3 C 11,3 km/h (2 Bft)
17.01.2021 22:16 1,2 C 0,6 C 95 % 1026,1 hPa 0,0 l/m 8,0 km/h (2 Bft) W-SW 255 0 min 0,0 UV-I 0 W/m 0,5 C -0,4 C 11,3 km/h (2 Bft)
17.01.2021 22:18 1,3 C 0,6 C 95 % 1026,0 hPa 0,0 l/m 4,9 km/h (1 Bft) W-SW 257 0 min 0,0 UV-I 0 W/m 0,6 C 1,3 C 6,4 km/h (2 Bft)
17.01.2021 22:20 1,2 C 0,6 C 95 % 1026,1 hPa 0,0 l/m 4,9 km/h (1 Bft) SW 234 0 min 0,0 UV-I 0 W/m 0,5 C 1,2 C 6,4 km/h (2 Bft)
17.01.2021 22:22 1,2 C 0,6 C 95 % 1026,1 hPa 0,0 l/m 3,7 km/h (1 Bft) SW 236 0 min 0,0 UV-I 0 W/m 0,5 C 1,2 C 6,4 km/h (2 Bft)
17.01.2021 22:24 1,2 C 0,6 C 95 % 1026,1 hPa 0,0 l/m 3,3 km/h (1 Bft) W 259 0 min 0,0 UV-I 0 W/m 0,5 C 1,2 C 4,8 km/h (1 Bft)
17.01.2021 22:26 1,2 C 0,6 C 95 % 1026,0 hPa 0,0 l/m 3,0 km/h (1 Bft) W 259 0 min 0,0 UV-I 0 W/m 0,5 C 1,2 C 4,8 km/h (1 Bft)
17.01.2021 22:28 1,2 C 0,6 C 95 % 1026,1 hPa 0,0 l/m 3,8 km/h (1 Bft) W-SW 243 0 min 0,0 UV-I 0 W/m 0,5 C 1,2 C 8,0 km/h (2 Bft)
17.01.2021 22:30 1,2 C 0,6 C 95 % 1026,1 hPa 0,0 l/m 2,4 km/h (1 Bft) W-SW 243 0 min 0,0 UV-I 0 W/m 0,5 C 1,2 C 4,8 km/h (1 Bft)
17.01.2021 22:32 1,2 C 0,6 C 95 % 1026,1 hPa 0,0 l/m 2,5 km/h (1 Bft) W-SW 243 0 min 0,0 UV-I 0 W/m 0,5 C 1,2 C 4,8 km/h (1 Bft)
17.01.2021 22:34 1,2 C 0,6 C 95 % 1026,2 hPa 0,0 l/m 4,2 km/h (1 Bft) SW 225 0 min 0,0 UV-I 0 W/m 0,5 C 1,2 C 8,0 km/h (2 Bft)
17.01.2021 22:36 1,2 C 0,6 C 95 % 1026,2 hPa 0,0 l/m 3,3 km/h (1 Bft) SW 234 0 min 0,0 UV-I 0 W/m 0,5 C 1,2 C 6,4 km/h (2 Bft)
17.01.2021 22:38 1,2 C 0,0 C 94 % 1026,2 hPa 0,0 l/m 2,1 km/h (1 Bft) SW 234 0 min 0,0 UV-I 0 W/m 0,3 C 1,2 C 3,2 km/h (1 Bft)
17.01.2021 22:40 1,2 C 0,0 C 94 % 1026,2 hPa 0,0 l/m 2,6 km/h (1 Bft) SW 234 0 min 0,0 UV-I 0 W/m 0,3 C 1,2 C 4,8 km/h (1 Bft)
17.01.2021 22:42 1,2 C 0,0 C 94 % 1026,3 hPa 0,0 l/m 3,0 km/h (1 Bft) SW 234 0 min 0,0 UV-I 0 W/m 0,3 C 1,2 C 4,8 km/h (1 Bft)
17.01.2021 22:44 1,1 C 0,0 C 94 % 1026,3 hPa 0,0 l/m 3,7 km/h (1 Bft) SW 234 0 min 0,0 UV-I 0 W/m 0,2 C 1,1 C 6,4 km/h (2 Bft)
17.01.2021 22:46 1,1 C 0,0 C 94 % 1026,3 hPa 0,0 l/m 0,8 km/h (0 Bft) SW 234 0 min 0,0 UV-I 0 W/m 0,2 C 1,1 C 3,2 km/h (1 Bft)
17.01.2021 22:48 1,1 C 0,0 C 94 % 1026,3 hPa 0,0 l/m 2,4 km/h (1 Bft) SW 234 0 min 0,0 UV-I 0 W/m 0,2 C 1,1 C 3,2 km/h (1 Bft)
17.01.2021 22:50 1,1 C 0,0 C 94 % 1026,3 hPa 0,0 l/m 3,0 km/h (1 Bft) W-SW 251 0 min 0,0 UV-I 0 W/m 0,2 C 1,1 C 9,7 km/h (2 Bft)
17.01.2021 22:52 1,1 C 0,0 C 94 % 1026,3 hPa 0,0 l/m 3,7 km/h (1 Bft) SW 231 0 min 0,0 UV-I 0 W/m 0,2 C 1,1 C 6,4 km/h (2 Bft)
17.01.2021 22:54 1,1 C 0,0 C 94 % 1026,3 hPa 0,0 l/m 1,4 km/h (1 Bft) SW 231 0 min 0,0 UV-I 0 W/m 0,2 C 1,1 C 3,2 km/h (1 Bft)
17.01.2021 22:56 1,0 C 0,0 C 94 % 1026,2 hPa 0,0 l/m 2,3 km/h (1 Bft) SW 231 0 min 0,0 UV-I 0 W/m 0,1 C 1,0 C 3,2 km/h (1 Bft)
17.01.2021 22:58 1,1 C 0,0 C 94 % 1026,2 hPa 0,0 l/m 3,0 km/h (1 Bft) W-SW 246 0 min 0,0 UV-I 0 W/m 0,2 C 1,1 C 6,4 km/h (2 Bft)
17.01.2021 23:00 1,0 C 0,0 C 94 % 1026,3 hPa 0,0 l/m 3,1 km/h (1 Bft) W-SW 246 0 min 0,0 UV-I 0 W/m 0,1 C 1,0 C 4,8 km/h (1 Bft)
17.01.2021 23:02 1,0 C 0,0 C 94 % 1026,3 hPa 0,0 l/m 3,8 km/h (1 Bft) SW 236 0 min 0,0 UV-I 0 W/m 0,1 C 1,0 C 6,4 km/h (2 Bft)
17.01.2021 23:04 1,0 C 0,0 C 95 % 1026,3 hPa 0,0 l/m 3,2 km/h (1 Bft) SW 236 0 min 0,0 UV-I 0 W/m 0,3 C 1,0 C 4,8 km/h (1 Bft)
17.01.2021 23:06 0,9 C 0,0 C 95 % 1026,3 hPa 0,0 l/m 3,2 km/h (1 Bft) SW 236 0 min 0,0 UV-I 0 W/m 0,2 C 0,9 C 4,8 km/h (1 Bft)
17.01.2021 23:08 0,9 C 0,0 C 95 % 1026,4 hPa 0,0 l/m 2,8 km/h (1 Bft) SW 236 0 min 0,0 UV-I 0 W/m 0,2 C 0,9 C 4,8 km/h (1 Bft)
17.01.2021 23:10 0,9 C 0,0 C 95 % 1026,4 hPa 0,0 l/m 4,3 km/h (1 Bft) SW 223 0 min 0,0 UV-I 0 W/m 0,2 C 0,9 C 6,4 km/h (2 Bft)
17.01.2021 23:12 0,9 C 0,0 C 95 % 1026,4 hPa 0,0 l/m 4,0 km/h (1 Bft) SW 223 0 min 0,0 UV-I 0 W/m 0,2 C 0,9 C 4,8 km/h (1 Bft)
17.01.2021 23:14 0,9 C 0,0 C 94 % 1026,4 hPa 0,0 l/m 4,8 km/h (1 Bft) S-SW 211 0 min 0,0 UV-I 0 W/m 0,0 C 0,9 C 6,4 km/h (2 Bft)
17.01.2021 23:16 0,9 C 0,0 C 95 % 1026,4 hPa 0,0 l/m 3,9 km/h (1 Bft) S-SW 203 0 min 0,0 UV-I 0 W/m 0,2 C 0,9 C 6,4 km/h (2 Bft)
17.01.2021 23:18 0,9 C 0,0 C 95 % 1026,5 hPa 0,0 l/m 5,3 km/h (1 Bft) SW 219 0 min 0,0 UV-I 0 W/m 0,2 C 0,9 C 8,0 km/h (2 Bft)
17.01.2021 23:20 0,8 C 0,0 C 95 % 1026,5 hPa 0,0 l/m 6,2 km/h (2 Bft) SW 219 0 min 0,0 UV-I 0 W/m 0,1 C 0,8 C 8,0 km/h (2 Bft)
17.01.2021 23:22 0,9 C 0,0 C 95 % 1026,4 hPa 0,0 l/m 4,6 km/h (1 Bft) SW 219 0 min 0,0 UV-I 0 W/m 0,2 C 0,9 C 6,4 km/h (2 Bft)
17.01.2021 23:24 0,8 C 0,0 C 95 % 1026,4 hPa 0,0 l/m 3,0 km/h (1 Bft) SW 219 0 min 0,0 UV-I 0 W/m 0,1 C 0,8 C 4,8 km/h (1 Bft)
17.01.2021 23:26 0,9 C 0,0 C 95 % 1026,5 hPa 0,0 l/m 5,6 km/h (1 Bft) S-SW 211 0 min 0,0 UV-I 0 W/m 0,2 C 0,9 C 8,0 km/h (2 Bft)
17.01.2021 23:28 0,8 C 0,0 C 95 % 1026,5 hPa 0,0 l/m 5,6 km/h (1 Bft) W-SW 242 0 min 0,0 UV-I 0 W/m 0,1 C 0,8 C 9,7 km/h (2 Bft)
17.01.2021 23:30 0,8 C 0,0 C 94 % 1026,5 hPa 0,0 l/m 3,5 km/h (1 Bft) SW 232 0 min 0,0 UV-I 0 W/m -0,1 C 0,8 C 6,4 km/h (2 Bft)
17.01.2021 23:32 0,8 C 0,0 C 95 % 1026,5 hPa 0,0 l/m 2,2 km/h (1 Bft) SW 229 0 min 0,0 UV-I 0 W/m 0,1 C 0,8 C 6,4 km/h (2 Bft)
17.01.2021 23:34 0,8 C 0,0 C 94 % 1026,5 hPa 0,0 l/m 3,5 km/h (1 Bft) SW 228 0 min 0,0 UV-I 0 W/m -0,1 C 0,8 C 6,4 km/h (2 Bft)
17.01.2021 23:36 0,8 C 0,0 C 94 % 1026,5 hPa 0,0 l/m 3,7 km/h (1 Bft) SW 227 0 min 0,0 UV-I 0 W/m -0,1 C 0,8 C 6,4 km/h (2 Bft)
17.01.2021 23:38 0,8 C 0,0 C 94 % 1026,4 hPa 0,0 l/m 4,1 km/h (1 Bft) SW 228 0 min 0,0 UV-I 0 W/m -0,1 C 0,8 C 6,4 km/h (2 Bft)
17.01.2021 23:40 0,8 C 0,0 C 94 % 1026,5 hPa 0,0 l/m 3,2 km/h (1 Bft) SW 228 0 min 0,0 UV-I 0 W/m -0,1 C 0,8 C 6,4 km/h (2 Bft)
17.01.2021 23:42 0,8 C 0,0 C 95 % 1026,4 hPa 0,0 l/m 3,4 km/h (1 Bft) SW 227 0 min 0,0 UV-I 0 W/m 0,1 C 0,8 C 6,4 km/h (2 Bft)
17.01.2021 23:44 0,8 C 0,0 C 94 % 1026,7 hPa 0,0 l/m 3,9 km/h (1 Bft) W-SW 237 0 min 0,0 UV-I 0 W/m -0,1 C 0,8 C 6,4 km/h (2 Bft)
17.01.2021 23:46 0,8 C 0,0 C 95 % 1026,7 hPa 0,0 l/m 4,6 km/h (1 Bft) SW 225 0 min 0,0 UV-I 0 W/m 0,1 C 0,8 C 8,0 km/h (2 Bft)
17.01.2021 23:48 0,8 C 0,0 C 95 % 1026,7 hPa 0,0 l/m 3,7 km/h (1 Bft) S-SW 213 0 min 0,0 UV-I 0 W/m 0,1 C 0,8 C 6,4 km/h (2 Bft)
17.01.2021 23:50 0,8 C 0,0 C 95 % 1026,7 hPa 0,0 l/m 4,8 km/h (1 Bft) SW 228 0 min 0,0 UV-I 0 W/m 0,1 C 0,8 C 6,4 km/h (2 Bft)
17.01.2021 23:52 0,8 C 0,0 C 95 % 1026,7 hPa 0,0 l/m 2,7 km/h (1 Bft) SW 228 0 min 0,0 UV-I 0 W/m 0,1 C 0,8 C 3,2 km/h (1 Bft)
17.01.2021 23:54 0,8 C 0,0 C 95 % 1026,6 hPa 0,0 l/m 1,8 km/h (1 Bft) SW 228 0 min 0,0 UV-I 0 W/m 0,1 C 0,8 C 3,2 km/h (1 Bft)
17.01.2021 23:56 0,8 C 0,0 C 95 % 1026,6 hPa 0,0 l/m 4,5 km/h (1 Bft) SW 227 0 min 0,0 UV-I 0 W/m 0,1 C 0,8 C 9,7 km/h (2 Bft)
17.01.2021 23:58 0,8 C 0,0 C 95 % 1026,5 hPa 0,0 l/m 5,1 km/h (1 Bft) SW 232 0 min 0,0 UV-I 0 W/m 0,1 C 0,8 C 9,7 km/h (2 Bft)
17.01.2021 23:59 0,8 C 0,0 C 95 % 1026,5 hPa 0,0 l/m 4,8 km/h (1 Bft) SW 225 0 min 0,0 UV-I 0 W/m 0,1 C 0,8 C 6,4 km/h (2 Bft)
_ Min-Zeit 04:08 00:21 00:00 02:01 - 08:07 - - - - - 02:24 00:12 16:32
Minimum _ -4,4 C -3,9 C 91 % 1017,8 hPa - 0,0 km/h (0 Bft) - - - - - -5,5 C -10,4 C 0,0 km/h (0 Bft)
_ Max-Zeit 15:08 14:14 08:45 23:44 00:58 00:12 - - 00:00 12:00 12:20 12:42 15:14 21:10
Maximum _ 2,0 C 1,7 C 95 % 1026,7 hPa 0,2 l/m 12,9 km/h
S-SW (3 Bft)
- - 0 min 0,8 UV-I 180 W/m 1,0 C 2,0 C 20,9 km/h
W-SW (4 Bft)
Durchschnitt _ -0,9 C -0,9 C 94 % 1021,6 hPa #1,4 l/m 5,3 km/h (1 Bft) S-SW - #0 min. 0,6 UV-I 76 W/m -1,8 C -1,3 C 8,6 km/h (2 Bft)